[[{"header":{"parameterUnit":"m.s-1","parameterCategory":1,"la1":30.6,"la2":29.2853,"lo1":-89.7004,"lo2":-87.6739,"dy":0.0162,"dx":0.0183,"nx":112,"ny":82,"refTime":"2023-07-05T06:00:00:Z","depth":0,"parameterNumber":2,"parameterNumberName":"U-component_of_WINDS"},"data":[0.0,0.0,0.0,0.0,0.0,0.0,0.0,0.0,0.0,0.0,0.0,0.0,0.0,0.0,0.0,0.0,0.0,0.0,0.0,0.0,0.0,0.0,0.0,0.0,0.0,0.0,0.0,0.0,0.0,0.0,0.0,0.0,0.0,0.0,0.0,0.0,0.0,0.0,0.0,0.0,0.0,0.0,0.0,0.0,0.0,0.0,0.0,0.0,0.0,0.0,0.0,0.0,0.0,0.0,0.0,0.0,0.0,0.0,0.0,0.0,0.0,0.0,0.0,0.0,0.0,0.0,0.0,0.0,0.0,0.0,0.0,0.0,0.0,0.0,0.0,0.0,0.0,0.0,0.0,0.0,0.0,0.0,0.0,0.0,0.0,0.0,0.0,0.0,0.0,0.0,-0.5027,-0.5453,-0.6024,-0.5922,-0.4806,-0.4734,-0.4425,-0.3622,0.0,0.0,0.0,0.0,0.0,0.0,0.0,0.0,0.0,0.0,0.0,0.0,0.0,0.0,0.0,0.0,0.0,0.0,0.0,0.0,0.0,0.0,0.0,0.0,0.0,0.0,0.0,0.0,0.0,0.0,0.0,0.0,0.0,0.0,0.0,0.0,0.0,0.0,0.0,0.0,0.0,0.0,0.0,0.0,0.0,0.0,0.0,0.0,0.0,0.0,0.0,0.0,0.0,0.0,0.0,0.0,0.0,0.0,0.0,0.0,0.0,0.0,0.0,0.0,0.0,0.0,0.0,0.0,0.0,0.0,0.0,0.0,0.0,0.0,0.0,0.0,0.0,0.0,0.0,0.0,0.0,0.0,0.0,0.0,0.0,0.0,0.0,0.0,0.0,0.0,0.0,0.0,0.0,0.0,0.0,0.0,0.0,0.0,0.0,0.0,0.0,0.0,0.0,0.0,-0.4143,-0.4964,-0.436,-0.392,-0.3681,-0.3484,-0.3214,-0.2674,0.0,0.0,0.0,0.0,0.0,0.0,0.0,0.0,0.0,0.0,0.0,0.0,0.0,0.0,0.0,0.0,0.0,0.0,0.0,0.0,0.0,0.0,0.0,0.0,0.0,0.0,0.0,0.0,0.0,0.0,0.0,0.0,0.0,0.0,0.0,0.0,0.0,0.0,0.0,0.0,0.0,0.0,0.0,0.0,0.0,0.0,0.0,0.0,0.0,0.0,0.0,0.0,0.0,0.0,0.0,0.0,0.0,0.0,0.0,0.0,0.0,0.0,0.0,0.0,0.0,0.0,0.0,0.0,0.0,0.0,0.0,0.0,0.0,0.0,0.0,0.0,0.0,0.0,0.0,0.0,0.0,0.0,0.0,0.0,0.0,0.0,0.0,0.0,0.0,0.0,0.0,0.0,0.0,0.0,0.0,0.0,0.0,0.0,0.0,0.0,0.0,0.0,0.0,-0.3558,-0.3913,-0.4068,-0.3687,-0.3308,-0.2623,-0.2454,-0.2437,-0.2512,-0.3083,0.0,0.0,0.0,0.0,0.0,0.0,0.0,0.0,0.0,0.0,0.0,0.0,0.0,0.0,0.0,0.0,0.0,0.0,0.0,0.0,0.0,0.0,0.0,0.0,0.0,0.0,0.0,0.0,0.0,0.0,0.0,0.0,0.0,0.0,0.0,0.0,0.0,0.0,0.0,0.0,0.0,0.0,0.0,0.0,0.0,0.0,0.0,0.0,0.0,0.0,0.0,0.0,0.0,0.0,0.0,0.0,0.0,0.0,0.0,0.0,0.0,0.0,0.0,0.0,0.0,0.0,0.0,0.0,0.0,0.0,0.0,0.0,0.0,0.0,0.0,0.0,0.0,0.0,0.0,0.0,0.0,0.0,0.0,0.0,0.0,0.0,0.0,0.0,0.0,0.0,0.0,0.0,0.0,0.0,0.0,0.0,0.0,0.0,0.0,0.0,0.0,0.0,-0.3399,-0.3354,-0.2967,-0.3073,-0.2781,-0.1862,-0.1722,-0.1947,-0.2512,-0.2723,0.0,0.0,0.0,0.0,0.0,0.0,0.0,0.0,0.0,0.0,0.0,0.0,0.0,0.0,0.0,0.0,0.0,0.0,0.0,0.0,0.0,0.0,0.0,0.0,0.0,0.0,0.0,0.0,0.0,0.0,0.0,0.0,0.0,0.0,0.0,0.0,0.0,0.0,0.0,0.0,0.0,0.0,0.0,0.0,0.0,0.0,0.0,0.0,0.0,0.0,0.0,0.0,0.0,0.0,0.0,0.0,0.0,0.0,0.0,0.0,0.0,0.0,0.0,0.0,0.0,0.0,0.0,0.0,0.0,0.0,0.0,0.0,0.0,0.0,0.0,0.0,0.0,0.0,0.0,0.0,0.0,0.0,0.0,0.0,0.0,0.0,0.0,0.0,0.0,0.0,0.0,0.0,0.0,0.0,0.0,0.0,0.0,0.0,0.0,0.0,0.0,0.0,-0.2029,-0.1803,-0.181,-0.1868,-0.1894,-0.1861,-0.1722,-0.1846,-0.2142,-0.2179,0.0,0.0,0.0,0.0,0.0,0.0,0.0,0.0,0.0,0.0,0.0,0.0,0.0,0.0,0.0,0.0,0.0,0.0,0.0,0.0,0.0,0.0,0.0,0.0,0.0,0.0,0.0,0.0,0.0,0.0,0.0,0.0,0.0,0.0,0.0,0.0,0.0,0.0,0.0,0.0,0.0,0.0,0.0,0.0,0.0,0.0,0.0,0.0,0.0,0.0,0.0,0.0,0.0,0.0,0.0,0.0,0.0,0.0,0.0,0.0,0.0,0.0,0.0,0.0,0.0,0.0,0.0,0.0,0.0,0.0,0.0,0.0,0.0,0.0,0.0,0.0,0.0,0.0,0.0,0.0,0.0,0.0,0.0,0.0,0.0,0.0,0.0,0.0,0.0,0.0,0.0,0.0,0.0,0.0,0.0,0.0,0.0,0.0,0.0,0.0,0.0,0.0,-0.1999,-0.1768,0.0,-0.1759,-0.1782,-0.1752,-0.1723,-0.1847,-0.2049,0.0,0.0,0.0,0.0,0.0,0.0,0.0,0.0,0.0,0.0,0.0,0.0,0.0,0.0,0.0,0.0,0.0,0.0,0.0,0.0,0.0,0.0,0.0,0.0,0.0,0.0,0.0,0.0,0.0,0.0,0.0,0.0,0.0,0.0,0.0,0.0,0.0,0.0,0.0,0.0,0.0,0.0,0.0,0.0,0.0,0.0,0.0,0.0,0.0,0.0,0.0,0.0,0.0,0.0,0.0,0.0,0.0,0.0,0.0,0.0,0.0,0.0,0.0,0.0,0.0,0.0,0.0,0.0,0.0,0.0,0.0,0.0,0.0,0.0,0.0,0.0,0.0,0.0,0.0,0.0,0.0,0.0,0.0,0.0,0.0,0.0,0.0,0.0,0.0,0.0,0.0,0.0,0.0,0.0,0.0,0.0,0.0,0.0,0.0,0.0,0.0,0.0,-0.2068,-0.1888,-0.1763,0.0,-0.1759,-0.1779,-0.1738,-0.1718,-0.174,-0.1846,0.0,0.0,0.0,0.0,0.0,0.0,0.0,0.0,0.0,0.0,0.0,0.0,0.0,0.0,0.0,0.0,0.0,0.0,0.0,0.0,0.0,0.0,0.0,0.0,0.0,0.0,0.0,0.0,0.0,0.0,0.0,0.0,0.0,0.0,0.0,0.0,0.0,0.0,0.0,0.0,0.0,0.0,0.0,0.0,0.0,0.0,0.0,0.0,0.0,0.0,0.0,0.0,0.0,0.0,0.0,0.0,0.0,0.0,0.0,0.0,0.0,0.0,0.0,0.0,0.0,0.0,0.0,0.0,0.0,0.0,0.0,0.0,0.0,0.0,0.0,0.0,0.0,0.0,0.0,0.0,0.0,0.0,0.0,0.0,0.0,0.0,0.0,0.0,0.0,0.0,0.0,0.0,0.0,0.0,0.0,0.0,0.0,0.0,0.0,0.0,0.0,0.0,-0.1851,-0.1713,-0.1704,-0.1704,-0.1759,-0.177,-0.171,-0.1704,-0.1627,0.0,0.0,0.0,0.0,0.0,0.0,0.0,0.0,0.0,0.0,0.0,0.0,0.0,0.0,0.0,0.0,0.0,0.0,0.0,0.0,0.0,0.0,0.0,0.0,0.0,0.0,0.0,0.0,0.0,0.0,0.0,0.0,0.0,0.0,0.0,0.0,0.0,0.0,0.0,0.0,0.0,0.0,0.0,0.0,0.0,0.0,0.0,0.0,0.0,0.0,0.0,0.0,0.0,0.0,0.0,0.0,0.0,0.0,0.0,0.0,0.0,0.0,0.0,0.0,0.0,0.0,0.0,0.0,0.0,0.0,0.0,0.0,0.0,0.0,0.0,0.0,0.0,0.0,0.0,0.0,0.0,0.0,0.0,0.0,0.0,0.0,0.0,0.0,0.0,0.0,0.0,0.0,0.0,0.0,0.0,0.0,0.0,0.0,0.0,0.0,0.0,0.0,0.0,-0.1385,-0.1611,-0.1704,-0.1704,-0.1759,-0.177,-0.171,-0.1705,-0.1629,-0.1175,0.0,0.0,0.0,0.0,0.0,0.0,0.0,0.0,0.0,0.0,0.0,0.0,0.0,0.0,0.0,0.0,0.0,0.0,0.0,0.0,0.0,0.0,0.0,0.0,0.0,0.0,0.0,0.0,0.0,0.0,0.0,0.0,0.0,0.0,0.0,0.0,0.0,0.0,0.0,0.0,0.0,0.0,0.0,0.0,0.0,0.0,0.0,0.0,0.0,0.0,0.0,0.0,0.0,0.0,0.0,0.0,0.0,0.0,0.0,0.0,0.0,0.0,0.0,0.0,0.0,0.0,0.0,0.0,0.0,0.0,0.0,0.0,0.0,0.0,0.0,0.0,0.0,0.0,0.0,0.0,0.0,0.0,0.0,0.0,0.0,0.0,0.0,0.0,0.0,0.0,0.0,0.0,0.0,0.0,0.0,0.0,0.0,0.0,0.0,0.0,0.0,0.0,-0.1095,-0.1395,-0.1692,-0.1704,-0.1748,-0.1647,-0.1389,-0.16,-0.1538,-0.0925,0.0,0.0,0.0,0.0,0.0,0.0,0.0,0.0,0.0,0.0,0.0,0.0,0.0,0.0,0.0,0.0,0.0,0.0,0.0,0.0,0.0,0.0,0.0,0.0,0.0,0.0,0.0,0.0,0.0,0.0,0.0,0.0,0.0,0.0,0.0,0.0,0.0,0.0,0.0,0.0,0.0,0.0,0.0,0.0,0.0,0.0,0.0,0.0,0.0,0.0,0.0,0.0,0.0,0.0,0.0,0.0,0.0,0.0,0.0,0.0,0.0,0.0,0.0,0.0,0.0,0.0,0.0,0.0,0.0,0.0,0.0,0.0,0.0,0.0,0.0,0.0,0.0,0.0,0.0,0.0,0.0,0.0,0.0,0.0,0.0,0.0,0.0,0.0,0.0,0.0,0.0,0.0,0.0,0.0,0.0,0.0,0.0,0.0,0.0,0.0,0.0,0.0,-0.0807,-0.1274,-0.1673,-0.17,-0.1731,-0.152,-0.1066,-0.1386,-0.1345,-0.0767,0.0,0.0,0.0,0.0,0.0,0.0,0.0,0.0,0.0,0.0,0.0,0.0,0.0,0.0,0.0,0.0,0.0,0.0,0.0,0.0,0.0,0.0,0.0,0.0,0.0,0.0,0.0,0.0,0.0,0.0,0.0,0.0,0.0,0.0,0.0,0.0,0.0,0.0,0.0,0.0,0.0,0.0,0.0,0.0,0.0,0.0,0.0,0.0,0.0,0.0,0.0,0.0,0.0,0.0,0.0,0.0,0.0,0.0,0.0,0.0,-0.3013,0.0,0.0,0.0,0.0,0.0,0.0,0.0,0.0,0.0,0.0,0.0,0.0,0.0,0.0,0.0,0.0,0.0,0.0,0.0,0.0,0.0,0.0,0.0,0.0,0.0,0.0,0.0,0.0,0.0,0.0,0.0,0.0,0.0,0.0,0.0,0.0,0.0,0.0,0.0,0.0,0.0,-0.0359,-0.1176,-0.1665,-0.1671,-0.172,-0.1731,-0.1572,-0.0847,-0.031,-0.0192,-0.0284,0.0,0.0,0.0,0.0,0.0,0.0,0.0,0.0,0.0,0.0,0.0,0.0,0.0,0.0,0.0,0.0,0.0,0.0,0.0,0.0,0.0,0.0,0.0,0.0,0.0,0.0,0.0,0.0,0.0,0.0,0.0,0.0,0.0,0.0,0.0,0.0,0.0,0.0,0.0,0.0,0.0,0.0,0.0,0.0,0.0,0.0,0.0,0.0,0.0,0.0,0.0,0.0,0.0,0.0,0.0,0.0,0.0,0.0,0.0,0.0,-0.2057,0.0,0.0,0.0,0.0,0.0,0.0,0.0,0.0,0.0,0.0,0.0,0.0,0.0,0.0,0.0,0.0,0.0,0.0,0.0,0.0,0.0,0.0,0.0,0.0,0.0,0.0,0.0,0.0,0.0,0.0,0.0,0.0,0.0,0.0,0.0,0.0,0.0,0.0,0.0,0.0,-0.0269,-0.1069,-0.1543,-0.1245,-0.1479,-0.1484,-0.0936,-0.0314,-0.0,-0.0,-0.0,0.0,0.0,0.0,0.0,0.0,0.0,0.0,0.0,0.0,0.0,0.0,0.0,0.0,0.0,0.0,0.0,0.0,0.0,0.0,0.0,0.0,0.0,0.0,0.0,0.0,0.0,0.0,0.0,0.0,0.0,0.0,0.0,0.0,0.0,0.0,0.0,0.0,0.0,0.0,0.0,0.0,0.0,0.0,0.0,0.0,0.0,0.0,0.0,0.0,0.0,0.0,0.0,0.0,-0.6274,-0.5756,-0.5748,-0.4658,-0.3966,-0.365,-0.2486,-0.2295,-0.2666,0.0,0.0,0.0,0.0,0.0,0.0,0.0,0.0,0.0,0.0,0.0,0.0,0.0,0.0,0.0,0.0,0.0,0.0,0.0,0.0,0.0,0.0,0.0,0.0,0.0,-0.0393,-0.0702,0.0,0.0,0.0,0.0,0.0,0.0,0.0,0.0,0.0,0.0,0.0,0.0,-0.0272,-0.1064,-0.1423,-0.0826,-0.114,-0.0934,-0.0103,-0.0,-0.0,-0.0,-0.0,-0.096,0.0,0.0,0.0,0.0,0.0,0.0,0.0,0.0,0.0,0.0,0.0,0.0,0.0,0.0,0.0,0.0,0.0,0.0,0.0,0.0,0.0,0.0,0.0,0.0,0.0,0.0,0.0,0.0,0.0,0.0,0.0,0.0,-1.3078,-1.2345,0.0,0.0,0.0,0.0,0.0,0.0,0.0,0.0,0.0,0.0,0.0,0.0,0.0,-0.9208,-0.8089,-0.8477,-0.8258,-0.7346,-0.7504,-0.7625,-0.7625,-0.6538,-0.6054,-0.5867,-0.3872,0.0,-0.1201,-0.1652,0.0,0.0,0.0,0.0,0.0,0.0,0.0,0.0,0.0,0.0,0.0,0.0,0.0,0.0,0.0,0.0,0.0,0.0,0.0,0.0,0.0,0.0,-0.1439,-0.146,-0.1457,-0.1556,0.0,-0.0588,0.0092,-0.0,-0.009,0.0,0.0,0.0,0.0,0.0,0.0,0.0,-0.0753,-0.1279,-0.1416,-0.0811,-0.0411,-0.0103,-0.0,-0.0,-0.0,-0.0,-0.0,-0.0987,-0.315,-0.4831,0.0,0.0,0.0,0.0,0.0,0.0,0.0,0.0,0.0,0.0,0.0,0.0,0.0,0.0,0.0,0.0,0.0,0.0,0.0,0.0,0.0,0.0,0.0,0.0,0.0,0.0,0.0,0.0,0.0,-1.2058,-1.2197,-1.1992,-1.1902,-1.1432,0.0,0.0,0.0,0.0,0.0,0.0,0.0,0.0,0.0,-1.1465,-1.1609,-1.1605,-1.1451,-1.1179,-1.0514,-0.9468,-0.9045,-0.8627,-0.7939,-0.6936,-0.6437,-0.6234,-0.4126,-0.2782,-0.2134,-0.1899,-0.139,-0.0721,0.0,0.0,0.0,0.0,-0.1308,-0.2019,-0.1832,-0.1857,0.0,0.0,0.0,0.0,0.0,0.0,0.0,0.0,0.0,0.0,0.0,0.0,0.0,-0.1565,-0.1683,-0.1689,-0.1701,-0.1333,-0.0884,0.0,-0.0373,-0.009,0.0085,0.0,0.0,0.0,0.0,-0.0654,-0.0856,-0.1283,-0.1415,-0.0808,-0.0305,-0.0,-0.0,-0.0,-0.0,-0.0,-0.0,-0.0401,-0.1378,-0.4578,-0.587,0.0,0.0,0.0,0.0,0.0,0.0,0.0,0.0,0.0,0.0,0.0,0.0,0.0,0.0,0.0,0.0,0.0,0.0,0.0,0.0,0.0,0.0,0.0,0.0,0.0,0.0,0.0,0.0,-1.2054,-1.2247,-1.1866,-1.2421,-1.2248,0.0,0.0,0.0,0.0,0.0,0.0,-1.1942,-1.2037,-1.2457,-1.3044,-1.3214,-1.3527,-1.3996,-1.328,-1.2221,-1.0934,-1.0141,-0.9149,-0.8049,-0.7036,-0.6526,-0.6422,-0.4468,-0.365,-0.3542,-0.2158,-0.1637,-0.1616,-0.0369,0.0091,-0.009,-0.1271,-0.2006,-0.2478,-0.2485,-0.2615,-0.2704,-0.1911,0.0,-0.1121,-0.0458,0.0,0.0,0.0,0.0,-0.0,-0.067,-0.0881,-0.0996,-0.1538,-0.1667,-0.1684,-0.1692,-0.1561,-0.1426,0.0,-0.0776,-0.0465,-0.0352,0.0,0.0,0.0,0.0,-0.0861,-0.1063,-0.139,-0.1417,-0.1017,-0.0405,-0.0,-0.0,-0.0,-0.0,-0.0,-0.0,-0.0,-0.0,-0.3635,-0.5848,-0.6393,0.0,0.0,0.0,0.0,0.0,0.0,0.0,0.0,0.0,0.0,0.0,0.0,0.0,0.0,0.0,0.0,0.0,0.0,0.0,0.0,0.0,0.0,0.0,0.0,0.0,0.0,0.0,0.0,0.0,-1.2803,-1.3691,0.0,0.0,0.0,0.0,-1.137,-1.1813,-1.2394,-1.3085,-1.3126,-1.3454,-1.4142,-1.443,-1.4173,-1.316,-1.3398,-1.2382,-1.0215,-1.0219,-0.9596,-0.8459,-0.7404,-0.6876,-0.6766,-0.5509,-0.4955,-0.4846,-0.2535,-0.1282,-0.0667,-0.0571,-0.065,-0.0721,-0.0656,-0.1331,-0.22,-0.2089,-0.2016,-0.2104,-0.2124,-0.158,-0.0815,-0.0658,-0.0093,0.0,0.0,-0.057,-0.0672,-0.1397,-0.1513,-0.1515,-0.1618,-0.162,-0.1629,-0.1658,-0.1314,-0.1094,0.0,-0.1632,-0.1392,-0.0955,0.0,-0.0855,-0.0854,-0.0761,-0.087,-0.1504,-0.1615,-0.1628,-0.1554,-0.0613,-0.0,-0.0,-0.0,-0.0,-0.0,-0.0,-0.0,-0.0,-0.2211,-0.429,-0.6399,-0.5582,0.0,0.0,0.0,0.0,0.0,0.0,0.0,0.0,0.0,0.0,0.0,0.0,0.0,0.0,0.0,0.0,0.0,0.0,0.0,0.0,0.0,0.0,0.0,0.0,0.0,0.0,0.0,0.0,-1.3601,-1.4255,0.0,-1.259,-1.2457,-1.2441,-1.2604,-1.3164,-1.3778,-1.4412,-1.4442,-1.4526,-1.4811,-1.4914,-1.4761,-1.4346,-1.4439,-1.376,-1.2314,-1.1587,-1.0655,-0.9518,-0.8476,-0.7954,-0.7842,-0.6744,-0.6307,-0.6088,-0.4541,-0.3233,-0.2174,-0.1484,-0.1276,-0.1263,-0.1281,-0.1584,-0.2084,-0.2012,-0.2121,-0.2216,-0.2089,-0.1766,-0.1264,-0.1282,-0.1079,-0.0973,-0.1184,-0.1287,-0.1292,-0.1511,-0.1617,-0.1617,-0.1617,-0.1617,-0.162,-0.163,-0.1515,-0.1406,-0.1628,-0.1407,-0.1181,-0.1246,-0.1363,-0.1375,-0.134,-0.1267,-0.1194,-0.1109,-0.1415,-0.1621,-0.1632,-0.0615,-0.0,-0.0,-0.0,-0.0,-0.0,-0.0,-0.1212,-0.4041,-0.353,-0.4219,-0.6404,-0.6088,-0.556,0.0,0.0,0.0,0.0,0.0,0.0,0.0,0.0,0.0,0.0,0.0,0.0,0.0,0.0,0.0,0.0,0.0,0.0,0.0,0.0,0.0,0.0,0.0,0.0,0.0,0.0,-1.5267,-1.4006,-1.485,-1.4933,-1.34,-1.3413,-1.3552,-1.3725,-1.4232,-1.4727,-1.5089,-1.5107,-1.5107,-1.5107,-1.5191,-1.524,-1.524,-1.5324,-1.485,-1.3696,-1.2955,-1.1796,-1.0322,-0.9583,-0.9055,-0.8635,-0.7833,-0.749,-0.7372,-0.6155,-0.5131,-0.4262,-0.3131,-0.2723,-0.2622,-0.2321,-0.2221,-0.2323,-0.2021,-0.202,-0.212,-0.192,-0.1718,-0.1617,-0.1617,-0.1617,-0.1617,-0.1617,-0.1617,-0.1617,-0.1617,-0.1617,-0.1617,-0.1617,-0.1617,-0.1617,-0.1617,-0.1617,-0.1617,-0.1617,-0.13,-0.1185,-0.1463,-0.159,-0.1596,-0.1535,-0.138,-0.121,-0.0801,-0.0911,-0.1022,-0.1029,-0.0414,-0.0,-0.0,-0.0304,-0.0303,-0.0,-0.1397,-0.3393,-0.6284,-0.4491,-0.4157,-0.5745,-0.593,-0.5833,-0.5462,0.0,0.0,0.0,0.0,0.0,0.0,0.0,0.0,0.0,0.0,0.0,0.0,0.0,0.0,0.0,0.0,0.0,0.0,0.0,0.0,0.0,0.0,0.0,-1.3736,-1.5043,-1.557,-1.4071,-1.5504,-1.5975,-1.4291,-1.4489,-1.4733,-1.4838,-1.498,-1.5125,-1.5131,-1.5131,-1.5131,-1.5131,-1.5378,-1.5511,-1.5511,-1.5771,-1.5363,-1.4288,-1.418,-1.2975,-1.0789,-1.0781,-1.0021,-0.893,-0.8781,-0.8716,-0.8585,-0.7342,-0.6716,-0.66,-0.5264,-0.4824,-0.4624,-0.3624,-0.3224,-0.3024,-0.2019,-0.1617,-0.1617,-0.1617,-0.1617,-0.1617,-0.1617,-0.1617,-0.1617,-0.1617,-0.1617,-0.1617,-0.1617,-0.1617,-0.1617,-0.1617,-0.1617,-0.1617,-0.1617,-0.1617,-0.1617,-0.1618,-0.1618,-0.1617,-0.1618,-0.1618,-0.1598,-0.154,-0.1087,0.0,-0.0789,-0.0305,-0.0,-0.0,-0.0,-0.0,-0.0,-0.0789,-0.0873,-0.0101,-0.4009,-0.6354,-0.6279,-0.4783,-0.4203,-0.4771,-0.4953,-0.5377,-0.5871,0.0,0.0,0.0,0.0,0.0,0.0,0.0,0.0,0.0,0.0,0.0,0.0,0.0,0.0,0.0,0.0,0.0,0.0,0.0,0.0,0.0,0.0,-1.6003,-1.5405,-1.6873,-1.792,-1.7455,-1.7796,-1.7918,-1.7457,-1.6484,-1.6273,-1.7069,-1.6055,-1.578,-1.6593,-1.5983,-1.5674,-1.5674,-1.5741,-1.5783,-1.5783,-1.6042,-1.6066,-1.5734,-1.4855,-1.4198,-1.3412,-1.1608,-1.0566,-1.0127,-0.9216,-0.8876,-0.8852,-0.8226,-0.7998,-0.7764,-0.5595,-0.4824,-0.4724,-0.4423,-0.3825,-0.3123,-0.2822,-0.222,-0.1617,-0.1617,-0.1617,-0.1617,-0.1617,-0.1617,-0.1617,-0.1617,-0.1617,-0.1617,-0.1617,-0.1617,-0.1617,-0.1617,-0.1617,-0.1617,-0.1617,-0.1617,-0.1624,-0.1645,-0.1632,-0.1624,-0.1646,-0.165,-0.1651,-0.1654,-0.1462,0.0,-0.0313,-0.0105,-0.0209,-0.0908,-0.0912,-0.0705,-0.0098,-0.0195,-0.0492,-0.0908,-0.441,-0.5712,-0.4135,-0.5096,-0.5763,-0.5948,-0.5691,-0.5663,0.0,0.0,0.0,0.0,0.0,0.0,0.0,0.0,0.0,0.0,0.0,0.0,0.0,0.0,0.0,0.0,0.0,0.0,0.0,0.0,0.0,0.0,-1.7306,-1.7937,-1.8103,-1.8716,-1.9105,-1.9248,-1.9062,-1.8887,-1.8887,-1.7908,-1.7545,-1.8128,-1.6899,-1.6453,-1.714,-1.6418,-1.5891,-1.5891,-1.5891,-1.594,-1.6054,-1.6211,-1.635,-1.6459,-1.5788,-1.5227,-1.4771,-1.3174,-1.1851,0.0,-1.0136,-0.9436,-0.892,-0.8676,-0.854,0.0,0.0,0.0,0.0,0.0,-0.4526,-0.3224,-0.3224,-0.2521,-0.1617,-0.1617,-0.1617,-0.1617,-0.1617,-0.1617,-0.1617,-0.1617,-0.1617,-0.1617,-0.1617,-0.1617,-0.1617,-0.1617,-0.1617,-0.1617,-0.1617,-0.1617,-0.1622,-0.164,-0.1639,0.0,-0.1675,-0.167,-0.1663,-0.1667,-0.1585,-0.1171,-0.0317,-0.0106,-0.0211,-0.0722,-0.1128,-0.1114,-0.0595,-0.1075,0.0,0.0,0.0,-0.4536,-0.3839,-0.5121,0.0,0.0,0.0,-0.5686,-0.6137,0.0,0.0,0.0,-0.5911,-0.6056,0.0,0.0,0.0,0.0,0.0,0.0,0.0,0.0,0.0,0.0,0.0,0.0,0.0,0.0,0.0,0.0,-1.9268,-2.0099,-2.1147,-2.0403,-1.9741,-1.9955,-1.9583,-1.937,-1.9333,-1.8875,-1.8632,-1.8632,-1.7891,-1.7358,-1.7463,0.0,0.0,0.0,0.0,-1.6168,-1.6326,-1.6374,-1.6513,-1.6748,-1.6748,-1.6168,-1.5247,-1.5074,-1.3698,-1.1513,-1.1264,-1.05,-0.9251,-0.8988,-0.8718,-0.8431,-0.815,-0.8038,-0.7839,-0.6936,-0.5331,-0.3525,-0.3525,0.0,0.0,-0.1818,-0.1818,-0.1717,-0.1617,-0.1617,-0.1617,-0.1617,-0.1617,-0.1617,-0.1617,-0.1617,-0.1617,-0.1617,-0.1617,-0.1617,-0.1617,-0.162,-0.1623,-0.1626,-0.1649,-0.1677,-0.1709,-0.1691,-0.1664,-0.1641,-0.1683,-0.1494,-0.0735,-0.0212,-0.0,-0.0,0.0,0.0,-0.1549,-0.2661,-0.4182,-0.6274,-0.4302,-0.3542,-0.4793,-0.5077,-0.5265,-0.5265,-0.5265,-0.5644,-0.6437,-0.6437,-0.6437,-0.6431,-0.6222,-0.6222,0.0,0.0,0.0,0.0,0.0,0.0,0.0,0.0,0.0,0.0,0.0,0.0,0.0,0.0,0.0,-1.9272,-1.9865,-2.0651,-2.1932,-2.1771,-2.1274,-2.0774,-2.0822,-2.082,-2.0538,-1.9842,-1.9672,-2.0403,-1.9042,-1.8415,-1.9153,-1.8415,-1.7695,-1.7289,-1.7302,-1.711,-1.6616,-1.6833,-1.6966,-1.7014,0.0,0.0,-1.6653,-1.5322,-1.4446,-1.384,-1.2664,-1.2019,-1.1642,-1.0597,-0.9391,-0.8292,-0.8109,-0.8038,-0.7939,-0.7739,-0.6836,-0.5734,-0.5734,-0.5129,-0.4024,-0.3123,-0.2923,-0.2723,-0.1818,-0.1617,0.0,-0.1617,-0.1617,-0.1617,-0.1617,-0.1617,-0.1617,-0.1617,-0.1617,-0.1617,-0.1617,-0.1636,-0.166,-0.1683,-0.1692,-0.1713,-0.1768,-0.1752,-0.1739,-0.1757,-0.177,-0.1554,-0.0885,-0.0333,-0.0,-0.0,-0.1982,-0.3288,-0.3285,-0.3538,-0.4439,-0.6268,-0.5922,-0.5785,-0.6072,-0.6168,-0.6171,-0.6171,-0.6171,-0.6192,-0.6437,-0.6437,-0.6437,-0.6434,-0.6391,-0.6369,0.0,0.0,0.0,0.0,0.0,0.0,0.0,0.0,0.0,0.0,0.0,-1.7703,0.0,0.0,-1.9965,-2.1396,-2.1724,-2.2173,-2.3106,-2.2972,-2.2352,-2.1505,-2.16,-2.1632,-2.1457,-2.1118,-2.1012,-2.1441,-2.0264,-1.9733,-2.0158,-1.8837,-1.797,-1.7692,-1.7022,-1.6652,-1.6489,-1.6622,-1.6821,-1.7092,-1.7092,-1.7159,-1.728,-1.643,-1.5665,-1.4848,-1.4049,-1.3332,-1.2435,-1.1065,-0.9682,-0.8476,-0.8319,-0.817,-0.8038,-0.8038,-0.7338,-0.6437,-0.6437,-0.5729,-0.4724,-0.4225,-0.4024,-0.3924,-0.3324,-0.3224,-0.3224,-0.3224,-0.3224,-0.3124,-0.2521,-0.2422,-0.222,-0.1717,-0.1617,-0.1621,-0.1637,-0.1652,-0.1671,-0.1699,-0.1716,-0.1737,-0.1767,-0.1772,-0.1778,-0.1793,-0.1795,-0.1683,-0.1346,-0.2675,-0.3639,-0.3574,-0.4794,-0.5039,-0.3838,-0.4688,-0.5548,-0.6356,-0.6353,-0.6445,-0.6437,-0.6437,-0.6437,-0.6437,-0.6437,-0.6437,-0.6437,-0.6437,-0.6437,-0.6437,-0.6437,-0.6437,0.0,0.0,0.0,0.0,0.0,0.0,0.0,-1.6095,-1.6546,-1.7483,-1.8339,-1.9164,-1.9906,-2.0811,-2.1907,-2.3459,-2.3582,-2.3729,-2.4421,-2.4014,-2.3335,-2.2533,-2.2277,-2.2029,-2.1965,-2.1957,-2.1957,-2.1957,-2.1295,-2.0962,-2.0962,-1.9412,-1.8421,-1.8313,-1.7333,-1.6788,-1.6576,-1.6576,-1.6802,-1.7014,-1.7014,-1.7153,-1.7406,-1.7298,-1.6715,-1.566,-1.5421,-1.4479,-1.2971,-1.1769,-1.0551,-0.9333,-0.8959,-0.8642,-0.8421,-0.8192,-0.7478,-0.677,-0.6745,-0.6132,-0.5427,-0.5225,-0.5127,-0.5024,-0.4824,-0.4824,-0.4824,-0.4824,-0.4824,-0.4624,-0.3723,-0.3524,-0.3324,-0.2422,-0.222,-0.2232,-0.2377,-0.2393,-0.2412,-0.2346,-0.2495,-0.2525,-0.2525,-0.2554,-0.2465,-0.213,-0.213,-0.2129,-0.2241,-0.4664,-0.6436,-0.6512,-0.6918,-0.6383,-0.4339,-0.5695,-0.6575,-0.6445,-0.6437,-0.6437,-0.6437,-0.6437,-0.6437,-0.6437,-0.6437,-0.6437,-0.6437,-0.6437,-0.6437,-0.6437,-0.6437,-0.6437,-1.623,-1.6109,-1.6244,-1.6679,-1.6792,-1.7251,0.0,-1.8982,-1.8991,-1.9935,-2.0747,-2.1341,-2.1432,-2.2299,-2.3385,-2.4446,-2.4437,-2.4538,-2.5445,-2.5058,-2.4471,-2.3996,-2.3083,-2.2307,-2.1989,-2.1957,-2.1957,-2.1957,-2.1957,-2.185,-2.185,-2.1587,-2.114,-2.0273,-2.0128,-1.9358,-1.774,-1.774,-1.7334,-1.6742,-1.6742,-1.6881,-1.7117,-1.6634,-1.6546,-1.6839,-1.6583,-1.5515,-1.398,-1.3917,-1.3016,-1.1654,-1.0523,-1.0016,-0.986,-0.8699,-0.8143,-0.8021,-0.7885,-0.7739,-0.7434,-0.6534,-0.6234,-0.6032,-0.5125,-0.4824,-0.4824,-0.4824,-0.4824,-0.4724,-0.4624,-0.4624,-0.4624,-0.4423,-0.4423,-0.4448,-0.4635,-0.4713,-0.4792,-0.4878,-0.4958,-0.5014,-0.5014,-0.5021,-0.4583,-0.358,-0.3357,-0.3579,-0.3907,-0.368,-0.3568,-0.3911,-0.5924,-0.6958,-0.6422,-0.6492,-0.6567,-0.6445,-0.6437,-0.6437,-0.6437,-0.6437,-0.6437,-0.6437,-0.6437,-0.6437,-0.6437,-0.6437,-0.6437,-0.6437,-0.6437,-0.6437,-1.76,-1.7167,-1.6915,-1.7624,-1.7859,-1.8145,-1.9216,-1.947,-1.9743,-2.0695,-2.1704,-2.2354,-2.2354,-2.3181,-2.4154,0.0,-2.4981,-2.5094,-2.5599,-2.5063,-2.4399,-2.3931,-2.2963,-2.2403,-2.2779,-2.267,-2.2577,-2.2577,-2.2577,-2.2577,-2.2577,-2.1931,-2.1467,-2.1339,-2.0039,-1.9047,-1.8255,-1.7704,-1.7258,-1.693,-1.693,-1.7062,-1.731,-1.708,-1.702,-1.708,-1.6815,-1.5806,-1.4467,-1.4326,-1.3449,-1.2276,-1.1657,-1.1345,-1.0998,-0.9072,-0.8272,-0.8248,-0.8092,-0.8038,-0.7939,-0.7437,-0.7338,-0.7238,-0.6833,-0.6631,-0.6631,-0.6631,-0.6631,-0.6531,-0.5929,-0.5729,-0.5646,-0.5097,-0.5008,-0.5047,-0.5195,-0.5258,-0.5204,-0.5292,-0.5337,-0.5361,-0.5361,-0.5361,-0.5475,-0.5588,-0.5029,-0.4916,-0.5475,-0.525,-0.5365,-0.5929,-0.6717,-0.7103,-0.6929,-0.6864,-0.6749,-0.6554,-0.6543,-0.651,-0.6439,-0.6437,-0.6437,-0.6437,-0.6437,-0.6437,-0.6437,-0.6437,-0.6437,-0.6437,-0.6437,-0.6437,-1.783,-1.776,-1.7685,-1.8355,-1.8888,-1.9288,-1.9598,-1.997,-2.0416,-2.1163,-2.208,-2.2683,-2.2683,-2.3538,-2.439,-2.5096,-2.539,-2.5633,-2.5766,-2.5156,-2.4578,-2.3966,-2.3176,-2.2896,-2.3434,-2.3064,-2.2807,-2.3006,-2.2919,-2.2911,-2.3014,-2.2294,-2.194,-2.2101,-2.0615,-1.9652,-1.9337,-1.8253,-1.7654,-1.7427,-1.7098,-1.7123,-1.7376,-1.7449,-1.7298,-1.6978,-1.6857,-1.6157,-1.5054,-1.4875,-1.4218,-1.3285,-1.3068,-1.2719,-1.2169,-0.976,-0.8812,-0.8653,-0.8192,-0.8038,-0.8038,-0.8038,-0.8038,-0.8038,-0.8038,-0.8038,-0.8038,-0.8038,-0.8038,-0.7839,-0.7036,-0.6862,-0.681,-0.6182,-0.5994,-0.6044,-0.6127,-0.6165,-0.6197,-0.6301,-0.6345,-0.6364,-0.6364,-0.6364,-0.67,-0.7485,-0.6924,-0.6591,-0.7157,-0.7046,-0.716,-0.773,-0.7385,-0.7108,-0.6994,-0.6986,-0.688,-0.6635,-0.6619,-0.6564,-0.6442,-0.6437,-0.6437,-0.6437,-0.6437,-0.6437,-0.6437,-0.6437,-0.6437,-0.6437,-0.6437,-0.6437,-1.6036,-1.6955,-1.8059,-1.8428,-1.9798,-2.1034,-2.1053,-2.1374,-2.1686,-2.1713,-2.2052,-2.2346,-2.2346,-2.3336,-2.4299,-2.473,-2.5436,-2.5949,-2.5977,-2.5628,-2.5225,-2.484,-2.4266,-2.3847,0.0,-2.2739,-2.2275,-2.2966,-2.2696,-2.2656,-2.2998,-2.3217,-2.3249,-2.3022,-2.2893,-2.2263,-2.1137,-1.9832,-1.8795,-1.8014,-1.7148,-1.6851,-1.7111,-1.7364,-1.7201,-1.6724,-1.6972,-1.6773,-1.6278,-1.6272,-1.6006,-1.5672,-1.46,-1.4013,-1.3446,-1.1032,-1.0026,-0.9552,-0.8389,-0.8038,-0.8038,-0.8038,-0.8038,-0.8038,-0.8038,-0.8038,-0.8038,-0.8038,-0.8038,-0.8038,-0.7942,-0.8049,-0.8265,-0.8166,-0.8166,-0.8206,-0.8351,-0.8384,-0.8428,-0.8578,-0.8726,-0.8826,-0.8826,-0.8826,-0.8826,-0.883,-0.8826,-0.8826,-0.8826,-0.8269,-0.7823,-0.7607,-0.7379,-0.7108,-0.6994,-0.6986,-0.688,-0.6635,-0.6619,-0.6564,-0.6442,-0.6437,-0.6437,-0.6437,-0.6437,-0.6437,-0.6437,-0.6437,-0.6437,-0.6437,-0.6437,-0.6437,-1.7203,-1.8162,-1.9282,-2.0035,-2.0714,-2.1181,-2.1456,-2.164,-2.1658,-2.1374,-2.135,-2.1289,-2.0929,-2.1726,-2.258,-2.3262,-2.4373,-2.5362,-2.5885,-2.5619,-2.5225,-2.4831,-2.4014,0.0,0.0,0.0,0.0,-2.2852,-2.2966,-2.2965,-2.2998,-2.3348,-2.3594,-2.3697,-2.3107,-2.2481,-2.1917,-2.0759,-1.9922,-1.9501,-1.8588,-1.784,-1.7358,-1.7443,-1.7382,-1.7207,-1.6948,-1.6724,-1.6531,-1.6169,-1.597,-1.5873,-1.5276,-1.4943,-1.4476,-1.278,-1.1949,-1.1363,-0.8844,-0.8038,-0.8038,-0.8038,-0.8038,-0.8038,-0.8038,-0.8038,-0.8038,-0.8038,-0.8038,-0.8038,-0.8038,-0.8079,-0.8143,-0.8245,-0.8343,-0.8452,-0.8601,-0.8713,-0.8801,-0.8852,-0.8903,-0.894,-0.894,-0.894,-0.894,-0.894,-0.894,-0.894,-0.894,-0.838,-0.7934,-0.7826,-0.7487,-0.7138,-0.71,-0.7097,-0.7029,-0.6872,-0.6785,-0.6684,-0.6562,-0.648,-0.6437,-0.6437,-0.6437,-0.6437,-0.6437,-0.6437,-0.6437,-0.6437,-0.6437,-0.648,-1.8228,-1.9116,-2.0031,-2.0842,-2.1218,-2.1401,-2.1676,-2.1741,-2.1621,-2.12,-2.0725,-2.0377,-2.003,-2.0485,-2.1092,-2.1807,-2.3017,-2.4135,-2.5076,-2.4866,-2.4637,-2.4785,-2.4099,-2.3646,0.0,0.0,0.0,-2.3143,-2.336,-2.3376,-2.332,-2.3811,-2.4057,-2.4047,-2.3448,-2.2933,-2.272,-2.154,-2.0568,-1.9809,-1.8881,-1.8064,-1.7485,-1.7485,-1.7485,-1.7455,-1.693,-1.67,-1.6658,-1.6115,-1.5891,-1.5873,-1.5704,-1.5421,-1.4981,-1.3679,-1.3007,-1.2339,-0.9509,-0.8531,-0.8528,-0.8137,-0.8038,-0.8038,-0.8038,-0.8038,-0.8038,-0.8038,-0.8038,-0.8038,-0.8038,-0.8079,-0.8147,-0.8248,-0.8377,-0.8509,-0.8608,-0.875,-0.8859,-0.8859,-0.8903,-0.894,-0.894,-0.894,-0.894,-0.894,-0.894,-0.894,-0.894,-0.8491,-0.8156,-0.8045,-0.7601,-0.7268,-0.7154,-0.7154,-0.7105,-0.6991,-0.691,-0.6793,-0.6627,-0.6543,-0.648,-0.6437,-0.6437,-0.6437,-0.6437,-0.6437,-0.6437,-0.6437,-0.648,-0.6543,-1.8966,-1.986,-2.0439,-2.0952,-2.1447,-2.1731,-2.1713,-2.1704,-2.1566,-2.108,-2.0225,-1.9598,-1.9444,-1.9589,-1.9832,-2.0374,-2.1392,-2.2541,-2.3746,-2.361,-2.3673,0.0,0.0,0.0,0.0,0.0,0.0,-2.3762,0.0,-2.3801,-2.3751,-2.4466,-2.4618,-2.4148,-2.4023,-2.3864,-2.3522,-2.2246,-2.0823,-1.8991,-1.8064,-1.7602,-1.7596,-1.7479,-1.7473,-1.7436,-1.6923,-1.6688,-1.664,-1.6109,-1.5891,-1.5891,-1.5873,-1.5559,-1.5005,-1.3953,-1.3236,-1.2533,-1.0485,-0.9706,-0.941,-0.8333,-0.8038,-0.8038,-0.8038,-0.8038,-0.8038,-0.8038,-0.8038,-0.8038,-0.8038,-0.8147,-0.8258,-0.8258,-0.8367,-0.8472,-0.8479,-0.8601,-0.8713,-0.872,-0.8838,-0.894,-0.894,-0.894,-0.894,-0.894,-0.894,-0.894,-0.894,-0.8598,-0.8374,-0.8045,-0.7715,-0.7493,-0.7265,-0.7154,-0.7108,-0.6999,-0.6989,-0.6877,-0.6638,-0.6622,-0.6562,-0.6439,-0.6437,-0.6437,-0.6437,-0.6437,-0.6439,-0.6448,-0.6564,-0.6627,-2.0046,-2.0921,-2.159,-2.153,-2.1658,-2.1649,-2.1337,-2.1273,-2.0897,-1.9434,-1.8858,-1.8288,-1.7172,-1.8122,-1.9254,-2.005,-2.1853,0.0,-2.4783,-2.5121,0.0,-2.5637,-2.5564,-2.5381,-2.5087,-2.5161,0.0,0.0,-2.4358,-2.3972,-2.3888,-2.3893,-2.3789,-2.3673,-2.3673,-2.3506,-2.3149,-2.2828,-2.2085,-2.0938,-2.0026,-1.9229,-1.8532,-1.783,-1.7376,-1.7171,-1.6845,-1.6579,-1.6362,-1.6024,-1.5891,-1.5867,-1.5674,-1.5396,-1.5083,-1.4583,-1.4195,-1.3709,-1.2339,-1.0877,-0.941,-0.8333,-0.8038,-0.8038,-0.8038,-0.8038,-0.8038,-0.8038,-0.8038,-0.8038,-0.8038,-0.8069,-0.8099,-0.8099,-0.8214,-0.8353,-0.8459,-0.8601,-0.8743,-0.8859,-0.8913,-0.894,-0.894,-0.894,-0.894,-0.894,-0.894,-0.894,-0.894,-0.8491,-0.8045,-0.8045,-0.7601,-0.7268,-0.7154,-0.7154,-0.7141,-0.7114,-0.7032,-0.6915,-0.676,-0.6668,-0.6562,-0.6439,-0.6437,-0.6437,-0.6437,-0.6437,-0.6483,-0.6573,-0.6605,-0.6717,-2.0945,-2.1597,-2.2008,-2.1741,-2.1594,-2.1355,-2.1038,-2.0798,-2.0338,-1.904,-1.8377,-1.7696,-1.6695,-1.7414,-1.8401,-1.8958,-2.07,-2.258,-2.4236,-2.4802,-2.5258,-2.5894,-2.5958,-2.5803,-2.5408,-2.5527,-2.5628,0.0,-2.5362,-2.513,-2.4676,-2.4628,-2.4375,-2.3876,-2.3654,-2.3371,-2.3022,-2.2554,-2.2085,-2.1616,-2.0723,-1.9809,-1.8874,-1.8288,-1.7572,-1.7068,0.0,-1.6429,-1.626,-1.6,-1.5891,-1.5861,-1.5602,-1.5342,-1.5077,-1.4817,-1.4539,-1.41,-1.3022,-1.195,-1.0779,-0.9702,-0.9118,-0.8726,-0.8726,-0.8333,-0.8038,-0.8038,-0.8038,-0.8038,-0.8038,-0.8089,-0.814,-0.814,-0.8306,-0.8486,-0.8564,-0.8703,-0.8835,-0.8923,-0.894,-0.894,-0.894,-0.894,-0.894,-0.894,-0.894,-0.894,-0.894,-0.8491,-0.8156,-0.8045,-0.7601,-0.7379,-0.7154,-0.7154,-0.7154,-0.7154,-0.7095,-0.6983,-0.6809,-0.6736,-0.6616,-0.6439,-0.6437,-0.6437,-0.6437,-0.6437,-0.6499,-0.6622,-0.6673,-0.6801,-2.1703,-2.2001,-2.2097,-2.1731,-2.142,-2.0989,-2.081,-2.0346,-1.9809,-1.9081,-1.8228,-1.7567,-1.7088,-1.73,-1.7715,-1.8046,-1.937,-2.1047,-2.303,-2.3673,-2.4463,-2.5821,-2.6004,-2.5913,-2.5564,-2.5839,-2.6041,-2.6041,-2.6435,-2.6409,-2.567,-2.5735,-2.5371,-2.4375,-2.3811,-2.3324,-2.3022,-2.2199,-2.1737,-2.1737,-2.0723,-1.9924,-1.91,-1.8581,-1.7869,-1.7008,0.0,0.0,-1.6211,-1.5982,-1.5891,-1.5867,-1.5638,-1.5366,-1.5083,-1.4853,-1.457,-1.4196,-1.3221,-1.2926,-1.2732,-1.156,-1.0587,-0.9805,-0.9805,-0.9019,-0.824,-0.8261,-0.8168,-0.8075,-0.8092,-0.8197,-0.8299,-0.8299,-0.8492,-0.8686,-0.8706,-0.8828,-0.894,-0.894,-0.894,-0.894,-0.894,-0.894,-0.894,-0.894,-0.894,-0.8937,-0.8826,-0.8598,-0.8377,-0.8045,-0.7715,-0.7493,-0.7265,-0.7154,-0.7154,-0.7154,-0.7154,-0.7056,-0.6836,-0.6825,-0.6711,-0.6467,-0.6478,-0.6478,-0.6461,-0.6478,-0.6548,-0.6671,-0.6777,-0.6891,-2.2292,-2.2296,-2.2264,-2.183,-2.142,-2.0915,-2.0439,-1.9608,-1.8805,-1.8056,-1.7464,-1.7019,-1.6939,-1.7628,-1.8535,-1.937,-2.0457,-2.182,-2.3758,-2.4409,-2.4996,-2.5858,-2.627,-2.6454,-2.638,-2.6435,0.0,0.0,0.0,-2.67,-2.5697,-2.524,-2.4726,-2.4003,-2.3899,-2.3529,-2.3014,-2.2788,-2.278,-2.278,-2.1074,-2.0155,-2.0033,-1.8129,-1.7086,-1.6748,-1.6423,0.0,-1.5958,-1.591,-1.5891,-1.5885,-1.5843,-1.5529,-1.5101,-1.5059,-1.4727,-1.4298,-1.41,-1.4004,-1.3709,-1.1853,-1.1072,-1.0877,-1.0877,-1.0194,-0.9343,-0.9489,-0.8932,-0.8258,-0.8374,-0.8425,-0.8445,-0.8445,-0.8482,-0.8557,-0.8682,-0.8828,-0.894,-0.894,-0.894,-0.894,-0.894,-0.894,-0.894,-0.894,-0.894,-0.8826,-0.8598,-0.8266,-0.8045,-0.8045,-0.7601,-0.7265,-0.7154,-0.7154,-0.7154,-0.7154,-0.7154,-0.7095,-0.6959,-0.6953,-0.6836,-0.6592,-0.6687,-0.6687,-0.6589,-0.669,-0.6801,-0.6921,-0.6942,-0.7016,-2.2591,-2.253,-2.2441,-2.2441,-2.1612,-2.0754,-2.0736,-1.988,-1.8918,-1.82,-1.8178,-1.8054,-1.7346,-1.7937,-1.8644,-1.9084,-1.9915,-2.1126,-2.3054,-2.403,-2.4831,-2.5839,-2.6334,-2.6591,-2.6591,-2.6591,-2.6591,-2.6591,-2.6765,-2.6674,-2.6145,-2.5578,-2.4795,-2.3921,-2.3921,-2.3576,-2.3014,-2.3014,-2.2919,-2.2736,-2.1384,-2.0387,-1.978,-1.8131,-1.7043,-1.6471,-1.6193,0.0,-1.5891,-1.5891,-1.5891,-1.5861,-1.559,-1.533,-1.5071,-1.4793,-1.4521,-1.4298,-1.4298,-1.4298,-1.41,-1.3125,-1.2441,-1.195,-1.195,-1.1344,-1.0558,-0.9953,-0.954,-0.9116,-0.8671,-0.854,-0.8601,-0.8601,-0.8662,-0.874,-0.8815,-0.8886,-0.894,-0.894,-0.894,-0.894,-0.894,-0.894,-0.894,-0.894,-0.894,-0.8826,-0.8484,-0.8156,-0.7934,-0.7826,-0.749,-0.7154,-0.7154,-0.7154,-0.7154,-0.7154,-0.7154,-0.7103,-0.6989,-0.6986,-0.6899,-0.6717,-0.6774,-0.6774,-0.6714,-0.6774,-0.6866,-0.6986,-0.6986,-0.7046,-2.2911,-2.295,-2.2775,-2.296,-2.1883,-2.0945,-2.1123,-2.0178,-1.9233,-1.8861,-1.908,-1.9099,-1.8167,-1.8367,-1.8662,-1.846,-1.9053,-2.0118,-2.1931,-2.322,-2.4444,-2.5564,-2.6233,-2.6591,-2.6591,-2.6591,0.0,-2.6591,0.0,0.0,-2.6591,-2.6136,-2.5357,-2.4359,-2.4248,-2.3913,-2.3239,-2.3239,-2.2951,-2.2482,-2.1589,-2.0523,-1.9222,-1.815,-1.715,-1.6266,-1.6006,0.0,0.0,-1.5891,-1.5891,-1.5843,-1.5372,-1.5155,-1.5046,-1.4564,-1.4346,-1.4298,-1.4298,-1.4298,-1.4298,-1.4298,-1.3709,-1.3022,-1.3022,-1.2464,-1.163,-1.0822,-1.0339,-0.9951,-0.9188,-0.888,-0.876,-0.876,-0.8852,-0.894,-0.894,-0.894,-0.8947,-0.8977,-0.8984,-0.8994,-0.9028,-0.9035,-0.9035,-0.9035,-0.9005,-0.8873,-0.8533,-0.8174,-0.7826,-0.7604,-0.7379,-0.7154,-0.7154,-0.7154,-0.7154,-0.7154,-0.7154,-0.7114,-0.7024,-0.7021,-0.6964,-0.6844,-0.6866,-0.6866,-0.6842,-0.6866,-0.6929,-0.7021,-0.7021,-0.707,-2.3569,-2.3963,-2.3714,-2.2687,-2.2291,-2.1897,-2.1201,-1.9802,-1.8894,-1.9758,-1.934,-1.8945,-1.9597,-1.9341,-1.893,-1.8613,-1.8915,-1.9563,-2.0607,-2.219,-2.3703,-2.4748,-2.5894,-2.6591,-2.6591,-2.6591,-2.6591,-2.6591,0.0,0.0,-2.6591,-2.6582,-2.6245,-2.5578,-2.5569,-2.5026,-2.3809,-2.3809,-2.3397,-2.2482,-2.1597,-2.0427,-1.9222,-1.8163,-1.7156,-1.6266,-1.6006,0.0,0.0,-1.5891,-1.5891,-1.5861,-1.5572,-1.5318,-1.5071,-1.4787,-1.4515,-1.4298,-1.4298,-1.4298,-1.4298,-1.4298,-1.4202,-1.41,-1.41,-1.3431,-1.2655,-1.2983,-1.1676,-1.0213,-1.0434,-0.9662,-0.8916,-0.8916,-0.8927,-0.894,-0.894,-0.894,-0.8977,-0.911,-0.9133,-0.9178,-0.9317,-0.934,-0.934,-0.934,-0.9222,-0.902,-0.8348,-0.8124,-0.7823,-0.7265,-0.7265,-0.7154,-0.7154,-0.7154,-0.7154,-0.7154,-0.7154,-0.7149,-0.7138,-0.7138,-0.7086,-0.6972,-0.707,-0.707,-0.697,-0.707,-0.7127,-0.7138,-0.7138,-0.7143,-2.3502,-2.4016,-2.4135,-2.4069,-2.3112,-2.2306,-2.2595,-2.1071,-1.9671,-1.9998,-2.02,-2.0198,-1.9759,-1.9584,-1.9214,-1.8348,-1.8204,-1.8397,-1.9155,-2.0657,-2.2208,-2.3761,-2.5115,-2.605,0.0,0.0,-2.6591,-2.6591,0.0,0.0,-2.6591,-2.6591,-2.6354,-2.5688,-2.5688,-2.5133,-2.4133,-2.3803,-2.3184,-2.2396,-2.111,-1.9959,-1.8779,-1.7809,-1.6902,-1.6036,-1.5934,0.0,0.0,-1.5891,-1.5795,-1.5626,-1.5366,-1.5107,-1.4841,-1.4564,-1.4395,-1.4298,-1.4298,-1.4298,-1.4298,-1.4298,-1.4298,-1.4298,-1.4298,-1.4116,-1.3825,-1.3458,-1.292,-1.2044,-1.0929,-0.9805,-0.894,-0.894,-0.894,-0.894,-0.894,-0.9008,-0.9086,-0.9144,-0.9225,-0.931,-0.9371,-0.9381,-0.9381,-0.9381,-0.9252,-0.8927,-0.8366,-0.813,-0.7823,-0.7265,-0.7154,-0.7154,-0.7154,-0.7154,-0.7154,-0.7154,-0.7154,-0.7154,-0.7154,-0.7154,-0.7133,-0.7089,-0.7133,-0.7133,-0.7086,-0.7133,-0.7154,-0.7154,-0.7154,-0.7154,-2.3643,-2.4345,-2.4861,-2.505,-2.4115,-2.3083,-2.3316,-2.1947,-2.0522,-2.0434,-2.088,-2.1019,-1.9998,-1.9835,-1.942,-1.8027,-1.7678,-1.7668,-1.7948,-1.9227,-2.0665,-2.2113,0.0,-2.461,0.0,-2.6307,-2.6591,0.0,0.0,0.0,-2.6591,-2.6591,-2.6364,-2.6026,-2.6017,-2.5392,-2.4239,-2.4022,-2.322,-2.1973,-2.1231,-2.0099,-1.8736,-1.7891,-1.7041,-1.6311,-1.5998,0.0,0.0,-1.5807,-1.5662,-1.5475,-1.5209,-1.495,-1.4696,-1.4491,-1.437,-1.4298,-1.4298,-1.4298,-1.4298,-1.4298,-1.4298,-1.4298,-1.4298,-1.4437,-1.4463,-1.4078,-1.3877,-1.3513,-1.1724,-1.0351,-0.9482,-0.9482,-0.9154,-0.894,-0.894,-0.9052,-0.9167,-0.9211,-0.9344,-0.9462,-0.9503,-0.951,-0.951,-0.951,-0.9384,-0.9043,-0.8428,-0.8222,-0.7906,-0.7274,-0.7187,-0.7192,-0.7157,-0.7154,-0.7154,-0.7154,-0.7154,-0.7154,-0.7154,-0.7154,-0.7154,-0.7154,-0.7154,-0.7154,-0.7154,-0.7154,-0.7154,-0.7154,-0.7154,-0.7154,-2.4249,-2.5566,-2.6189,-2.5201,-2.5068,-2.4646,-2.3106,-2.211,-2.1413,-2.1236,-2.1221,-2.1042,-2.0464,-2.014,-1.932,-1.7677,-1.756,-1.7516,-1.7098,-1.8195,-1.9237,-1.996,-2.0765,-2.1958,-2.3746,-2.5541,-2.6591,0.0,0.0,0.0,-2.6591,-2.6591,-2.6591,-2.6582,-2.6582,-2.5846,-2.4364,-2.4788,-2.3862,-2.1449,-2.1973,-2.1362,-1.968,-1.8736,-1.7996,0.0,0.0,0.0,0.0,-1.5608,-1.5499,-1.5475,-1.5209,-1.495,-1.4714,-1.4714,-1.4533,-1.4298,-1.4298,-1.4298,-1.4298,-1.4298,-1.4298,-1.4298,-1.4298,-1.4298,-1.4413,-1.4956,-1.4647,-1.3943,-1.2743,-1.1542,-1.0672,-1.0672,-0.9809,-0.894,-0.894,-0.9052,-0.9198,-0.9351,-0.9503,-0.9652,-0.9791,-0.9815,-0.9815,-0.9815,-0.9696,-0.9311,-0.8577,-0.8439,-0.8105,-0.729,-0.726,-0.7285,-0.7165,-0.7154,-0.7154,-0.7154,-0.7154,-0.7154,-0.7154,-0.7154,-0.7154,-0.7154,-0.7154,-0.7154,-0.7154,-0.7154,-0.7154,-0.7154,-0.7154,-0.7154,-2.2812,-2.4002,-2.479,-2.4126,-2.4153,-2.4118,-2.3109,-2.2173,-2.1353,-2.1232,-2.1285,-2.1146,-2.0529,-2.0518,-2.0042,-1.8432,-1.8037,-1.7793,-1.7502,-1.8297,-1.9571,-2.1346,-2.3538,-2.5158,0.0,0.0,0.0,0.0,0.0,0.0,-2.616,-2.5903,-2.5885,-2.6151,-2.616,-2.5733,-2.4643,-2.4087,-2.3194,-2.2103,-2.1599,-2.04,-1.884,-1.8527,-1.7681,0.0,0.0,0.0,0.0,-1.5415,-1.5234,-1.5203,-1.4944,-1.4672,-1.4431,-1.4431,-1.4377,-1.4298,-1.4298,-1.4298,-1.4298,-1.4298,-1.4298,-1.4298,-1.4298,-1.4298,-1.4413,-1.4956,-1.4647,-1.4056,-1.3727,-1.2748,-1.1873,-1.1873,-1.1004,-1.0131,-1.0131,-0.9601,-0.9198,-0.9351,-0.9503,-0.9656,-0.9795,-0.9822,-0.9822,-0.9822,-0.9612,-0.9238,-0.8698,-0.8341,-0.7948,-0.7277,-0.7239,-0.7195,-0.7157,-0.7154,-0.7154,-0.7154,-0.7154,-0.7154,-0.7154,-0.7154,-0.7154,-0.7154,-0.7154,-0.7154,-0.7154,-0.7154,-0.7154,-0.7154,-0.7154,-0.7154,-2.1985,-2.3301,-2.442,-2.4089,-2.4093,-2.4042,-2.3421,-2.2409,-2.1561,-2.1449,-2.1284,-2.0955,-2.0388,-2.0324,-1.9922,-1.8519,-1.8104,-1.8018,-1.8139,-1.8414,0.0,-2.1176,0.0,0.0,0.0,0.0,0.0,0.0,0.0,0.0,-2.5738,-2.5509,-2.5417,-2.5509,-2.5656,-2.5322,-2.447,-2.3932,-2.3312,-2.2526,-2.203,-2.0901,-1.9138,-1.8826,-1.7823,0.0,0.0,0.0,0.0,-1.5137,-1.4962,-1.4944,-1.4781,-1.4545,-1.431,-1.4509,-1.4479,-1.4298,-1.4394,-1.4394,-1.4298,-1.4298,-1.4298,-1.4316,-1.4425,-1.4521,-1.4672,-1.5016,-1.496,-1.4815,-1.4815,-1.3943,-1.3073,-1.3073,-1.22,-1.1328,-1.1328,-1.0536,-0.9949,-1.0051,-0.9898,-0.9717,-0.9805,-0.9822,-0.9822,-0.9822,-0.9666,-0.9439,-0.9001,-0.8592,-0.8114,-0.7634,-0.7492,-0.7323,-0.723,-0.7182,-0.7154,-0.7154,-0.7154,-0.7154,-0.7154,-0.7154,-0.7154,-0.7154,-0.7154,-0.7154,-0.7154,-0.7154,-0.7154,-0.7154,-0.7154,-0.7154,0.0,-2.3223,-2.4625,-2.459,-2.4541,-2.4339,-2.377,-2.2775,0.0,-2.1939,-2.119,-2.0506,-2.0161,-1.9857,-1.9274,-1.8279,-1.8056,-1.8271,-1.9005,-1.8891,0.0,0.0,-2.1744,0.0,-2.2713,0.0,0.0,0.0,0.0,0.0,-2.5326,-2.5298,-2.5115,-2.4748,-2.5096,-2.489,-2.3897,-2.4425,-2.3922,-2.2526,-2.3029,-2.2207,-2.038,-1.9642,-1.833,0.0,0.0,0.0,0.0,-1.4805,-1.4696,-1.4714,-1.4696,-1.4527,-1.4424,-1.4967,-1.4801,-1.4394,-1.4688,-1.4592,-1.4394,-1.4394,-1.431,-1.4377,-1.4636,-1.4896,-1.5113,-1.5131,-1.5499,-1.5891,-1.5891,-1.5137,-1.4272,-1.4272,-1.3398,-1.2531,-1.254,-1.1854,-1.1204,-1.1117,-1.0439,-0.9926,-0.9819,-0.9822,-0.9822,-0.9822,-0.9812,-0.964,-0.9271,-0.8998,-0.8612,-0.802,-0.7853,-0.7584,-0.7355,-0.7233,-0.7165,-0.7154,-0.7154,-0.7154,-0.7154,-0.7154,-0.7154,-0.7154,-0.7154,-0.7154,-0.7154,-0.7154,-0.7154,-0.7154,-0.7154,-0.7154,-2.0654,0.0,-2.3075,-2.2682,-2.3398,-2.4031,0.0,-2.2741,-2.2398,-2.2007,-2.1113,-2.0366,-2.0161,-1.9857,-1.9483,-1.9085,-1.8808,-1.9114,-2.0529,-2.198,0.0,-2.1271,-2.3341,-2.4336,-2.3299,0.0,0.0,0.0,0.0,-2.4922,-2.4922,-2.4611,-2.44,-2.4308,-2.439,-2.439,-2.4099,-2.3781,-2.3427,-2.3129,-2.2828,-2.17,-1.9842,-1.9635,-1.8426,0.0,0.0,0.0,-1.567,-1.4985,-1.4911,-1.5281,-1.4874,-1.475,-1.4898,-1.5057,-1.5038,-1.4885,-1.4987,-1.4981,-1.4885,-1.4885,-1.474,-1.463,-1.4881,-1.5089,-1.5149,-1.5348,-1.5638,-1.5891,-1.5891,-1.5672,-1.5458,-1.5458,-1.4595,-1.3774,-1.4061,-1.3174,-1.2217,-1.1595,-1.1252,-1.0875,-0.9919,-0.9822,-0.9822,-0.9822,-0.973,-0.9566,-0.9277,-0.8885,-0.8437,-0.8127,-0.7746,-0.7399,-0.7339,-0.7309,-0.7252,-0.716,-0.7154,-0.7154,-0.7154,-0.7154,-0.7154,-0.7154,-0.7154,-0.7154,-0.7154,-0.7154,-0.7154,-0.7154,-0.7154,-0.7154,-2.0237,-2.1352,-2.2616,-2.234,-2.3075,-2.3775,-2.3595,-2.2971,-2.2384,-2.2193,-2.126,-2.0366,-1.9922,-1.9974,-1.9935,-1.9599,-1.9698,-2.0159,-2.1217,0.0,-2.3486,-2.2436,-2.3561,-2.4242,0.0,0.0,0.0,0.0,0.0,-2.4409,-2.4225,-2.417,-2.406,-2.3877,-2.3877,-2.3877,-2.3877,-2.3564,-2.3278,-2.3098,-2.2806,-2.1593,-1.9482,-1.9482,-1.8203,0.0,0.0,0.0,-1.5503,-1.5107,-1.5069,-1.5293,-1.5044,-1.4981,-1.5083,-1.5267,-1.5178,-1.5083,-1.5267,-1.5172,-1.5083,-1.5083,-1.4977,-1.4924,-1.5239,-1.5273,-1.5318,-1.5457,-1.5686,-1.5891,-1.5891,-1.5891,-1.5891,-1.5891,-1.5458,-1.5098,-1.5344,-1.4484,-1.3419,-1.2476,-1.19,-1.1156,-1.0048,-0.9822,-0.9822,-0.9822,-0.9754,-0.9613,-0.9569,-0.908,-0.8778,-0.8495,-0.8086,-0.7597,-0.7423,-0.7369,-0.7285,-0.7163,-0.7154,-0.7154,-0.7154,-0.7154,-0.7154,-0.7154,-0.7154,-0.7154,-0.7154,-0.7154,-0.7154,-0.7154,-0.7154,-0.7154,-2.0237,-2.143,-2.2741,-2.2673,-2.3121,-2.3672,-2.4253,-2.3421,-2.2448,-2.2366,-2.1441,-2.0488,-1.9909,-2.0122,-2.0254,-2.0048,-2.0773,-2.145,-2.1689,-2.2764,-2.3481,-2.3119,-2.3224,0.0,0.0,0.0,0.0,0.0,0.0,-2.3822,-2.3474,-2.3776,-2.3813,-2.3464,-2.3455,-2.3419,-2.3354,-2.3419,-2.329,-2.2857,-2.2857,-2.1683,-1.9431,-1.9431,-1.8086,-1.5588,0.0,0.0,-1.5172,-1.5178,-1.5172,-1.5178,-1.5178,-1.5172,-1.5267,-1.5452,-1.5356,-1.5274,-1.5452,-1.5363,-1.5185,-1.523,-1.5234,-1.5307,-1.5576,-1.5651,-1.5664,-1.5664,-1.5722,-1.5891,-1.5891,-1.5891,-1.5891,-1.5891,-1.5891,-1.5976,-1.6278,-1.5741,-1.4842,-1.3825,-1.2715,-1.1627,-1.0304,-0.994,-0.9822,-0.9822,-0.9822,-0.9822,-0.9822,-0.9457,-0.9217,-0.8976,-0.8492,-0.8005,-0.7644,-0.7407,-0.7285,-0.7163,-0.7171,-0.7182,-0.7182,-0.7165,-0.7154,-0.7154,-0.7154,-0.7154,-0.7154,-0.7154,-0.7154,-0.7154,-0.7154,-0.7154,-2.0399,-2.1652,-2.2889,-2.2741,-2.3244,-2.3879,-2.3959,-2.3885,-2.3432,-2.2388,-2.1452,-2.0852,-2.074,-1.98,-1.9505,0.0,0.0,-2.3219,0.0,0.0,-2.3731,-2.2244,0.0,0.0,0.0,0.0,0.0,0.0,0.0,-2.3116,-2.3043,-2.3107,-2.3116,-2.2948,-2.2948,-2.2868,-2.252,-2.2868,-2.2921,-2.2857,-2.2857,-2.1778,-1.9715,-1.9715,-1.8469,0.0,0.0,-1.6009,-1.5642,-1.5547,-1.5547,-1.5642,-1.5547,-1.5547,-1.5737,-1.573,-1.5737,-1.5737,-1.573,-1.5642,-1.5491,-1.5932,-1.5914,-1.5897,-1.6381,-1.6358,-1.6156,-1.6156,-1.6074,-1.5891,-1.5891,-1.5891,-1.5891,-1.5891,-1.5891,-1.6024,-1.6531,-1.6558,-1.6153,-1.5435,-1.4237,-1.2946,-1.1631,-1.0547,-0.9822,-0.9822,-0.9822,-0.9822,-0.9822,-0.9457,-0.9335,-0.9214,-0.8612,-0.8124,-0.7994,-0.7519,-0.7285,-0.7163,-0.7249,-0.7307,-0.7307,-0.7209,-0.7154,-0.7154,-0.7154,-0.7154,-0.7154,-0.7154,-0.7154,-0.7154,-0.7154,-0.7154,-2.0518,-2.1382,-2.2262,-2.2332,-2.3231,-2.4116,-2.42,-2.387,-2.3292,-2.2562,-2.1627,-2.0904,0.0,0.0,-2.0695,-2.2323,0.0,-2.3888,-2.3122,-2.3286,-2.3192,0.0,0.0,0.0,0.0,0.0,0.0,0.0,0.0,0.0,-2.2621,-2.2738,-2.2756,-2.2621,-2.2612,-2.252,-2.2327,-2.2309,-2.2208,-2.2208,-2.2208,-2.1159,-1.9264,-1.9264,-1.8043,-1.6032,0.0,-1.5952,-1.5825,-1.573,-1.5737,-1.5825,-1.573,-1.5737,-1.5832,-1.5832,-1.5832,-1.5832,-1.5832,-1.573,-1.5662,-1.5985,-1.6052,-1.6137,-1.6374,-1.6412,-1.6324,-1.6324,-1.6111,-1.5891,-1.5891,-1.5891,-1.5891,-1.5891,-1.5891,-1.6036,-1.6585,-1.67,-1.6511,-1.5718,-1.4996,-1.4124,-1.2928,-1.1543,-1.0677,-1.077,-1.0183,-0.9822,-0.9822,-0.97,-0.9457,-0.9339,-0.897,-0.8625,-0.8092,-0.7789,-0.7508,-0.7163,-0.7206,-0.7239,-0.7239,-0.7184,-0.7154,-0.7154,-0.7154,-0.7154,-0.7154,-0.7154,-0.7154,-0.7154,-0.7154,-0.7154,-2.0646,-2.1201,-2.1742,-2.1788,-2.2677,-2.3709,-2.4292,-2.3754,-2.3138,-2.2877,0.0,0.0,0.0,-2.1121,0.0,-2.3069,-2.3924,-2.4181,-2.3381,-2.299,0.0,0.0,0.0,0.0,0.0,0.0,0.0,0.0,0.0,0.0,-2.2208,-2.2492,-2.252,-2.2199,-2.219,-2.219,-2.219,-2.1887,-2.1741,-2.1741,-2.1741,-2.0727,-1.8788,-1.8788,-1.7684,-1.5832,-1.5832,-1.5832,-1.5832,-1.5832,-1.5832,-1.5832,-1.5832,-1.5832,-1.5832,-1.5832,-1.5832,-1.5832,-1.5832,-1.5832,-1.5838,-1.5912,-1.6091,-1.6432,-1.6498,-1.6458,-1.6424,-1.6424,-1.6211,-1.5891,-1.5891,-1.5891,-1.5903,-1.597,-1.5982,-1.6133,-1.6676,-1.6791,-1.6678,-1.601,-1.5582,-1.4813,-1.3803,-1.2272,-1.13,-1.1242,-1.0425,-0.9822,-0.9822,-0.9822,-0.97,-0.9457,-0.9327,-0.886,-0.8207,-0.7901,-0.7621,-0.7274,-0.7154,-0.7168,-0.7195,-0.7171,-0.7154,-0.7154,-0.7154,-0.7154,-0.7154,-0.7154,-0.7154,-0.7154,-0.7154,-0.7154,-2.0733,-2.1396,-2.197,-2.1163,-2.1424,-2.2149,-2.3674,-2.3671,-2.3438,-2.3601,0.0,0.0,0.0,-2.184,-2.2103,-2.2056,-2.3234,-2.4241,-2.4693,0.0,0.0,0.0,0.0,0.0,0.0,0.0,0.0,0.0,0.0,0.0,-2.1777,-2.1805,-2.1814,-2.1777,-2.1777,-2.1777,-2.1777,-2.175,-2.1741,-2.1741,-2.1741,-2.0727,-1.8788,-1.8788,-1.7684,-1.5832,-1.5832,-1.5832,-1.5832,-1.5832,-1.5832,-1.5832,-1.5832,-1.5832,-1.5832,-1.5832,-1.5832,-1.5832,-1.5832,-1.5832,-1.5872,-1.6152,-1.6453,-1.676,-1.7034,-1.6918,-1.6624,-1.6624,-1.6311,-1.5891,-1.5891,-1.5891,-1.5952,-1.6193,-1.6254,-1.6398,-1.6948,-1.7062,-1.7074,-1.6996,-1.6051,-1.4761,-1.3498,-1.2186,-1.0944,-1.0037,-0.9822,-0.9822,-0.9822,-0.9822,-0.9822,-0.9822,-0.9327,-0.8778,-0.7949,-0.7798,-0.7621,-0.7274,-0.7154,-0.7203,-0.7317,-0.7214,-0.7154,-0.7154,-0.7154,-0.7154,-0.7154,-0.7154,-0.7154,-0.7154,-0.7154,-0.7154,-2.0711,-2.1384,-2.2039,-2.13,-2.1498,0.0,0.0,-2.3453,-2.3404,-2.2914,-2.3176,0.0,0.0,0.0,-2.3092,-2.2216,-2.3512,-2.4397,0.0,0.0,0.0,0.0,0.0,0.0,0.0,0.0,0.0,0.0,0.0,0.0,0.0,-2.1741,-2.1741,-2.1741,-2.1741,-2.1741,-2.1741,-2.1741,-2.1741,-2.1741,-2.1741,-2.0997,-1.9704,-1.9063,-1.8056,-1.6669,-1.6109,-1.5832,-1.5832,-1.5832,-1.5832,-1.5832,-1.5832,-1.5832,-1.5832,-1.5832,-1.5832,-1.5832,-1.5832,-1.5832,-1.5845,-1.5959,-1.6319,-1.6727,-1.684,-1.6898,-1.6955,-1.6736,-1.6418,-1.6111,-1.5891,-1.5891,-1.5916,-1.6012,-1.6163,-1.6386,-1.6767,-1.6978,-1.7092,-1.7092,-1.6612,-1.5926,-1.5465,-1.4189,-1.2955,-1.2124,-1.1221,-1.0546,-0.993,-0.9822,-0.9822,-0.9822,-0.9327,-0.8889,-0.8382,-0.8016,-0.7734,-0.7499,-0.7268,-0.7176,-0.7222,-0.7179,-0.7154,-0.7154,-0.7154,-0.7154,-0.7154,-0.7154,-0.7154,-0.7154,-0.7154,-0.7154,-2.0955,-2.132,-2.1681,-2.1625,-2.171,0.0,-2.273,-2.332,-2.3613,-2.3263,-2.3372,-2.3171,-2.2157,0.0,0.0,0.0,-2.3546,0.0,0.0,0.0,0.0,0.0,0.0,0.0,0.0,0.0,0.0,0.0,0.0,0.0,0.0,-2.1741,-2.1741,-2.1741,-2.1741,-2.1741,-2.1741,-2.1741,-2.1741,-2.1741,-2.1741,-2.1177,-2.0257,-1.9247,-1.8241,-1.7232,-1.6204,-1.5832,-1.5832,-1.5832,-1.5832,-1.5832,-1.5832,-1.5832,-1.5832,-1.5832,-1.5832,-1.5832,-1.5832,-1.5832,-1.5845,-1.5939,-1.6306,-1.6727,-1.682,-1.6995,-1.7173,-1.6842,-1.653,-1.6217,-1.5998,-1.5891,-1.591,-1.5994,-1.6217,-1.6489,-1.6767,-1.7032,-1.7189,-1.7111,-1.6881,-1.6612,-1.6232,-1.5003,-1.362,-1.2835,-1.1593,-1.0461,-0.9861,-0.9754,-0.9737,-0.9686,-0.9351,-0.9059,-0.8546,-0.8109,-0.785,-0.7502,-0.7268,-0.7154,-0.7154,-0.7154,-0.7154,-0.7154,-0.7154,-0.7154,-0.7154,-0.7154,-0.7154,-0.7154,-0.7154,-0.7154,-2.1624,-2.119,-2.0848,-2.1958,-2.1929,-2.1889,-2.2753,-2.332,-2.3906,-2.4967,-2.4358,-2.3477,-2.2955,-2.3308,0.0,-2.2666,-2.3227,0.0,0.0,0.0,0.0,0.0,0.0,0.0,0.0,0.0,0.0,0.0,0.0,0.0,0.0,-2.1741,-2.1741,-2.1741,-2.1741,-2.1741,-2.1741,-2.1741,-2.1741,-2.1741,-2.1741,-2.1177,-2.0249,-1.9247,-1.8241,-1.7239,-1.6204,-1.5832,-1.5832,-1.5832,-1.5832,-1.5832,-1.5832,-1.5832,-1.5832,-1.5832,-1.5832,-1.5832,-1.5832,-1.5832,-1.5879,-1.6172,-1.6466,-1.676,-1.7054,-1.714,-1.7166,-1.6836,-1.6524,-1.6211,-1.5998,-1.5891,-1.5958,-1.6217,-1.6489,-1.6767,-1.7026,-1.7292,-1.74,-1.7135,-1.6881,-1.6327,-1.5412,-1.3979,-1.2639,-1.1682,-1.0425,-0.9605,-0.9608,-0.9608,-0.9547,-0.9395,-0.9381,-0.9026,-0.8069,-0.817,-0.7966,-0.7274,-0.7154,-0.7154,-0.7154,-0.7154,-0.7154,-0.7154,-0.7154,-0.7154,-0.7154,-0.7154,-0.7154,-0.7154,-0.7154,-0.7154,-2.0029,-2.0964,-2.1992,-2.1702,-2.2722,-2.395,0.0,-2.4194,0.0,0.0,-2.4288,-2.3514,-2.3626,-2.408,0.0,-2.2337,0.0,0.0,0.0,0.0,0.0,0.0,0.0,0.0,0.0,0.0,0.0,0.0,0.0,0.0,0.0,-2.1741,-2.1741,-2.1741,-2.1741,-2.1741,-2.1741,-2.1741,-2.1741,-2.1741,-2.1741,-2.1553,-2.1266,-1.953,-1.8611,-1.8241,-1.6567,-1.5832,-1.5832,-1.5832,-1.5832,-1.5832,-1.5832,-1.5832,-1.5832,-1.5832,-1.5832,-1.5832,-1.5832,-1.5832,-1.5845,-1.5932,-1.6159,-1.642,-1.6506,-1.674,-1.681,-1.6704,-1.6658,-1.6501,-1.6274,-1.6217,-1.6129,-1.5988,-1.6211,-1.6429,-1.6507,-1.6887,-1.7129,-1.6869,-1.6754,-1.6612,-1.6345,-1.5532,-1.4498,-1.2845,-1.21,-1.1155,-0.9665,-0.9449,-0.9391,-0.9239,-0.9222,-0.9144,-0.8621,-0.8307,-0.7976,-0.7823,-0.7376,-0.7154,-0.7154,-0.7154,-0.7154,-0.7154,-0.7154,-0.7154,-0.7154,-0.7154,-0.7154,-0.7154,-0.7154,-0.7154,-2.094,-2.1576,-2.2287,-2.2632,-2.3509,-2.4387,-2.4838,-2.488,0.0,0.0,-2.4973,-2.4442,-2.4697,-2.4828,0.0,0.0,0.0,0.0,0.0,0.0,0.0,0.0,0.0,0.0,0.0,0.0,0.0,0.0,0.0,0.0,0.0,-2.1741,-2.1741,-2.1741,-2.1741,-2.1741,-2.1741,-2.1741,-2.1741,-2.1741,-2.1741,-2.1741,-2.1642,-2.0076,-1.9155,-1.8696,-1.6662,-1.5832,-1.5832,-1.5832,-1.5832,-1.5832,-1.5832,-1.5832,-1.5832,-1.5832,-1.5832,-1.5832,-1.5832,-1.5832,-1.5845,-1.5965,-1.6126,-1.6293,-1.6413,-1.6567,-1.6647,-1.6527,-1.6658,-1.6575,-1.6231,-1.6243,-1.6217,-1.5998,-1.6091,-1.6278,-1.6278,-1.6706,-1.7044,-1.6887,-1.6773,-1.673,-1.6839,-1.6045,-1.4839,-1.3223,-1.2023,-1.0759,-0.9505,-0.9289,-0.9256,-0.9164,-0.91,-0.9032,-0.8719,-0.8377,-0.8156,-0.8045,-0.7712,-0.7487,-0.7379,-0.7265,-0.7154,-0.7154,-0.7154,-0.7154,-0.7154,-0.7154,-0.7154,-0.7154,-0.7154,-0.7154,-2.296,-2.2662,-2.2105,-2.4143,-2.4189,-2.3944,-2.4671,-2.5348,-2.5925,-2.6293,0.0,-2.5852,-2.5812,-2.5295,-2.4594,0.0,0.0,0.0,0.0,0.0,0.0,0.0,0.0,0.0,0.0,0.0,0.0,0.0,0.0,0.0,0.0,-2.1741,-2.1741,-2.1741,-2.1741,-2.1741,-2.1741,-2.1741,-2.1741,0.0,-2.1741,-2.1741,-2.1642,-2.0718,-1.9704,-1.8519,-1.6662,-1.5832,-1.5832,-1.5832,-1.5832,-1.5832,-1.5832,-1.5832,-1.5832,-1.5832,-1.5832,-1.5832,-1.5832,-1.5832,-1.5872,-1.6146,-1.6233,-1.6279,-1.6547,-1.6627,-1.6534,-1.6373,-1.6469,-1.6574,-1.6116,-1.6107,-1.6293,-1.5992,-1.6072,-1.6241,-1.6241,-1.6652,-1.702,-1.702,-1.6827,-1.6748,-1.7008,-1.5898,-1.4393,-1.2942,-1.0803,-0.9246,-0.9133,-0.9133,-0.9133,-0.9133,-0.9018,-0.8826,-0.8598,-0.8484,-0.8374,-0.8045,-0.8045,-0.7937,-0.7607,-0.7379,-0.7265,-0.7154,-0.7154,-0.7154,-0.7154,-0.7154,-0.7154,-0.7154,-0.7154,-0.7154,-2.0683,-2.2069,-2.3513,-2.3699,-2.4648,-2.5419,-2.495,-2.5337,-2.5654,-2.5352,-2.5378,-2.5272,-2.5136,-2.5031,0.0,0.0,0.0,0.0,0.0,0.0,0.0,0.0,0.0,0.0,0.0,0.0,0.0,0.0,0.0,0.0,-2.1741,-2.1741,-2.1741,-2.1741,-2.1741,-2.1741,-2.1741,-2.1741,-2.1741,0.0,-2.1741,-2.1741,-2.1642,-2.0718,-1.9338,-1.7505,-1.6292,-1.5832,-1.5832,-1.5832,-1.5832,-1.5832,-1.5832,-1.5832,-1.5832,-1.5832,-1.5832,-1.5832,-1.5832,-1.5832,-1.5838,-1.5905,-1.5925,-1.5939,-1.5999,-1.6019,-1.6066,-1.6208,-1.6315,-1.6368,-1.6523,-1.6367,-1.626,-1.6268,-1.6147,-1.5976,-1.5976,-1.6229,-1.6453,-1.6453,-1.641,-1.6459,-1.6736,-1.616,-1.4945,-1.2816,-1.1278,-1.0075,-0.9092,-0.8984,-0.8984,-0.8984,-0.8957,-0.8826,-0.8826,-0.8598,-0.8484,-0.8374,-0.8156,-0.7934,-0.7934,-0.7604,-0.7382,-0.7154,-0.7154,-0.7154,-0.7154,-0.7154,-0.7154,-0.7154,-0.7154,-0.7154,-2.1228,-2.2318,-2.3375,-2.4132,-2.5016,-2.5577,-2.5008,-2.4946,-2.4899,-2.4745,-2.5127,-2.5376,-2.4946,-2.4765,0.0,0.0,0.0,0.0,0.0,0.0,0.0,0.0,0.0,0.0,0.0,0.0,0.0,0.0,0.0,-2.1741,-2.1741,-2.1741,-2.1741,-2.1741,-2.1741,-2.1741,-2.1741,-2.1741,-2.1741,-2.1741,-2.1741,-2.1741,-2.1642,-2.0257,-1.8972,-1.7971,-1.648,-1.5832,-1.5832,-1.5832,-1.5832,-1.5832,-1.5832,-1.5832,-1.5832,-1.5832,-1.5832,-1.5832,-1.5832,-1.5832,-1.5832,-1.5832,-1.5832,-1.5832,-1.5832,-1.5832,-1.5865,-1.6019,-1.6166,-1.6346,-1.626,-1.6233,-1.6055,-1.5994,-1.5915,-1.5891,-1.5891,-1.6097,-1.6278,-1.6278,-1.6278,-1.6326,-1.6477,-1.5722,-1.4741,-1.365,-1.237,-1.1109,-0.9915,-0.9805,-0.9588,-0.8937,-0.894,-0.894,-0.894,-0.8823,-0.8712,-0.8712,-0.8491,-0.838,-0.8263,-0.8156,-0.7934,-0.7598,-0.7598,-0.749,-0.7379,-0.7379,-0.7379,-0.7154,-0.7154,-0.7154,-2.2087,-2.2672,-2.2856,-2.4849,-2.5312,-2.5182,-2.4861,-2.4502,-2.4192,-2.4318,-2.4893,-2.5245,-2.4735,0.0,0.0,0.0,0.0,0.0,0.0,0.0,0.0,0.0,0.0,0.0,0.0,0.0,0.0,0.0,0.0,-2.1741,-2.1741,-2.1741,-2.1741,-2.1741,-2.1741,-2.1741,-2.1741,-2.1741,-2.1741,-2.1741,-2.1741,-2.1741,-2.1642,-1.9894,-1.8972,-1.8696,-1.6662,-1.5832,-1.5832,-1.5832,-1.5832,-1.5832,-1.5832,-1.5832,-1.5832,-1.5832,-1.5832,-1.5832,-1.5832,-1.5832,-1.5832,-1.5832,-1.5832,-1.5832,-1.5832,-1.5832,-1.5832,-1.5832,-1.6005,-1.6213,-1.5973,-1.5866,-1.5746,-1.5582,-1.567,-1.5819,-1.5819,-1.6024,-1.6211,-1.6211,-1.6211,-1.6211,-1.6211,-1.5275,-1.4451,-1.4538,-1.352,-1.2195,-1.0891,-1.0672,-1.0241,-0.9047,-0.894,-0.894,-0.894,-0.894,-0.894,-0.894,-0.894,-0.8826,-0.8598,-0.8598,-0.8488,-0.8156,-0.8045,-0.7937,-0.7715,-0.7715,-0.7604,-0.7376,-0.7265,-0.7268,-2.0186,-2.1757,-2.363,-2.4944,-2.5312,-2.5182,0.0,0.0,-2.4192,0.0,-2.417,-2.3889,0.0,0.0,0.0,0.0,0.0,0.0,0.0,0.0,0.0,0.0,0.0,0.0,0.0,0.0,0.0,0.0,-2.153,-2.1741,-2.1741,-2.1741,-2.1741,-2.1741,-2.1741,-2.1741,-2.1741,-2.1741,-2.1741,-2.1741,-2.1741,-2.1741,-2.1651,-2.0619,-1.9613,-1.8696,-1.6662,-1.5832,-1.5832,-1.5832,-1.5832,-1.5832,-1.5832,-1.5832,-1.5832,-1.5832,-1.5832,-1.5832,-1.5832,-1.5832,-1.5832,-1.5832,-1.5832,-1.5832,-1.5832,-1.5832,-1.5832,-1.5832,-1.5858,-1.585,-1.5908,-1.5712,-1.5505,-1.5538,-1.553,-1.5553,-1.5553,-1.5759,-1.594,-1.594,-1.594,-1.594,-1.594,-1.5803,-1.5363,-1.4423,-1.4078,-1.3181,-1.1,-1.0672,-1.0241,-0.9047,-0.894,-0.894,-0.894,-0.894,-0.894,-0.894,-0.894,-0.8937,-0.8826,-0.8826,-0.8826,-0.8826,-0.8269,-0.7934,-0.7934,-0.7934,-0.7934,-0.7934,-0.7604,-0.7496,-2.052,-2.2132,-2.3793,-2.5027,-2.5312,-2.5182,-2.4861,-2.4502,-2.4112,-2.3958,-2.3623,0.0,0.0,0.0,0.0,0.0,0.0,0.0,0.0,0.0,0.0,0.0,0.0,0.0,0.0,0.0,0.0,0.0,-2.1071,-2.1154,-2.1374,-2.1383,-2.1493,-2.1731,-2.1741,-2.1741,-2.1741,-2.1741,-2.1741,-2.1741,-2.1741,-2.1741,-2.1642,-2.0718,-1.9704,-1.8703,-1.7225,-1.6298,-1.5832,-1.5832,-1.5832,-1.5832,-1.5832,-1.5832,-1.5832,-1.5832,-1.5832,-1.5832,-1.5832,-1.5832,-1.5832,-1.5832,-1.5832,-1.5832,-1.5832,-1.5832,-1.5832,-1.5832,-1.5832,-1.5763,-1.5794,-1.5634,-1.548,-1.5316,-1.5258,-1.5297,-1.5246,-1.5602,-1.5891,-1.5891,-1.5891,-1.5891,-1.5891,-1.5891,-1.5779,-1.5244,-1.5137,-1.4589,-1.2856,-1.2635,-1.2205,-1.1004,-1.0241,-0.9915,-0.9915,-0.9265,-0.894,-0.894,-0.894,-0.894,-0.894,-0.894,-0.894,-0.894,-0.8605,-0.8377,-0.8263,-0.8263,-0.8152,-0.8045,-0.7826,-0.7826,-2.0631,-2.1871,-2.2935,-2.4437,-2.4814,-2.4862,0.0,0.0,-2.4273,0.0,-2.3585,0.0,0.0,0.0,0.0,0.0,0.0,0.0,0.0,0.0,0.0,0.0,0.0,0.0,0.0,0.0,0.0,0.0,-2.0934,-2.0952,-2.1255,-2.1264,-2.141,-2.1722,-2.1741,-2.1741,-2.1741,-2.1741,-2.1741,-2.1741,-2.1741,-2.1741,-2.1651,-2.0997,-1.9985,-1.8703,-1.7692,-1.677,-1.5832,-1.5832,-1.5832,-1.5832,-1.5832,-1.5832,-1.5832,-1.5832,-1.5832,-1.5832,-1.5832,-1.5832,-1.5832,-1.5832,-1.5832,-1.5832,-1.5832,-1.5832,-1.5832,-1.5832,-1.5832,-1.5825,-1.573,-1.5635,-1.5445,-1.5178,-1.5099,-1.5084,-1.5239,-1.5565,-1.5891,-1.5891,-1.5891,-1.5891,-1.5891,-1.5891,-1.5891,-1.5891,-1.5891,-1.5458,-1.4385,-1.4169,-1.3727,-1.2526,-1.1651,-1.1,-1.0672,-0.9915,-0.9265,-0.8937,-0.894,-0.894,-0.894,-0.894,-0.894,-0.894,-0.894,-0.8826,-0.8598,-0.8598,-0.8488,-0.8266,-0.8156,-0.8156,-1.9486,-1.9975,0.0,-2.2958,-2.356,-2.391,0.0,0.0,-2.4646,-2.4273,0.0,0.0,0.0,0.0,0.0,0.0,0.0,0.0,0.0,0.0,0.0,0.0,0.0,0.0,0.0,0.0,0.0,0.0,-2.1456,-2.1686,-2.1704,-2.1704,-2.1713,-2.1741,-2.1741,-2.1741,-2.1741,-2.1741,-2.1741,-2.1741,-2.1741,-2.1741,-2.1741,-2.1642,-2.0628,-1.8703,-1.7692,-1.677,-1.5832,-1.5832,-1.5832,-1.5832,-1.5832,-1.5832,-1.5832,-1.5832,-1.5832,-1.5832,-1.5832,-1.5832,-1.5832,-1.5832,-1.5832,-1.5832,-1.5832,-1.5832,-1.5832,-1.5832,-1.5832,-1.573,-1.554,-1.554,-1.5445,-1.5178,-1.5099,-1.514,-1.5469,-1.5692,-1.5891,-1.5891,-1.5891,-1.5891,-1.5891,-1.5891,-1.5891,-1.5891,-1.5891,-1.5458,-1.4385,-1.4169,-1.3727,-1.2526,-1.2304,-1.1869,-1.0781,-1.0672,-1.0131,-0.8937,-0.894,-0.894,-0.894,-0.894,-0.894,-0.894,-0.894,-0.8937,-0.8826,-0.8826,-0.8826,-0.883,-0.8598,-0.8484,-1.9387,-1.9785,0.0,-2.1893,-2.2935,-2.3501,-2.339,-2.3709,-2.397,-2.3824,0.0,0.0,0.0,0.0,0.0,0.0,0.0,0.0,0.0,0.0,0.0,0.0,0.0,0.0,0.0,0.0,0.0,0.0,0.0,-2.1062,-2.1319,-2.1328,-2.1456,-2.1722,-2.1741,-2.1741,-2.1919,-2.183,-2.182,-2.2176,-2.182,-2.182,-2.1919,-2.1741,-2.0997,-1.9704,-1.8703,-1.7318,-1.5832,-1.5832,-1.5832,-1.5832,-1.5832,-1.5832,-1.5832,-1.5832,-1.5832,-1.5832,-1.5832,-1.5832,-1.5832,-1.5832,-1.5832,-1.5832,-1.5832,-1.5832,-1.5832,-1.5832,-1.5832,-1.5737,-1.573,-1.5737,-1.5642,-1.5452,-1.5183,-1.5146,-1.5245,-1.5433,-1.5686,-1.5855,-1.5891,-1.5891,-1.5891,-1.5753,-1.5638,-1.5638,-1.5493,-1.5341,-1.5089,-1.5001,-1.4895,-1.4462,-1.371,-1.3174,-1.2743,-1.2,-1.1091,-1.0123,-1.0021,-0.9699,-0.8937,-0.894,-0.894,-0.894,-0.894,-0.894,-0.894,-0.894,-0.894,-0.894,-0.8826,-0.8712,-1.8793,-1.9158,-1.9476,0.0,-2.1655,-2.2254,-2.2292,0.0,-2.3161,-2.3191,0.0,0.0,0.0,0.0,0.0,0.0,0.0,0.0,0.0,0.0,0.0,0.0,0.0,0.0,0.0,0.0,0.0,0.0,0.0,0.0,-2.1185,-2.1332,-2.1535,-2.1722,-2.183,-2.1919,-2.2097,-2.1998,-2.2087,-2.2264,-2.2008,-2.1919,-2.1919,-2.1741,-2.1177,-2.0249,-1.9613,-1.8141,-1.6298,-1.592,-1.5832,-1.5832,-1.5832,-1.5832,-1.5832,-1.5832,-1.5832,-1.5832,-1.5832,-1.5832,-1.5832,-1.5832,-1.5832,-1.5832,-1.5832,-1.5832,-1.5832,-1.5832,-1.5832,-1.5832,-1.5832,-1.5832,-1.5737,-1.554,-1.5396,-1.5174,-1.5072,-1.5322,-1.5523,-1.5608,-1.5698,-1.5728,-1.5644,-1.5481,-1.5366,-1.5366,-1.5215,-1.5203,-1.5469,-1.5421,-1.5433,-1.5614,-1.4908,-1.4256,-1.3911,-1.3174,-1.2271,-1.1319,-1.0891,-1.0347,-0.9588,-0.9154,-0.894,-0.894,-0.894,-0.894,-0.894,-0.894,-0.894,-0.894,-0.894,-0.894,0.0,0.0,0.0,-1.9455,0.0,0.0,-2.1832,0.0,-2.2295,-2.235,0.0,0.0,0.0,0.0,0.0,0.0,0.0,0.0,0.0,0.0,0.0,0.0,0.0,0.0,0.0,0.0,0.0,0.0,-2.1608,-2.1654,-2.1395,-2.1873,-2.2008,-2.1722,-2.2008,-2.2097,-2.2097,-2.2264,-2.2264,-2.2097,-2.2097,-2.1919,-2.1731,-2.1741,-2.1177,-2.0339,-2.0339,-1.9155,-1.7232,-1.6298,-1.5832,-1.5832,-1.5832,-1.5832,-1.5832,-1.5832,-1.5832,-1.5832,-1.5832,-1.5832,-1.5832,-1.5832,-1.5832,-1.5832,-1.5832,-1.5832,-1.5832,-1.5832,-1.5832,-1.5832,-1.5832,-1.5832,-1.5737,-1.554,-1.554,-1.5428,-1.5218,-1.5303,-1.5403,-1.5155,-1.5312,-1.5409,-1.5149,-1.5101,-1.5095,-1.5095,-1.5089,-1.5179,-1.5445,-1.5252,-1.5294,-1.5813,-1.5638,-1.517,-1.4352,-1.4266,-1.3722,-1.2526,-1.1433,-1.0781,-1.0781,-0.9588,-0.8937,-0.894,-0.8937,-0.8937,-0.894,-0.894,-0.894,-0.894,-0.894,-0.894,-1.7872,0.0,0.0,0.0,0.0,0.0,0.0,0.0,0.0,-2.146,0.0,0.0,0.0,0.0,0.0,0.0,0.0,0.0,0.0,0.0,0.0,0.0,0.0,0.0,0.0,0.0,0.0,0.0,-2.1769,-2.1749,-2.1654,-2.2127,-2.2036,-2.1484,-2.185,-2.2185,-2.2353,-2.1998,-2.2087,-2.2627,-2.2097,-2.183,-2.2008,-2.183,-2.1553,-2.1275,-2.0619,-1.9613,-1.8334,-1.7318,-1.6487,-1.5832,-1.5832,-1.5832,-1.5832,-1.5832,-1.5832,-1.5832,-1.5832,-1.5832,-1.5832,-1.5832,-1.5832,-1.5832,-1.5832,-1.5832,-1.5832,-1.5832,-1.5832,-1.5832,-1.5832,-1.5832,-1.5825,-1.573,-1.5635,-1.5471,-1.5454,-1.5268,-1.5157,-1.5083,-1.5167,-1.5191,-1.5119,-1.495,-1.4823,-1.4823,-1.4654,-1.4624,-1.4896,-1.4871,-1.4956,-1.5288,-1.5258,-1.5221,-1.5159,-1.5182,-1.473,-1.3717,-1.3403,-1.2856,-1.1978,-1.1655,-1.1004,-1.0237,-1.0241,-0.9809,-0.894,-0.894,-0.894,-0.894,-0.894,-0.894,-1.7794,-1.794,-1.8008,-1.8008,0.0,0.0,-1.8899,-1.964,-2.0467,0.0,0.0,0.0,0.0,0.0,0.0,0.0,0.0,0.0,0.0,0.0,0.0,0.0,0.0,0.0,0.0,-2.1274,-2.138,-2.1547,-2.1891,-2.216,-2.2255,-2.2309,-2.224,-2.183,-2.223,-2.2353,-2.2441,-2.2264,-2.2274,-2.2539,-2.2087,-2.1919,-2.1919,-2.1731,-2.1741,-2.1642,-2.1087,-2.0348,-1.9338,-1.8788,-1.7498,-1.5832,-1.5832,-1.5832,-1.5832,-1.5832,-1.5832,-1.5832,-1.5832,-1.5832,-1.5832,-1.5832,-1.5832,-1.5832,-1.5832,-1.5832,-1.5832,-1.5832,-1.5832,-1.5832,-1.5832,-1.5832,-1.5832,-1.5832,-1.573,-1.5635,-1.554,-1.5383,-1.5162,-1.4936,-1.4965,-1.4908,-1.4793,-1.4642,-1.4539,-1.4539,-1.4401,-1.4395,-1.4684,-1.4612,-1.4727,-1.5215,-1.5173,-1.5215,-1.5475,-1.5499,-1.5204,-1.4611,-1.4084,-1.3546,-1.2901,-1.2457,-1.1962,-1.1212,-1.1394,-1.0781,-0.9699,-0.9154,-0.894,-0.894,-0.894,-0.894,-1.7657,-1.7862,-1.8008,-1.8008,-1.8008,0.0,-1.8975,-1.918,-1.9434,0.0,0.0,0.0,0.0,0.0,0.0,0.0,0.0,0.0,0.0,0.0,0.0,0.0,0.0,0.0,-2.1201,-2.123,-2.123,-2.123,-2.1982,-2.2541,-2.2707,-2.2589,-2.2413,-2.2375,-2.2687,-2.2715,-2.2441,-2.2618,-2.2539,-2.2097,-2.2097,-2.1919,-2.1741,-2.1741,-2.1741,-2.1741,-2.1741,-2.1177,-2.0339,-2.0339,-1.8596,-1.6015,-1.6015,-1.592,-1.5832,-1.5832,-1.5832,-1.5832,-1.5832,-1.5832,-1.5832,-1.5832,-1.5832,-1.5832,-1.5832,-1.5832,-1.5832,-1.5832,-1.5832,-1.5832,-1.5832,-1.5832,-1.5832,-1.5832,-1.5832,-1.5737,-1.554,-1.554,-1.535,-1.4879,-1.4698,-1.4594,-1.4437,-1.4298,-1.4298,-1.4298,-1.4298,-1.4389,-1.4636,-1.4455,-1.4582,-1.533,-1.5203,-1.5167,-1.5433,-1.5457,-1.5354,-1.5125,-1.4168,-1.355,-1.355,-1.2815,-1.2288,-1.2183,-1.2276,-1.1837,-1.0858,-0.9691,-0.9047,-0.894,-0.894,-0.894,-1.7812,-1.7862,-1.8008,-1.8008,-1.8008,0.0,-1.8223,-1.8516,-1.8809,0.0,0.0,0.0,0.0,0.0,0.0,0.0,0.0,0.0,0.0,0.0,0.0,0.0,0.0,0.0,-2.1221,-2.123,-2.123,-2.123,-2.1719,-2.2197,-2.2532,-2.2785,-2.2727,-2.2227,-2.2621,-2.2794,-2.2706,-2.253,-2.2441,-2.2353,-2.2185,-2.1919,-2.1741,-2.1741,-2.1741,-2.1741,-2.1741,-2.1177,-2.0339,-2.0339,-1.8972,-1.7052,-1.7052,-1.648,-1.5832,-1.5832,-1.5832,-1.5832,-1.5832,-1.5832,-1.5832,-1.5832,-1.5832,-1.5832,-1.5832,-1.5832,-1.5832,-1.5832,-1.5832,-1.5832,-1.5832,-1.5832,-1.5832,-1.5832,-1.5832,-1.5825,-1.5737,-1.5635,-1.5445,-1.535,-1.5019,-1.466,-1.4604,-1.4394,-1.4298,-1.4298,-1.4298,-1.4316,-1.437,-1.4334,-1.4443,-1.4829,-1.4823,-1.4902,-1.5161,-1.5185,-1.5161,-1.5113,-1.4898,-1.4796,-1.4796,-1.4634,-1.4037,-1.3101,-1.2485,-1.1959,-1.1741,-1.082,-0.9805,-0.894,-0.894,-0.894,-1.7978,-1.794,0.0,-1.8008,0.0,0.0,0.0,-1.8486,-1.8701,-1.8916,-1.9131,-1.9287,-1.9287,0.0,0.0,0.0,0.0,0.0,0.0,0.0,0.0,0.0,0.0,0.0,-2.0898,-2.1103,-2.1328,-2.1543,-2.1768,-2.207,-2.249,-2.2715,-2.2736,-2.2659,-2.2863,-2.2882,-2.2803,-2.2715,-2.253,-2.2441,-2.2264,-2.2097,-2.1919,-2.1919,-2.183,-2.1741,-2.1741,-2.1454,-2.0997,-2.0997,-2.0167,-1.8703,-1.7692,-1.6951,-1.6487,-1.6015,-1.5832,-1.5832,-1.5832,-1.5832,-1.5832,-1.5832,-1.5832,-1.5832,-1.5832,-1.5832,-1.5832,-1.5832,-1.5832,-1.5832,-1.5832,-1.5832,-1.5832,-1.5832,-1.5832,-1.5832,-1.5832,-1.5737,-1.5635,-1.5635,-1.5356,-1.507,-1.4885,-1.4694,-1.4496,-1.4496,-1.4394,-1.4298,-1.4298,-1.4298,-1.4401,-1.469,-1.4714,-1.4769,-1.4902,-1.4914,-1.4853,-1.4714,-1.4702,-1.4702,-1.4702,-1.4835,-1.4666,-1.4276,-1.3893,-1.311,-1.1954,-1.1625,-1.0908,-0.9805,-0.9154,-0.894,0.0,0.0,0.0,0.0,0.0,-1.8105,0.0,0.0,0.0,0.0,0.0,0.0,0.0,0.0,0.0,0.0,0.0,0.0,0.0,0.0,0.0,0.0,0.0,0.0,0.0,-2.0771,-2.1201,-2.1719,-2.168,-2.1894,-2.248,-2.251,-2.2705,-2.3125,-2.3135,-2.3057,-2.2882,-2.2882,-2.2706,-2.2441,-2.2441,-2.2353,-2.2185,-2.2097,-2.2008,-2.1731,-2.1741,-2.1741,-2.1741,-2.1741,-2.1266,-2.0348,-1.8603,-1.7598,-1.7232,-1.6393,-1.6015,-1.5832,-1.5832,-1.5832,-1.5832,-1.5832,-1.5832,-1.5832,-1.5832,-1.5832,-1.5832,-1.5832,-1.5832,-1.5832,-1.5832,-1.5832,-1.5832,-1.5832,-1.5832,-1.5832,-1.5832,-1.5832,-1.5832,-1.5832,-1.5635,-1.5452,-1.5172,-1.4981,-1.479,-1.4694,-1.4496,-1.4394,-1.4298,-1.4298,-1.4383,-1.4612,-1.4636,-1.4636,-1.4636,-1.4636,-1.4539,-1.431,-1.4298,-1.4298,-1.4298,-1.4515,-1.4739,-1.495,-1.5215,-1.4407,-1.2352,-1.2506,-1.1741,-1.0248,-0.9315,-0.8896,0.0,0.0,0.0,0.0,-1.8008,0.0,0.0,0.0,-1.8096,-1.8144,0.0,0.0,0.0,0.0,0.0,0.0,0.0,0.0,0.0,0.0,0.0,0.0,0.0,0.0,0.0,-2.0039,-2.041,-2.125,-2.0937,-2.124,-2.2451,-2.251,-2.2705,-2.3125,-2.3135,-2.3057,-2.3057,-2.3057,-2.2969,-2.2706,-2.2706,-2.2618,-2.2353,-2.2185,-2.2097,-2.2008,-2.183,-2.1741,-2.1741,-2.1741,-2.1642,-2.1454,-2.0348,-1.888,-1.7333,-1.7138,-1.6574,-1.5832,-1.5832,-1.5832,-1.5832,-1.5832,-1.5832,-1.5832,-1.5832,-1.5832,-1.5832,-1.5832,-1.5832,-1.5832,-1.5832,-1.5832,-1.5832,-1.5832,-1.5832,-1.5832,-1.5832,-1.5832,-1.5832,-1.5832,-1.5737,-1.5737,-1.5445,-1.5267,-1.4981,-1.479,-1.4688,-1.4592,-1.4298,-1.4298,-1.431,-1.434,-1.4346,-1.4346,-1.4346,-1.4346,-1.4334,-1.4298,-1.4298,-1.4298,-1.4298,-1.4328,-1.4358,-1.4389,-1.466,-1.4688,-1.4354,-1.3892,-1.1911,-0.8744,-0.8779,-0.8737,0.0,0.0,0.0,0.0,0.0,0.0,-1.8066,0.0,-1.8008,0.0,0.0,0.0,0.0,0.0,0.0,0.0,-1.7529,0.0,0.0,0.0,0.0,0.0,0.0,0.0,0.0,0.0,0.0,0.0,-2.0674,-2.1025,-2.209,-2.2148,-2.2451,-2.3115,-2.3135,-2.3135,-2.3135,-2.3135,-2.3057,-2.2969,-2.2969,-2.2882,-2.2618,-2.253,-2.2451,-2.2264,-2.2008,-2.1919,-2.1919,-2.1741,-2.1741,-2.1651,-2.1275,-2.0257,-1.8972,-1.8427,-1.7505,-1.6669,-1.6669,-1.6298,-1.5832,-1.5832,-1.5832,-1.5832,-1.5832,-1.5832,-1.5832,-1.5832,-1.5832,-1.5832,-1.5832,-1.5832,-1.5832,-1.5832,-1.5832,-1.5832,-1.5832,-1.5832,-1.5832,-1.5832,-1.5832,-1.5737,-1.5737,-1.5452,-1.5267,-1.4981,-1.479,-1.4592,-1.4298,-1.4298,-1.4298,-1.4298,-1.4298,-1.4298,-1.4298,-1.4298,-1.4298,-1.4298,-1.4298,-1.4298,-1.4298,-1.4298,-1.4298,-1.4298,-1.4576,-1.4406,-1.3794,-1.3636,-1.261,-1.0564,-1.0115,-0.9486,-1.7871,0.0,0.0,0.0,0.0,0.0,0.0,0.0,0.0,0.0,0.0,0.0,0.0,0.0,-1.7207,-1.7207,0.0,-1.709,0.0,0.0,0.0,0.0,0.0,0.0,0.0,0.0,0.0,-2.0381,-2.0391,-2.0771,-2.166,-2.1816,-2.2217,-2.2939,-2.3076,-2.3135,-2.3135,-2.3135,-2.3135,-2.3135,-2.3135,-2.3057,-2.2882,-2.2803,-2.2706,-2.253,-2.2274,-2.2185,-2.2097,-2.1919,-2.1741,-2.1741,-2.1741,-2.1275,-2.0529,-1.9613,-1.8611,-1.7692,-1.7419,-1.6669,-1.5832,-1.5832,-1.5832,-1.5832,-1.5832,-1.5832,-1.5832,-1.5832,-1.5832,-1.5832,-1.5832,-1.5832,-1.5832,-1.5832,-1.5832,-1.5832,-1.5832,-1.5832,-1.5832,-1.5832,-1.5832,-1.5832,-1.5832,-1.5635,-1.5547,-1.5267,-1.5077,-1.4783,-1.449,-1.4394,-1.4394,-1.4298,-1.4298,-1.4298,-1.4298,-1.4298,-1.4298,-1.4298,-1.4298,-1.4298,-1.4298,-1.4298,-1.4298,-1.4298,-1.4497,-1.4195,-1.338,-1.3741,-1.3255,-1.224,-1.15,-1.0599,0.0,0.0,0.0,-1.8115,0.0,0.0,0.0,0.0,-1.8008,0.0,0.0,0.0,0.0,-1.7051,-1.6694,-1.6694,-1.6694,0.0,0.0,0.0,0.0,0.0,0.0,0.0,0.0,0.0,0.0,-1.9902,-1.9932,-2.0322,-2.1211,-2.165,-2.209,-2.2519,-2.293,-2.3135,-2.3135,-2.3135,-2.3135,-2.3135,-2.3135,-2.3135,-2.3047,-2.2882,-2.2803,-2.2794,-2.253,-2.2264,-2.2097,-2.2097,-2.1919,-2.1741,-2.1741,-2.1651,-2.1553,-2.0619,-1.9613,-1.8611,-1.7598,-1.6669,-1.5832,-1.5832,-1.5832,-1.5832,-1.5832,-1.5832,-1.5832,-1.5832,-1.5832,-1.5832,-1.5832,-1.5832,-1.5832,-1.5832,-1.5832,-1.5832,-1.5832,-1.5832,-1.5832,-1.5832,-1.5832,-1.5832,-1.5832,-1.5825,-1.5737,-1.5547,-1.5445,-1.5255,-1.4783,-1.4688,-1.4592,-1.4298,-1.4298,-1.4298,-1.4298,-1.4298,-1.4298,-1.4298,-1.4298,-1.4298,-1.4298,-1.4298,-1.4298,-1.4298,-1.4304,-1.431,-1.431,-1.4496,-1.412,-1.292,-1.2442,-1.211,0.0,0.0,-1.9668,-1.8672,0.0,0.0,0.0,0.0,0.0,0.0,0.0,0.0,0.0,-1.7217,-1.6665,-1.6665,-1.624,-1.5859,0.0,0.0,0.0,0.0,0.0,0.0,0.0,0.0,0.0,-1.9482,-2.0029,-2.0605,0.0,-2.1377,-2.1777,-2.249,-2.2646,-2.2861,-2.3135,-2.3135,-2.3135,-2.3135,-2.3135,-2.3135,-2.3135,-2.3057,-2.2969,-2.2969,-2.2794,-2.2618,-2.2539,-2.2353,-2.2185,-2.1919,-2.1919,-2.183,-2.1651,-2.1365,-2.0628,-1.9613,-1.8603,-1.8056,-1.7684,-1.7044,-1.6763,-1.6669,-1.6015,-1.5832,-1.5832,-1.5832,-1.5832,-1.5832,-1.5832,-1.5832,-1.5832,-1.5832,-1.5832,-1.5832,-1.5832,-1.5832,-1.5832,-1.5832,-1.5832,-1.5832,-1.5832,-1.5832,-1.573,-1.554,-1.554,-1.5356,-1.4981,-1.4981,-1.4885,-1.4885,-1.4688,-1.4592,-1.4592,-1.4394,-1.4298,-1.4298,-1.4298,-1.4298,-1.4298,-1.4298,-1.4298,-1.4298,-1.4298,-1.4389,-1.4576,-1.4672,-1.46,-1.4358,-1.4219,-1.3341,-1.9429,-1.9846,0.0,-1.9297,-1.9502,0.0,-1.8496,0.0,0.0,0.0,0.0,0.0,0.0,0.0,-1.6963,-1.6963,-1.6221,-1.5586,0.0,-1.5654,0.0,0.0,0.0,0.0,0.0,0.0,-1.9023,-1.9473,-2.0019,-2.0527,0.0,0.0,-2.1562,-2.2266,-2.2432,-2.2715,-2.3135,-2.3135,-2.3135,-2.3135,-2.3135,-2.3135,-2.3135,-2.3135,-2.3057,-2.2969,-2.2969,-2.2794,-2.2618,-2.253,-2.2362,-2.2097,-2.2097,-2.1919,-2.1741,-2.1741,-2.1087,-2.0249,-1.9521,-1.9063,-1.8696,-1.8056,-1.7598,-1.7138,-1.6487,-1.6109,-1.5832,-1.5832,-1.5832,-1.5832,-1.5832,-1.5832,-1.5832,-1.5832,-1.5832,-1.5832,-1.5832,-1.5832,-1.5832,-1.5832,-1.5832,-1.5832,-1.5832,-1.5832,-1.573,-1.5635,-1.5635,-1.5547,-1.5267,-1.5267,-1.5178,-1.5083,-1.4987,-1.479,-1.4694,-1.4496,-1.4394,-1.4298,-1.4298,-1.4298,-1.4298,-1.4298,-1.4346,-1.4443,-1.4346,-1.4437,-1.4714,-1.4618,-1.4654,-1.4823,-1.492,-1.4236]},{"header":{"parameterUnit":"m.s-1","parameterCategory":1,"la1":30.6,"la2":29.2853,"lo1":-89.7004,"lo2":-87.6739,"dy":0.0162,"dx":0.0183,"nx":112,"ny":82,"refTime":"2023-07-05T06:00:00:Z","depth":0,"parameterNumber":3,"parameterNumberName":"V-component_of_WINDS"},"data":[0.0,0.0,0.0,0.0,0.0,0.0,0.0,0.0,0.0,0.0,0.0,0.0,0.0,0.0,0.0,0.0,0.0,0.0,0.0,0.0,0.0,0.0,0.0,0.0,0.0,0.0,0.0,0.0,0.0,0.0,0.0,0.0,0.0,0.0,0.0,0.0,0.0,0.0,0.0,0.0,0.0,0.0,0.0,0.0,0.0,0.0,0.0,0.0,0.0,0.0,0.0,0.0,0.0,0.0,0.0,0.0,0.0,0.0,0.0,0.0,0.0,0.0,0.0,0.0,0.0,0.0,0.0,0.0,0.0,0.0,0.0,0.0,0.0,0.0,0.0,0.0,0.0,0.0,0.0,0.0,0.0,0.0,0.0,0.0,0.0,0.0,0.0,0.0,0.0,0.0,-4.0942,-4.3625,-4.7353,-4.9117,-4.7727,-4.8068,-4.5959,-4.0385,0.0,0.0,0.0,0.0,0.0,0.0,0.0,0.0,0.0,0.0,0.0,0.0,0.0,0.0,0.0,0.0,0.0,0.0,0.0,0.0,0.0,0.0,0.0,0.0,0.0,0.0,0.0,0.0,0.0,0.0,0.0,0.0,0.0,0.0,0.0,0.0,0.0,0.0,0.0,0.0,0.0,0.0,0.0,0.0,0.0,0.0,0.0,0.0,0.0,0.0,0.0,0.0,0.0,0.0,0.0,0.0,0.0,0.0,0.0,0.0,0.0,0.0,0.0,0.0,0.0,0.0,0.0,0.0,0.0,0.0,0.0,0.0,0.0,0.0,0.0,0.0,0.0,0.0,0.0,0.0,0.0,0.0,0.0,0.0,0.0,0.0,0.0,0.0,0.0,0.0,0.0,0.0,0.0,0.0,0.0,0.0,0.0,0.0,0.0,0.0,0.0,0.0,0.0,0.0,-4.3024,-4.6258,-4.8613,-4.9807,-4.9531,-4.8312,-4.5962,-4.22,0.0,0.0,0.0,0.0,0.0,0.0,0.0,0.0,0.0,0.0,0.0,0.0,0.0,0.0,0.0,0.0,0.0,0.0,0.0,0.0,0.0,0.0,0.0,0.0,0.0,0.0,0.0,0.0,0.0,0.0,0.0,0.0,0.0,0.0,0.0,0.0,0.0,0.0,0.0,0.0,0.0,0.0,0.0,0.0,0.0,0.0,0.0,0.0,0.0,0.0,0.0,0.0,0.0,0.0,0.0,0.0,0.0,0.0,0.0,0.0,0.0,0.0,0.0,0.0,0.0,0.0,0.0,0.0,0.0,0.0,0.0,0.0,0.0,0.0,0.0,0.0,0.0,0.0,0.0,0.0,0.0,0.0,0.0,0.0,0.0,0.0,0.0,0.0,0.0,0.0,0.0,0.0,0.0,0.0,0.0,0.0,0.0,0.0,0.0,0.0,0.0,0.0,0.0,-4.2821,-4.4731,-4.7698,-4.9609,-5.0478,-5.0048,-4.8864,-4.6499,-4.2602,-4.1487,0.0,0.0,0.0,0.0,0.0,0.0,0.0,0.0,0.0,0.0,0.0,0.0,0.0,0.0,0.0,0.0,0.0,0.0,0.0,0.0,0.0,0.0,0.0,0.0,0.0,0.0,0.0,0.0,0.0,0.0,0.0,0.0,0.0,0.0,0.0,0.0,0.0,0.0,0.0,0.0,0.0,0.0,0.0,0.0,0.0,0.0,0.0,0.0,0.0,0.0,0.0,0.0,0.0,0.0,0.0,0.0,0.0,0.0,0.0,0.0,0.0,0.0,0.0,0.0,0.0,0.0,0.0,0.0,0.0,0.0,0.0,0.0,0.0,0.0,0.0,0.0,0.0,0.0,0.0,0.0,0.0,0.0,0.0,0.0,0.0,0.0,0.0,0.0,0.0,0.0,0.0,0.0,0.0,0.0,0.0,0.0,0.0,0.0,0.0,0.0,0.0,0.0,-4.4421,-4.65,-4.8503,-5.0238,-5.094,-5.018,-4.9306,-4.6952,-4.2602,-4.1551,0.0,0.0,0.0,0.0,0.0,0.0,0.0,0.0,0.0,0.0,0.0,0.0,0.0,0.0,0.0,0.0,0.0,0.0,0.0,0.0,0.0,0.0,0.0,0.0,0.0,0.0,0.0,0.0,0.0,0.0,0.0,0.0,0.0,0.0,0.0,0.0,0.0,0.0,0.0,0.0,0.0,0.0,0.0,0.0,0.0,0.0,0.0,0.0,0.0,0.0,0.0,0.0,0.0,0.0,0.0,0.0,0.0,0.0,0.0,0.0,0.0,0.0,0.0,0.0,0.0,0.0,0.0,0.0,0.0,0.0,0.0,0.0,0.0,0.0,0.0,0.0,0.0,0.0,0.0,0.0,0.0,0.0,0.0,0.0,0.0,0.0,0.0,0.0,0.0,0.0,0.0,0.0,0.0,0.0,0.0,0.0,0.0,0.0,0.0,0.0,0.0,0.0,-4.6479,-4.8599,-4.8775,-5.0356,-5.1039,-5.0161,-4.9306,-4.6975,-4.2661,-4.1583,0.0,0.0,0.0,0.0,0.0,0.0,0.0,0.0,0.0,0.0,0.0,0.0,0.0,0.0,0.0,0.0,0.0,0.0,0.0,0.0,0.0,0.0,0.0,0.0,0.0,0.0,0.0,0.0,0.0,0.0,0.0,0.0,0.0,0.0,0.0,0.0,0.0,0.0,0.0,0.0,0.0,0.0,0.0,0.0,0.0,0.0,0.0,0.0,0.0,0.0,0.0,0.0,0.0,0.0,0.0,0.0,0.0,0.0,0.0,0.0,0.0,0.0,0.0,0.0,0.0,0.0,0.0,0.0,0.0,0.0,0.0,0.0,0.0,0.0,0.0,0.0,0.0,0.0,0.0,0.0,0.0,0.0,0.0,0.0,0.0,0.0,0.0,0.0,0.0,0.0,0.0,0.0,0.0,0.0,0.0,0.0,0.0,0.0,0.0,0.0,0.0,0.0,-4.5777,-4.7643,0.0,-5.036,-5.1043,-5.0165,-4.9345,-4.7014,-4.2666,0.0,0.0,0.0,0.0,0.0,0.0,0.0,0.0,0.0,0.0,0.0,0.0,0.0,0.0,0.0,0.0,0.0,0.0,0.0,0.0,0.0,0.0,0.0,0.0,0.0,0.0,0.0,0.0,0.0,0.0,0.0,0.0,0.0,0.0,0.0,0.0,0.0,0.0,0.0,0.0,0.0,0.0,0.0,0.0,0.0,0.0,0.0,0.0,0.0,0.0,0.0,0.0,0.0,0.0,0.0,0.0,0.0,0.0,0.0,0.0,0.0,0.0,0.0,0.0,0.0,0.0,0.0,0.0,0.0,0.0,0.0,0.0,0.0,0.0,0.0,0.0,0.0,0.0,0.0,0.0,0.0,0.0,0.0,0.0,0.0,0.0,0.0,0.0,0.0,0.0,0.0,0.0,0.0,0.0,0.0,0.0,0.0,0.0,0.0,0.0,0.0,0.0,-4.3056,-4.5527,-4.7526,0.0,-5.036,-5.0945,-4.9774,-4.9189,-4.6901,-4.2284,0.0,0.0,0.0,0.0,0.0,0.0,0.0,0.0,0.0,0.0,0.0,0.0,0.0,0.0,0.0,0.0,0.0,0.0,0.0,0.0,0.0,0.0,0.0,0.0,0.0,0.0,0.0,0.0,0.0,0.0,0.0,0.0,0.0,0.0,0.0,0.0,0.0,0.0,0.0,0.0,0.0,0.0,0.0,0.0,0.0,0.0,0.0,0.0,0.0,0.0,0.0,0.0,0.0,0.0,0.0,0.0,0.0,0.0,0.0,0.0,0.0,0.0,0.0,0.0,0.0,0.0,0.0,0.0,0.0,0.0,0.0,0.0,0.0,0.0,0.0,0.0,0.0,0.0,0.0,0.0,0.0,0.0,0.0,0.0,0.0,0.0,0.0,0.0,0.0,0.0,0.0,0.0,0.0,0.0,0.0,0.0,0.0,0.0,0.0,0.0,0.0,0.0,-4.2401,-4.616,-4.8798,-4.8798,-5.036,-5.0692,-4.8954,-4.8798,-4.6593,0.0,0.0,0.0,0.0,0.0,0.0,0.0,0.0,0.0,0.0,0.0,0.0,0.0,0.0,0.0,0.0,0.0,0.0,0.0,0.0,0.0,0.0,0.0,0.0,0.0,0.0,0.0,0.0,0.0,0.0,0.0,0.0,0.0,0.0,0.0,0.0,0.0,0.0,0.0,0.0,0.0,0.0,0.0,0.0,0.0,0.0,0.0,0.0,0.0,0.0,0.0,0.0,0.0,0.0,0.0,0.0,0.0,0.0,0.0,0.0,0.0,0.0,0.0,0.0,0.0,0.0,0.0,0.0,0.0,0.0,0.0,0.0,0.0,0.0,0.0,0.0,0.0,0.0,0.0,0.0,0.0,0.0,0.0,0.0,0.0,0.0,0.0,0.0,0.0,0.0,0.0,0.0,0.0,0.0,0.0,0.0,0.0,0.0,0.0,0.0,0.0,0.0,0.0,-4.2321,-4.6144,-4.8798,-4.8798,-5.036,-5.0692,-4.8954,-4.8837,-4.6651,-4.1429,0.0,0.0,0.0,0.0,0.0,0.0,0.0,0.0,0.0,0.0,0.0,0.0,0.0,0.0,0.0,0.0,0.0,0.0,0.0,0.0,0.0,0.0,0.0,0.0,0.0,0.0,0.0,0.0,0.0,0.0,0.0,0.0,0.0,0.0,0.0,0.0,0.0,0.0,0.0,0.0,0.0,0.0,0.0,0.0,0.0,0.0,0.0,0.0,0.0,0.0,0.0,0.0,0.0,0.0,0.0,0.0,0.0,0.0,0.0,0.0,0.0,0.0,0.0,0.0,0.0,0.0,0.0,0.0,0.0,0.0,0.0,0.0,0.0,0.0,0.0,0.0,0.0,0.0,0.0,0.0,0.0,0.0,0.0,0.0,0.0,0.0,0.0,0.0,0.0,0.0,0.0,0.0,0.0,0.0,0.0,0.0,0.0,0.0,0.0,0.0,0.0,0.0,-4.1802,-4.5643,-4.8447,-4.8798,-5.0067,-5.0324,-4.8965,-4.888,-4.6967,-4.2412,0.0,0.0,0.0,0.0,0.0,0.0,0.0,0.0,0.0,0.0,0.0,0.0,0.0,0.0,0.0,0.0,0.0,0.0,0.0,0.0,0.0,0.0,0.0,0.0,0.0,0.0,0.0,0.0,0.0,0.0,0.0,0.0,0.0,0.0,0.0,0.0,0.0,0.0,0.0,0.0,0.0,0.0,0.0,0.0,0.0,0.0,0.0,0.0,0.0,0.0,0.0,0.0,0.0,0.0,0.0,0.0,0.0,0.0,0.0,0.0,0.0,0.0,0.0,0.0,0.0,0.0,0.0,0.0,0.0,0.0,0.0,0.0,0.0,0.0,0.0,0.0,0.0,0.0,0.0,0.0,0.0,0.0,0.0,0.0,0.0,0.0,0.0,0.0,0.0,0.0,0.0,0.0,0.0,0.0,0.0,0.0,0.0,0.0,0.0,0.0,0.0,0.0,-4.1105,-4.4904,-4.79,-4.8681,-4.9579,-4.9742,-4.8855,-4.8847,-4.7403,-4.3919,0.0,0.0,0.0,0.0,0.0,0.0,0.0,0.0,0.0,0.0,0.0,0.0,0.0,0.0,0.0,0.0,0.0,0.0,0.0,0.0,0.0,0.0,0.0,0.0,0.0,0.0,0.0,0.0,0.0,0.0,0.0,0.0,0.0,0.0,0.0,0.0,0.0,0.0,0.0,0.0,0.0,0.0,0.0,0.0,0.0,0.0,0.0,0.0,0.0,0.0,0.0,0.0,0.0,0.0,0.0,0.0,0.0,0.0,0.0,0.0,-3.828,0.0,0.0,0.0,0.0,0.0,0.0,0.0,0.0,0.0,0.0,0.0,0.0,0.0,0.0,0.0,0.0,0.0,0.0,0.0,0.0,0.0,0.0,0.0,0.0,0.0,0.0,0.0,0.0,0.0,0.0,0.0,0.0,0.0,0.0,0.0,0.0,0.0,0.0,0.0,0.0,0.0,-4.1092,-4.4906,-4.7666,-4.7861,-4.9267,-4.956,-4.8021,-4.8508,-4.7401,-4.3925,-4.3358,0.0,0.0,0.0,0.0,0.0,0.0,0.0,0.0,0.0,0.0,0.0,0.0,0.0,0.0,0.0,0.0,0.0,0.0,0.0,0.0,0.0,0.0,0.0,0.0,0.0,0.0,0.0,0.0,0.0,0.0,0.0,0.0,0.0,0.0,0.0,0.0,0.0,0.0,0.0,0.0,0.0,0.0,0.0,0.0,0.0,0.0,0.0,0.0,0.0,0.0,0.0,0.0,0.0,0.0,0.0,0.0,0.0,0.0,0.0,0.0,-3.9243,0.0,0.0,0.0,0.0,0.0,0.0,0.0,0.0,0.0,0.0,0.0,0.0,0.0,0.0,0.0,0.0,0.0,0.0,0.0,0.0,0.0,0.0,0.0,0.0,0.0,0.0,0.0,0.0,0.0,0.0,0.0,0.0,0.0,0.0,0.0,0.0,0.0,0.0,0.0,0.0,-4.1093,-4.4538,-4.7143,-4.7562,-4.8415,-4.8571,-4.7686,-4.8026,-4.7324,-4.5098,-4.416,0.0,0.0,0.0,0.0,0.0,0.0,0.0,0.0,0.0,0.0,0.0,0.0,0.0,0.0,0.0,0.0,0.0,0.0,0.0,0.0,0.0,0.0,0.0,0.0,0.0,0.0,0.0,0.0,0.0,0.0,0.0,0.0,0.0,0.0,0.0,0.0,0.0,0.0,0.0,0.0,0.0,0.0,0.0,0.0,0.0,0.0,0.0,0.0,0.0,0.0,0.0,0.0,0.0,-4.1363,-4.1615,-4.1557,-4.1694,-4.2157,-4.2794,-4.2153,-4.2027,-4.2084,0.0,0.0,0.0,0.0,0.0,0.0,0.0,0.0,0.0,0.0,0.0,0.0,0.0,0.0,0.0,0.0,0.0,0.0,0.0,0.0,0.0,0.0,0.0,0.0,0.0,-4.5057,-4.5971,0.0,0.0,0.0,0.0,0.0,0.0,0.0,0.0,0.0,0.0,0.0,0.0,-4.1503,-4.4323,-4.658,-4.7297,-4.7506,-4.7549,-4.7383,-4.7519,-4.7226,-4.6367,-4.4941,-4.3993,0.0,0.0,0.0,0.0,0.0,0.0,0.0,0.0,0.0,0.0,0.0,0.0,0.0,0.0,0.0,0.0,0.0,0.0,0.0,0.0,0.0,0.0,0.0,0.0,0.0,0.0,0.0,0.0,0.0,0.0,0.0,0.0,-3.3201,-3.3688,0.0,0.0,0.0,0.0,0.0,0.0,0.0,0.0,0.0,0.0,0.0,0.0,0.0,-3.9106,-4.021,-4.1666,-4.2486,-4.2752,-4.4251,-4.4963,-4.4963,-4.5095,-4.5221,-4.5325,-4.5401,0.0,-4.2346,-4.2038,0.0,0.0,0.0,0.0,0.0,0.0,0.0,0.0,0.0,0.0,0.0,0.0,0.0,0.0,0.0,0.0,0.0,0.0,0.0,0.0,0.0,0.0,-4.7087,-4.779,-4.7692,-4.7533,0.0,-4.4937,-4.2168,-4.1933,-4.1269,0.0,0.0,0.0,0.0,0.0,0.0,0.0,-4.3157,-4.5079,-4.6345,-4.6458,-4.7147,-4.7285,-4.6543,-4.7168,-4.7226,-4.6367,-4.6074,-4.5243,-4.3676,-4.4111,0.0,0.0,0.0,0.0,0.0,0.0,0.0,0.0,0.0,0.0,0.0,0.0,0.0,0.0,0.0,0.0,0.0,0.0,0.0,0.0,0.0,0.0,0.0,0.0,0.0,0.0,0.0,0.0,0.0,-3.3356,-3.397,-3.4581,-3.4323,-3.3679,0.0,0.0,0.0,0.0,0.0,0.0,0.0,0.0,0.0,-4.0315,-4.0823,-4.1494,-4.2366,-4.3226,-4.3795,-4.4072,-4.4958,-4.5438,-4.5603,-4.5727,-4.58,-4.5808,-4.6007,-4.5481,-4.4421,-4.3494,-4.2458,-4.1322,0.0,0.0,0.0,0.0,-3.9959,-4.0203,-4.1952,-4.2538,0.0,0.0,0.0,0.0,0.0,0.0,0.0,0.0,0.0,0.0,0.0,0.0,0.0,-4.7806,-4.8193,-4.8369,-4.872,-4.6973,-4.503,0.0,-4.2752,-4.1133,-3.8965,0.0,0.0,0.0,0.0,-4.2846,-4.3605,-4.5216,-4.6306,-4.6301,-4.664,-4.6719,-4.6328,-4.6641,-4.6719,-4.6328,-4.6308,-4.5936,-4.5096,-4.4492,-4.3847,0.0,0.0,0.0,0.0,0.0,0.0,0.0,0.0,0.0,0.0,0.0,0.0,0.0,0.0,0.0,0.0,0.0,0.0,0.0,0.0,0.0,0.0,0.0,0.0,0.0,0.0,0.0,0.0,-3.4518,-3.5071,-3.4955,-3.5569,-3.5319,0.0,0.0,0.0,0.0,0.0,0.0,-3.9993,-4.0637,-4.1389,-4.2333,-4.322,-4.3901,-4.4389,-4.4832,-4.5213,-4.5542,-4.5745,-4.5993,-4.6238,-4.6383,-4.6438,-4.6433,-4.6406,-4.638,-4.629,-4.4929,-4.411,-4.3564,-4.2264,-4.1484,-4.1152,-4.1602,-4.1768,-4.2017,-4.3758,-4.4337,-4.4214,-4.3767,0.0,-4.2817,-4.2009,0.0,0.0,0.0,0.0,-4.2168,-4.3901,-4.4855,-4.5653,-4.6967,-4.7725,-4.8213,-4.8447,-4.767,-4.6677,0.0,-4.4446,-4.2654,-4.0311,0.0,0.0,0.0,0.0,-4.3859,-4.4304,-4.5506,-4.6384,-4.661,-4.6424,-4.6387,-4.6601,-4.6426,-4.6308,-4.6308,-4.6308,-4.6269,-4.6191,-4.4931,-4.4421,-4.478,0.0,0.0,0.0,0.0,0.0,0.0,0.0,0.0,0.0,0.0,0.0,0.0,0.0,0.0,0.0,0.0,0.0,0.0,0.0,0.0,0.0,0.0,0.0,0.0,0.0,0.0,0.0,0.0,0.0,-3.4018,-3.6376,0.0,0.0,0.0,0.0,-3.6901,-3.8338,-3.9917,-4.1501,-4.1632,-4.2348,-4.385,-4.4742,-4.5295,-4.5519,-4.6344,-4.703,-4.7548,-4.7567,-4.7697,-4.7971,-4.8105,-4.8164,-4.814,-4.7435,-4.7143,-4.7095,-4.6435,-4.5197,-4.3686,-4.3609,-4.2554,-4.1302,-4.2964,-4.3573,-4.3812,-4.5558,-4.6167,-4.5889,-4.4226,-4.2568,-4.1515,-4.3081,-4.2402,0.0,0.0,-4.357,-4.3979,-4.5721,-4.6206,-4.6264,-4.6339,-4.6397,-4.6651,-4.749,-4.6329,-4.5592,0.0,-4.6729,-4.5545,-4.3759,0.0,-4.3546,-4.3468,-4.3587,-4.4308,-4.5952,-4.6241,-4.6612,-4.7455,-4.6793,-4.6641,-4.7461,-4.6777,-4.6308,-4.6308,-4.6308,-4.6269,-4.6191,-4.6041,-4.5599,-4.4819,-4.4652,0.0,0.0,0.0,0.0,0.0,0.0,0.0,0.0,0.0,0.0,0.0,0.0,0.0,0.0,0.0,0.0,0.0,0.0,0.0,0.0,0.0,0.0,0.0,0.0,0.0,0.0,0.0,0.0,-3.6138,-3.7875,0.0,-3.6565,-3.8339,-3.9759,-3.9974,-4.1436,-4.3044,-4.4687,-4.4779,-4.504,-4.5584,-4.59,-4.6113,-4.6203,-4.6501,-4.6829,-4.7189,-4.7353,-4.7571,-4.7851,-4.8067,-4.8176,-4.8155,-4.7985,-4.7907,-4.7856,-4.7165,-4.6235,-4.526,-4.5347,-4.4982,-4.4513,-4.5138,-4.5363,-4.546,-4.6089,-4.626,-4.6138,-4.5558,-4.4946,-4.4552,-4.5177,-4.4948,-4.4579,-4.5199,-4.5372,-4.5528,-4.6147,-4.63,-4.63,-4.63,-4.63,-4.6397,-4.669,-4.6284,-4.6014,-4.6632,-4.6053,-4.5082,-4.3908,-4.4628,-4.4998,-4.3866,-4.465,-4.5609,-4.6217,-4.6306,-4.6417,-4.6729,-4.6988,-4.7031,-4.6777,-4.6992,-4.6894,-4.6348,-4.6308,-4.6273,-4.6191,-4.6135,-4.592,-4.5568,-4.5473,-4.4478,0.0,0.0,0.0,0.0,0.0,0.0,0.0,0.0,0.0,0.0,0.0,0.0,0.0,0.0,0.0,0.0,0.0,0.0,0.0,0.0,0.0,0.0,0.0,0.0,0.0,0.0,-3.8026,-3.6967,-3.9195,-4.0207,-3.8641,-4.0677,-4.2337,-4.2876,-4.4129,-4.5324,-4.6438,-4.6494,-4.6494,-4.6494,-4.6754,-4.6903,-4.6903,-4.7163,-4.7457,-4.7763,-4.7928,-4.8207,-4.8563,-4.8735,-4.8855,-4.8971,-4.8769,-4.8665,-4.8604,-4.7552,-4.6849,-4.6387,-4.6222,-4.617,-4.6176,-4.6211,-4.6236,-4.625,-4.6284,-4.6264,-4.624,-4.6288,-4.6296,-4.63,-4.63,-4.63,-4.63,-4.63,-4.63,-4.63,-4.63,-4.63,-4.63,-4.63,-4.63,-4.63,-4.63,-4.63,-4.63,-4.63,-4.5841,-4.5258,-4.4683,-4.5539,-4.5714,-4.3957,-4.5174,-4.6195,-4.5891,-4.6378,-4.6844,-4.7157,-4.7439,-4.7363,-4.6797,-4.6464,-4.6288,-4.6308,-4.574,-4.5655,-4.6176,-4.56,-4.5239,-4.5163,-4.5041,-4.4305,-4.2935,0.0,0.0,0.0,0.0,0.0,0.0,0.0,0.0,0.0,0.0,0.0,0.0,0.0,0.0,0.0,0.0,0.0,0.0,0.0,0.0,0.0,0.0,0.0,-3.6255,-3.7947,-3.8536,-3.6419,-4.0388,-4.2445,-4.0357,-4.3304,-4.5342,-4.5329,-4.6104,-4.655,-4.6568,-4.6568,-4.6568,-4.6568,-4.733,-4.7738,-4.7738,-4.8537,-4.9098,-4.9421,-4.9452,-4.9722,-5.0221,-5.0183,-5.038,-5.0644,-4.9798,-4.9433,-4.9317,-4.77,-4.7042,-4.696,-4.6205,-4.5899,-4.592,-4.6049,-4.6098,-4.6131,-4.6245,-4.63,-4.63,-4.63,-4.63,-4.63,-4.63,-4.63,-4.63,-4.63,-4.63,-4.63,-4.63,-4.63,-4.63,-4.63,-4.63,-4.63,-4.63,-4.63,-4.63,-4.6339,-4.6319,-4.63,-4.6339,-4.6339,-4.5773,-4.4114,-4.5299,0.0,-4.5227,-4.66,-4.793,-4.8691,-4.8047,-4.7539,-4.748,-4.5188,-4.4464,-4.6191,-4.4703,-4.451,-4.6137,-4.4568,-4.3646,-4.3568,-4.3469,-4.3792,-4.4596,0.0,0.0,0.0,0.0,0.0,0.0,0.0,0.0,0.0,0.0,0.0,0.0,0.0,0.0,0.0,0.0,0.0,0.0,0.0,0.0,0.0,0.0,-3.7701,-3.7422,-3.9751,-4.1214,-4.0628,-4.2964,-4.4349,-4.3756,-4.4985,-4.5954,-4.6268,-4.696,-4.7506,-4.7849,-4.8118,-4.824,-4.824,-4.8444,-4.8574,-4.8574,-4.9373,-4.9817,-4.9902,-5.0151,-5.0341,-5.0495,-5.0279,-5.0249,-5.0339,-5.0335,-5.0337,-5.0202,-4.8507,-4.7792,-4.7673,-4.6402,-4.5899,-4.591,-4.594,-4.6033,-4.6105,-4.6144,-4.6216,-4.63,-4.63,-4.63,-4.63,-4.63,-4.63,-4.63,-4.63,-4.63,-4.63,-4.63,-4.63,-4.63,-4.63,-4.63,-4.63,-4.63,-4.63,-4.6495,-4.712,-4.6729,-4.6495,-4.7139,-4.7237,-4.7276,-4.7373,-4.7849,0.0,-4.785,-4.8242,-4.791,-4.6241,-4.6417,-4.6147,-4.4883,-4.4687,-4.5114,-4.6221,-4.5804,-4.5699,-4.6104,-4.5615,-4.5299,-4.5176,-4.3969,-4.3756,0.0,0.0,0.0,0.0,0.0,0.0,0.0,0.0,0.0,0.0,0.0,0.0,0.0,0.0,0.0,0.0,0.0,0.0,0.0,0.0,0.0,0.0,-3.8196,-3.9818,-4.0899,-4.2037,-4.2912,-4.3233,-4.4635,-4.5598,-4.5598,-4.6348,-4.6925,-4.7226,-4.7721,-4.8124,-4.8402,-4.8714,-4.8909,-4.8909,-4.8909,-4.9057,-4.941,-4.9893,-5.032,-5.0655,-5.0847,-5.0998,-5.1091,-5.0941,-5.0824,0.0,-5.0955,-5.091,-5.0587,-4.9202,-4.8432,0.0,0.0,0.0,0.0,0.0,-4.5949,-4.6098,-4.6098,-4.6181,-4.63,-4.63,-4.63,-4.63,-4.63,-4.63,-4.63,-4.63,-4.63,-4.63,-4.63,-4.63,-4.63,-4.63,-4.63,-4.63,-4.63,-4.63,-4.6456,-4.6963,-4.6944,0.0,-4.7959,-4.7822,-4.7627,-4.7744,-4.8411,-4.8775,-4.8397,-4.8672,-4.8456,-4.7299,-4.6979,-4.6432,-4.5426,-4.4772,0.0,0.0,0.0,-4.5046,-4.5012,-4.4944,0.0,0.0,0.0,-4.393,-4.5092,0.0,0.0,0.0,-4.4157,-4.3782,0.0,0.0,0.0,0.0,0.0,0.0,0.0,0.0,0.0,0.0,0.0,0.0,0.0,0.0,0.0,0.0,-4.0623,-4.3103,-4.5351,-4.4769,-4.4339,-4.4821,-4.5857,-4.6477,-4.6386,-4.7311,-4.7911,-4.7911,-4.8172,-4.8345,-4.8307,0.0,0.0,0.0,0.0,-4.9394,-5.0246,-5.0395,-5.0822,-5.1546,-5.1546,-5.167,-5.1888,-5.1715,-5.1571,-5.1402,-5.1337,-5.104,-5.0527,-4.9702,-4.8817,-4.7817,-4.622,-4.5586,-4.562,-4.5727,-4.5902,-4.6076,-4.6076,0.0,0.0,-4.6273,-4.6273,-4.6277,-4.63,-4.63,-4.63,-4.63,-4.63,-4.63,-4.63,-4.63,-4.63,-4.63,-4.63,-4.63,-4.63,-4.6378,-4.6475,-4.6554,-4.7217,-4.8017,-4.8935,-4.8427,-4.7647,-4.6983,-4.8193,-4.8903,-4.8139,-4.8691,-4.9375,-4.9844,0.0,0.0,-4.7318,-4.5117,-4.4452,-4.6098,-4.4676,-4.3783,-4.3762,-4.371,-4.3668,-4.3668,-4.3668,-4.4369,-4.58,-4.58,-4.58,-4.5761,-4.4272,-4.3581,0.0,0.0,0.0,0.0,0.0,0.0,0.0,0.0,0.0,0.0,0.0,0.0,0.0,0.0,0.0,-3.9733,-4.2845,-4.5579,-4.7032,-4.7773,-4.7783,-4.6659,-4.7321,-4.7599,-4.6955,-4.7317,-4.7493,-4.7205,-4.7728,-4.7974,-4.7705,-4.7974,-4.8618,-4.9509,-4.9546,-5.0046,-5.1138,-5.1806,-5.2215,-5.2364,0.0,0.0,-5.2418,-5.1316,-5.0798,-5.0764,-5.0325,-5.0062,-4.993,-4.9324,-4.8314,-4.7028,-4.599,-4.5586,-4.5603,-4.5637,-4.5742,-4.5873,-4.5873,-4.5906,-4.5996,-4.6105,-4.6138,-4.617,-4.6273,-4.63,0.0,-4.63,-4.63,-4.63,-4.63,-4.63,-4.63,-4.63,-4.63,-4.63,-4.63,-4.6846,-4.7549,-4.8193,-4.8447,-4.9052,-5.0633,-5.0184,-4.9794,-5.0321,-5.0692,-5.0855,-5.0695,-5.0819,-5.0195,-4.8301,-4.7791,-4.7014,-4.5546,-4.4959,-4.5075,-4.606,-4.5751,-4.5473,-4.5357,-4.5324,-4.5344,-4.5344,-4.5344,-4.5498,-4.58,-4.58,-4.58,-4.578,-4.5471,-4.5316,0.0,0.0,0.0,0.0,0.0,0.0,0.0,0.0,0.0,0.0,0.0,-3.4557,0.0,0.0,-3.9826,-4.1992,-4.4295,-4.6487,-4.8443,-4.9263,-4.9332,-4.83,-4.8514,-4.8586,-4.8193,-4.8279,-4.8325,-4.8157,-4.8622,-4.884,-4.8666,-4.8753,-4.9038,-4.9616,-4.9436,-4.9768,-5.0748,-5.1156,-5.1769,-5.2605,-5.2605,-5.281,-5.3181,-5.2509,-5.2049,-5.178,-5.1092,-5.0638,-5.0342,-4.9401,-4.8675,-4.8067,-4.7182,-4.6336,-4.5586,-4.5586,-4.5684,-4.58,-4.58,-4.5835,-4.591,-4.5978,-4.5996,-4.6005,-4.6091,-4.6098,-4.6098,-4.6098,-4.6098,-4.6125,-4.6181,-4.6206,-4.6216,-4.6277,-4.63,-4.6417,-4.6866,-4.7295,-4.7842,-4.8642,-4.915,-4.9735,-5.0594,-5.075,-5.0906,-5.1336,-5.1394,-5.1398,-5.1408,-5.1043,-5.0455,-4.9559,-4.8671,-4.7939,-4.7443,-4.6561,-4.6014,-4.5949,-4.593,-4.5858,-4.58,-4.58,-4.58,-4.58,-4.58,-4.58,-4.58,-4.58,-4.58,-4.58,-4.58,-4.58,0.0,0.0,0.0,0.0,0.0,0.0,0.0,-3.176,-3.2473,-3.3946,-3.5416,-3.6814,-3.8036,-3.9766,-4.186,-4.4354,-4.5788,-4.7334,-4.9521,-5.0066,-5.0042,-4.9443,-4.9452,-4.9478,-4.9335,-4.9317,-4.9317,-4.9317,-4.9564,-4.9685,-4.9685,-4.9598,-4.96,-4.964,-4.9287,-4.9455,-5.0267,-5.0267,-5.0953,-5.2364,-5.2364,-5.2791,-5.3571,-5.3237,-5.3013,-5.2866,-5.2061,-5.1337,-5.061,-4.9499,-4.9114,-4.9161,-4.8337,-4.7204,-4.5993,-4.5876,-4.5918,-4.5989,-4.5815,-4.5802,-4.5852,-4.5856,-4.5886,-4.5878,-4.5899,-4.5899,-4.5899,-4.5899,-4.5899,-4.592,-4.6021,-4.6057,-4.6091,-4.6206,-4.6216,-4.647,-4.7323,-4.7655,-4.8025,-4.885,-4.9683,-5.0269,-5.0269,-5.0854,-5.1327,-5.1362,-5.1362,-5.1342,-5.1338,-5.0763,-5.0588,-5.1189,-5.0012,-4.9315,-4.9596,-4.8121,-4.6786,-4.5858,-4.58,-4.58,-4.58,-4.58,-4.58,-4.58,-4.58,-4.58,-4.58,-4.58,-4.58,-4.58,-4.58,-4.58,-2.8112,-2.8765,-3.0073,-3.1369,-3.2258,-3.3494,0.0,-3.6271,-3.6288,-3.7689,-3.9226,-4.0348,-4.0521,-4.3065,-4.5406,-4.6218,-4.7961,-4.9485,-5.0209,-5.0535,-5.0453,-4.9749,-5.0072,-5.0102,-4.9388,-4.9317,-4.9317,-4.9317,-4.9317,-4.9365,-4.9365,-4.9352,-4.9503,-4.9864,-4.9818,-5.0101,-5.08,-5.08,-5.1064,-5.1528,-5.1528,-5.1955,-5.2679,-5.1193,-5.1304,-5.2605,-5.1805,-5.0748,-4.957,-4.9345,-4.9004,-4.8542,-4.7961,-4.763,-4.7403,-4.6935,-4.6777,-4.6679,-4.589,-4.5637,-4.5648,-4.5766,-4.5808,-4.5815,-4.5867,-4.5899,-4.5899,-4.5899,-4.5899,-4.591,-4.592,-4.592,-4.592,-4.594,-4.594,-4.6192,-4.7057,-4.7854,-4.8651,-4.9526,-5.0342,-5.0906,-5.0906,-5.0984,-5.1103,-5.1203,-5.1218,-5.1183,-5.1062,-5.102,-5.1028,-5.112,-5.1005,-5.0302,-4.8778,-4.7705,-4.6728,-4.5858,-4.58,-4.58,-4.58,-4.58,-4.58,-4.58,-4.58,-4.58,-4.58,-4.58,-4.58,-4.58,-4.58,-4.58,-3.1108,-3.097,-3.1153,-3.3321,-3.4125,-3.4857,-3.6523,-3.7007,-3.7525,-3.8922,-4.0819,-4.2265,-4.2265,-4.4059,-4.5909,0.0,-4.7989,-4.8985,-5.0241,-4.9724,-4.9205,-4.9065,-4.8965,-4.9159,-4.9696,-5.0325,-5.0709,-5.0709,-5.0709,-5.0709,-5.0709,-5.0438,-5.0574,-5.12,-5.1199,-5.1284,-5.1551,-5.1784,-5.1955,-5.2104,-5.2104,-5.2512,-5.3274,-5.2568,-5.2382,-5.2568,-5.1751,-5.0903,-5.004,-4.9553,-4.9332,-4.9235,-4.9024,-4.8656,-4.8114,-4.7222,-4.6913,-4.6778,-4.5893,-4.5586,-4.5603,-4.5668,-4.5684,-4.57,-4.5723,-4.5733,-4.5733,-4.5733,-4.5733,-4.5747,-4.5809,-4.5835,-4.5983,-4.6538,-4.6666,-4.7035,-4.8413,-4.8996,-4.9512,-5.0348,-5.0775,-5.1008,-5.1008,-5.1008,-5.1016,-5.1023,-5.1061,-5.1053,-5.1016,-5.102,-5.1047,-5.1043,-5.1024,-5.0538,-4.9301,-4.8836,-4.8024,-4.6631,-4.6554,-4.6322,-4.5819,-4.58,-4.58,-4.58,-4.58,-4.58,-4.58,-4.58,-4.58,-4.58,-4.58,-4.58,-3.2166,-3.2205,-3.2402,-3.4703,-3.5901,-3.6661,-3.7249,-3.7958,-3.8805,-3.9802,-4.1526,-4.2886,-4.2886,-4.4268,-4.5872,-4.72,-4.7751,-4.8463,-4.976,-4.8844,-4.7977,-4.8068,-4.7781,-4.8003,-4.9131,-5.0317,-5.1226,-5.1672,-5.1476,-5.1458,-5.169,-5.158,-5.1688,-5.2066,-5.2,-5.1871,-5.1718,-5.1904,-5.2007,-5.2084,-5.2234,-5.2698,-5.3478,-5.3701,-5.3237,-5.2252,-5.1881,-5.1244,-5.0418,-4.9819,-4.9584,-4.9579,-4.9637,-4.9183,-4.8356,-4.7444,-4.6973,-4.6685,-4.5876,-4.5586,-4.5586,-4.5586,-4.5586,-4.5586,-4.5586,-4.5586,-4.5586,-4.5586,-4.5586,-4.562,-4.5712,-4.5916,-4.6259,-4.6958,-4.712,-4.7508,-4.9013,-4.9323,-4.9575,-5.0408,-5.0757,-5.0912,-5.0912,-5.0912,-5.0889,-5.0839,-5.0879,-5.0923,-5.0925,-5.0941,-5.0945,-5.096,-5.0932,-5.0577,-4.9765,-4.9707,-4.8952,-4.7212,-4.7096,-4.6709,-4.5838,-4.58,-4.58,-4.58,-4.58,-4.58,-4.58,-4.58,-4.58,-4.58,-4.58,-4.58,-2.923,-3.1065,-3.3088,-3.4841,-3.7431,-3.956,-3.9595,-4.0198,-4.0784,-4.0836,-4.1474,-4.2026,-4.2026,-4.3889,-4.5699,-4.651,-4.7838,-4.8803,-4.8855,-4.82,-4.7441,-4.6717,-4.6864,-4.7056,0.0,-4.8487,-5.0031,-5.1583,-5.0976,-5.0887,-5.1654,-5.2455,-5.2526,-5.1708,-5.1722,-5.1508,-5.103,-5.0671,-5.0607,-5.0869,-5.125,-5.1862,-5.2661,-5.3441,-5.294,-5.1472,-5.2234,-5.1621,-5.0098,-5.0079,-4.9631,-4.8959,-4.9289,-4.887,-4.8077,-4.7786,-4.7169,-4.643,-4.582,-4.5586,-4.5586,-4.5586,-4.5586,-4.5586,-4.5586,-4.5586,-4.5586,-4.5586,-4.5586,-4.5586,-4.5622,-4.6238,-4.6874,-4.6912,-4.6912,-4.7142,-4.797,-4.8162,-4.8412,-4.9278,-5.0125,-5.0702,-5.0702,-5.0702,-5.0702,-5.0721,-5.0702,-5.0702,-5.0702,-5.0776,-5.0827,-5.0899,-5.0893,-5.0577,-4.9765,-4.9707,-4.8952,-4.7212,-4.7096,-4.6709,-4.5838,-4.58,-4.58,-4.58,-4.58,-4.58,-4.58,-4.58,-4.58,-4.58,-4.58,-4.58,-3.1196,-3.3276,-3.5513,-3.768,-3.8957,-3.9836,-4.0353,-4.0698,-4.0733,-4.0198,-4.0366,-4.0464,-3.9991,-4.1294,-4.2918,-4.4215,-4.608,-4.77,-4.8683,-4.8183,-4.7441,-4.67,-4.6378,0.0,0.0,0.0,0.0,-4.9856,-5.0104,-5.0684,-5.1654,-5.244,-5.2993,-5.3225,-5.3462,-5.3284,-5.2588,-5.2699,-5.2583,-5.2157,-5.249,-5.2934,-5.3423,-5.3683,-5.3497,-5.2958,-5.2159,-5.1472,-5.0878,-4.9763,-4.915,-4.8853,-4.8449,-4.7756,-4.6981,-4.6478,-4.5791,-4.5155,-4.5496,-4.5586,-4.5586,-4.5586,-4.5586,-4.5586,-4.5586,-4.5586,-4.5586,-4.5586,-4.5586,-4.5586,-4.5586,-4.5817,-4.6182,-4.6759,-4.7317,-4.7932,-4.8779,-4.9413,-4.9913,-5.0202,-5.0491,-5.0702,-5.0702,-5.0702,-5.0702,-5.0702,-5.0702,-5.0702,-5.0702,-5.0758,-5.081,-5.0846,-5.0858,-5.079,-5.0519,-5.05,-5.0016,-4.8894,-4.8275,-4.756,-4.6689,-4.6109,-4.58,-4.58,-4.58,-4.58,-4.58,-4.58,-4.58,-4.58,-4.58,-4.6109,-3.2884,-3.5025,-3.7084,-3.9198,-3.9905,-4.025,-4.0767,-4.0888,-4.0664,-3.9871,-3.9392,-3.8936,-3.8477,-3.9143,-4.0303,-4.189,-4.3748,-4.5631,-4.741,-4.7013,-4.6581,-4.6613,-4.6048,-4.5667,0.0,0.0,0.0,-4.8794,-4.9252,-5.013,-5.1467,-5.2552,-5.3406,-5.401,-5.4251,-5.4026,-5.3203,-5.3313,-5.3235,-5.298,-5.3318,-5.36,-5.3813,-5.3813,-5.3813,-5.372,-5.2104,-5.1398,-5.1268,-4.9596,-4.8909,-4.8853,-4.8333,-4.746,-4.6452,-4.6181,-4.5359,-4.4493,-4.5222,-4.5476,-4.5457,-4.5568,-4.5586,-4.5586,-4.5586,-4.5586,-4.5586,-4.5586,-4.5586,-4.5586,-4.5586,-4.5817,-4.6201,-4.6778,-4.7509,-4.8259,-4.8817,-4.9625,-5.024,-5.024,-5.0491,-5.0702,-5.0702,-5.0702,-5.0702,-5.0702,-5.0702,-5.0702,-5.0702,-5.074,-5.0775,-5.0793,-5.0861,-5.0909,-5.0906,-5.0906,-5.0558,-4.9745,-4.9165,-4.8333,-4.7154,-4.6554,-4.6109,-4.58,-4.58,-4.58,-4.58,-4.58,-4.58,-4.58,-4.6109,-4.6554,-3.4216,-3.6199,-3.7841,-3.9405,-4.0336,-4.0871,-4.0836,-4.0819,-4.056,-3.9646,-3.8442,-3.7447,-3.7351,-3.743,-3.8096,-3.9772,-4.1313,-4.3071,-4.5373,-4.5113,-4.5234,0.0,0.0,0.0,0.0,0.0,0.0,-4.8451,0.0,-4.9345,-5.1226,-5.2768,-5.3709,-5.3921,-5.3956,-5.3599,-5.2832,-5.2408,-5.2527,-5.3258,-5.36,-5.3774,-5.3756,-5.3794,-5.3775,-5.3664,-5.2085,-5.1361,-5.1212,-4.9577,-4.8909,-4.8909,-4.8853,-4.7887,-4.6527,-4.6731,-4.5781,-4.4438,-4.4966,-4.518,-4.5243,-4.5513,-4.5586,-4.5586,-4.5586,-4.5586,-4.5586,-4.5586,-4.5586,-4.5586,-4.5586,-4.6201,-4.6836,-4.6836,-4.7451,-4.8048,-4.8086,-4.8779,-4.9413,-4.9452,-5.0125,-5.0702,-5.0702,-5.0702,-5.0702,-5.0702,-5.0702,-5.0702,-5.0702,-5.0702,-5.072,-5.0793,-5.0863,-5.0897,-5.089,-5.0906,-5.0577,-4.9803,-4.9726,-4.8933,-4.7231,-4.7115,-4.6689,-4.5819,-4.58,-4.58,-4.58,-4.58,-4.5819,-4.5877,-4.6709,-4.7154,-3.6163,-3.8134,-3.9971,-4.0491,-4.0733,-4.0716,-4.0129,-4.0008,-3.9301,-3.6938,-3.6225,-3.5509,-3.3885,-3.5374,-3.7384,-3.8929,-4.1756,0.0,-4.6857,-4.7496,0.0,-4.8217,-4.8079,-4.7734,-4.7182,-4.732,0.0,0.0,-4.8854,-4.9978,-5.1228,-5.2429,-5.3119,-5.3171,-5.3171,-5.2796,-5.1993,-5.1879,-5.203,-5.2481,-5.2857,-5.3193,-5.344,-5.3678,-5.3478,-5.2847,-5.1844,-5.1026,-5.0358,-4.9317,-4.8909,-4.8834,-4.824,-4.7386,-4.642,-4.5903,-4.5022,-4.4151,-4.4493,-4.4872,-4.5243,-4.5513,-4.5586,-4.5586,-4.5586,-4.5586,-4.5586,-4.5586,-4.5586,-4.5586,-4.5586,-4.5759,-4.5932,-4.5932,-4.6586,-4.7375,-4.7971,-4.8779,-4.9586,-5.024,-5.0548,-5.0702,-5.0702,-5.0702,-5.0702,-5.0702,-5.0702,-5.0702,-5.0702,-5.074,-5.0793,-5.0793,-5.0861,-5.0909,-5.0906,-5.0906,-5.0809,-5.0616,-5.0035,-4.9204,-4.8101,-4.7444,-4.6689,-4.5819,-4.58,-4.58,-4.58,-4.58,-4.6129,-4.6767,-4.6999,-4.7792,-3.7786,-3.9367,-4.0745,-4.0888,-4.0612,-4.0164,-3.9359,-3.8911,-3.7851,-3.5067,-3.4381,-3.3813,-3.2243,-3.363,-3.5538,-3.7206,-3.9978,-4.2918,-4.5821,-4.6892,-4.7755,-4.87,-4.8821,-4.8528,-4.7786,-4.801,-4.82,0.0,-4.9243,-5.0128,-5.0874,-5.2218,-5.2874,-5.2695,-5.2816,-5.2493,-5.1708,-5.1871,-5.203,-5.2185,-5.2608,-5.298,-5.33,-5.3111,-5.29,-5.2531,0.0,-5.0562,-5.0042,-4.9243,-4.8909,-4.8816,-4.8017,-4.7218,-4.6401,-4.5602,-4.4748,-4.4048,-4.4318,-4.4599,-4.4896,-4.5161,-4.5322,-4.5419,-4.5419,-4.5513,-4.5586,-4.5586,-4.5586,-4.5586,-4.5586,-4.5874,-4.6163,-4.6163,-4.7105,-4.8125,-4.8567,-4.9356,-5.0106,-5.0606,-5.0702,-5.0702,-5.0702,-5.0702,-5.0702,-5.0702,-5.0702,-5.0702,-5.0702,-5.074,-5.0775,-5.0793,-5.0861,-5.0893,-5.0906,-5.0906,-5.0906,-5.0906,-5.048,-4.9687,-4.845,-4.7927,-4.7076,-4.5819,-4.58,-4.58,-4.58,-4.58,-4.6245,-4.7115,-4.7482,-4.8392,-3.9153,-4.0103,-4.0697,-4.0871,-4.0284,-3.9474,-3.8528,-3.7669,-3.6294,-3.3726,-3.2884,-3.2355,-3.1637,-3.2366,-3.3671,-3.561,-3.761,-4.0216,-4.4006,-4.5234,-4.6496,-4.8562,-4.8907,-4.8734,-4.8079,-4.8596,-4.8976,-4.8976,-4.9717,-5.0195,-5.038,-5.1899,-5.2599,-5.2272,-5.2552,-5.2386,-5.1708,-5.1982,-5.2155,-5.2155,-5.2608,-5.2937,-5.3198,-5.2471,-5.2264,-5.2345,0.0,0.0,-4.9893,-4.9187,-4.8909,-4.8834,-4.8129,-4.7293,-4.642,-4.5714,-4.4841,-4.4017,-4.4279,-4.4346,-4.4402,-4.4701,-4.4962,-4.5159,-4.5159,-4.5342,-4.5569,-4.5685,-4.5741,-4.5797,-4.5893,-4.649,-4.7067,-4.7067,-4.8163,-4.926,-4.9375,-5.0067,-5.0702,-5.0702,-5.0702,-5.0702,-5.0702,-5.0702,-5.0702,-5.0702,-5.0702,-5.0683,-5.0702,-5.0702,-5.0739,-5.0793,-5.0863,-5.0897,-5.089,-5.0906,-5.0906,-5.0906,-5.0906,-5.021,-4.8643,-4.8566,-4.7753,-4.6013,-4.609,-4.609,-4.5974,-4.609,-4.6593,-4.7463,-4.8217,-4.903,-4.001,-4.0431,-4.0583,-4.084,-4.0284,-3.9336,-3.7841,-3.6492,-3.4816,-3.2241,-3.1833,-3.1674,-3.0717,-3.2299,-3.4496,-3.6817,-3.8474,-4.0823,-4.4682,-4.5906,-4.701,-4.8631,-4.9407,-4.9752,-4.9614,-4.9717,0.0,0.0,0.0,-5.0748,-5.0432,-5.0902,-5.1262,-5.1475,-5.1545,-5.163,-5.169,-5.179,-5.1772,-5.1772,-5.249,-5.285,-5.2875,-5.265,-5.2197,-5.1546,-5.0543,0.0,-4.9113,-4.8964,-4.8909,-4.889,-4.876,-4.7794,-4.6475,-4.6345,-4.5324,-4.4005,-4.4048,-4.4079,-4.4151,-4.4624,-4.4825,-4.4872,-4.4872,-4.5052,-4.5416,-4.6124,-4.6493,-4.6836,-4.749,-4.7778,-4.7894,-4.7894,-4.8105,-4.8529,-4.924,-5.0067,-5.0702,-5.0702,-5.0702,-5.0702,-5.0702,-5.0702,-5.0702,-5.0702,-5.0702,-5.0702,-5.0702,-5.0757,-5.0793,-5.0793,-5.0861,-5.089,-5.0906,-5.0906,-5.0906,-5.0906,-5.0906,-5.048,-4.9513,-4.9475,-4.8643,-4.6902,-4.7579,-4.7579,-4.6883,-4.7599,-4.8392,-4.9243,-4.9397,-4.9919,-4.0133,-4.0436,-4.0485,-4.0485,-3.9804,-3.8625,-3.665,-3.5137,-3.3437,-3.0897,-3.0706,-3.0802,-3.0197,-3.1703,-3.3635,-3.5332,-3.7258,-3.9733,-4.3131,-4.4957,-4.67,-4.8596,-4.9528,-5.0011,-5.0011,-5.0011,-5.0011,-5.0011,-5.0338,-5.0431,-5.0223,-5.0471,-5.0838,-5.1298,-5.1298,-5.1436,-5.169,-5.169,-5.1476,-5.1066,-5.1625,-5.1754,-5.1529,-5.1201,-5.0935,-5.0692,-4.9837,0.0,-4.8909,-4.8909,-4.8909,-4.8816,-4.798,-4.7181,-4.6382,-4.5528,-4.4692,-4.4005,-4.4005,-4.4005,-4.4048,-4.4308,-4.4484,-4.4599,-4.4599,-4.5079,-4.5731,-4.6326,-4.6891,-4.7452,-4.7953,-4.8432,-4.8779,-4.8779,-4.9125,-4.9567,-4.999,-5.0394,-5.0702,-5.0702,-5.0702,-5.0702,-5.0702,-5.0702,-5.0702,-5.0702,-5.0702,-5.0702,-5.0701,-5.0775,-5.081,-5.0846,-5.0877,-5.0906,-5.0906,-5.0906,-5.0906,-5.0906,-5.0906,-5.0538,-4.9726,-4.9707,-4.9088,-4.7792,-4.8198,-4.8198,-4.7773,-4.8198,-4.8856,-4.9707,-4.9707,-5.0132,-3.9884,-4.0154,-4.0254,-4.0171,-3.9276,-3.7786,-3.5681,-3.4085,-3.2328,-3.0038,-2.9807,-2.998,-2.9939,-3.1026,-3.2324,-3.3648,-3.5459,-3.7836,-4.103,-4.3441,-4.5732,-4.8079,-4.9338,-5.0011,-5.0011,-5.0011,0.0,-5.0011,0.0,0.0,-5.0011,-5.0206,-5.0582,-5.107,-5.1123,-5.1281,-5.1589,-5.1589,-5.1248,-5.0495,-5.0861,-5.0796,-5.0404,-4.9866,-4.9806,-5.006,-4.9262,0.0,0.0,-4.8909,-4.8909,-4.876,-4.7311,-4.6643,-4.6308,-4.4822,-4.4153,-4.4005,-4.4005,-4.4005,-4.4005,-4.4005,-4.4151,-4.4318,-4.4318,-4.4944,-4.5792,-4.6411,-4.7121,-4.7843,-4.8393,-4.9106,-4.9683,-4.9683,-5.0202,-5.0702,-5.0702,-5.0702,-5.0741,-5.0914,-5.0952,-5.101,-5.1202,-5.1241,-5.1241,-5.1241,-5.1068,-5.0972,-5.099,-5.0891,-5.0846,-5.088,-5.0893,-5.0906,-5.0906,-5.0906,-5.0906,-5.0906,-5.0906,-5.0616,-4.9977,-4.9958,-4.9552,-4.8701,-4.8856,-4.8856,-4.8682,-4.8856,-4.9301,-4.9958,-4.9958,-5.0306,-3.9225,-3.9489,-3.9662,-4.0303,-3.9001,-3.7175,-3.5635,-3.3785,-3.1916,-3.0136,-2.9499,-2.9453,-2.9891,-3.0359,-3.1349,-3.3407,-3.3775,-3.5292,-3.9586,-4.1954,-4.4113,-4.6544,-4.87,-5.0011,-5.0011,-5.0011,-5.0011,-5.0011,0.0,0.0,-5.0011,-4.9993,-5.0149,-5.0471,-5.0453,-5.0747,-5.135,-5.135,-5.1045,-5.0495,-5.0879,-5.0877,-5.0404,-4.9903,-4.9824,-5.006,-4.9262,0.0,0.0,-4.8909,-4.8909,-4.8816,-4.7924,-4.7144,-4.6382,-4.5509,-4.4674,-4.4005,-4.4005,-4.4005,-4.4005,-4.4005,-4.4036,-4.4048,-4.4048,-4.4277,-4.4871,-4.6422,-4.7271,-4.8048,-4.9618,-5.0291,-5.0567,-5.0567,-5.0625,-5.0702,-5.0702,-5.0702,-5.0914,-5.1664,-5.1798,-5.2049,-5.2837,-5.2972,-5.2972,-5.2972,-5.2299,-5.1818,-5.197,-5.1294,-5.0827,-5.089,-5.089,-5.0906,-5.0906,-5.0906,-5.0906,-5.0906,-5.0906,-5.0867,-5.079,-5.079,-5.0422,-4.961,-5.0306,-5.0306,-4.9591,-5.0306,-5.0712,-5.079,-5.079,-5.0828,-3.8352,-3.8999,-3.9385,-3.947,-3.8087,-3.6222,-3.4628,-3.2915,-3.1328,-3.0071,-2.9392,-2.9251,-2.9995,-3.0156,-3.06,-3.1941,-3.2673,-3.406,-3.6797,-3.9472,-4.221,-4.4924,-4.7234,-4.8993,0.0,0.0,-5.0011,-5.0011,0.0,0.0,-5.0011,-5.0011,-5.0092,-5.0415,-5.0415,-5.041,-5.0312,-5.0469,-5.0004,-4.8862,-4.9431,-4.9401,-4.8922,-4.893,-4.9086,-4.9355,-4.9039,0.0,0.0,-4.8909,-4.8612,-4.8091,-4.7293,-4.6494,-4.5677,-4.4822,-4.4302,-4.4005,-4.4005,-4.4005,-4.4005,-4.4005,-4.4005,-4.4005,-4.4005,-4.4433,-4.5219,-4.6551,-4.7391,-4.8306,-4.9811,-5.0442,-5.0702,-5.0702,-5.0702,-5.0702,-5.0702,-5.1087,-5.1529,-5.1856,-5.2318,-5.2799,-5.3145,-5.3203,-5.3203,-5.3203,-5.2472,-5.1953,-5.2086,-5.1333,-5.0827,-5.089,-5.0906,-5.0906,-5.0906,-5.0906,-5.0906,-5.0906,-5.0906,-5.0906,-5.0906,-5.0906,-5.0751,-5.0442,-5.0751,-5.0751,-5.0422,-5.0751,-5.0906,-5.0906,-5.0906,-5.0906,-3.7112,-3.8031,-3.8466,-3.839,-3.7134,-3.5545,-3.3767,-3.2385,-3.1153,-2.9871,-2.9273,-2.9198,-2.993,-2.9968,-3.0192,-3.1067,-3.1893,-3.3055,-3.4849,-3.7332,-3.9909,-4.2479,0.0,-4.6529,0.0,-4.9476,-5.0011,0.0,0.0,0.0,-5.0011,-5.0011,-5.0109,-5.0263,-5.0246,-5.0105,-4.9697,-4.9802,-4.9233,-4.7938,-4.825,-4.8225,-4.787,-4.8172,-4.8458,-4.875,-4.8874,0.0,0.0,-4.8649,-4.8203,-4.7627,-4.681,-4.6011,-4.5231,-4.4599,-4.4228,-4.4005,-4.4005,-4.4005,-4.4005,-4.4005,-4.4005,-4.4005,-4.4005,-4.4432,-4.5183,-4.6408,-4.7609,-4.8727,-4.9791,-5.0313,-5.0544,-5.0544,-5.0624,-5.0702,-5.0702,-5.1337,-5.1991,-5.2241,-5.2991,-5.3664,-5.3895,-5.3933,-5.3933,-5.3933,-5.3222,-5.2627,-5.2472,-5.1911,-5.1368,-5.0948,-5.1138,-5.1177,-5.0925,-5.0906,-5.0906,-5.0906,-5.0906,-5.0906,-5.0906,-5.0906,-5.0906,-5.0906,-5.0906,-5.0906,-5.0906,-5.0906,-5.0906,-5.0906,-5.0906,-5.0906,-3.5448,-3.6175,-3.6546,-3.7187,-3.6474,-3.5198,-3.3152,-3.2321,-3.1449,-2.9499,-2.9075,-2.9229,-2.9637,-2.9858,-3.0326,-3.1244,-3.1355,-3.2094,-3.4294,-3.571,-3.7151,-3.8756,-4.0318,-4.2406,-4.5373,-4.829,-5.0011,0.0,0.0,0.0,-5.0011,-5.0011,-5.0011,-4.9993,-4.9993,-4.9916,-4.9679,-4.9447,-4.8924,-4.8175,-4.7938,-4.77,-4.7511,-4.787,-4.8132,0.0,0.0,0.0,0.0,-4.8036,-4.7701,-4.7627,-4.681,-4.6011,-4.5287,-4.5287,-4.4729,-4.4005,-4.4005,-4.4005,-4.4005,-4.4005,-4.4005,-4.4005,-4.4005,-4.4005,-4.4358,-4.603,-4.7909,-4.9439,-4.9721,-4.9993,-5.0206,-5.0206,-5.0462,-5.0702,-5.0702,-5.1337,-5.2164,-5.3029,-5.3895,-5.4741,-5.553,-5.5665,-5.5665,-5.5665,-5.4991,-5.4186,-5.3397,-5.3281,-5.2661,-5.1064,-5.166,-5.1834,-5.0983,-5.0906,-5.0906,-5.0906,-5.0906,-5.0906,-5.0906,-5.0906,-5.0906,-5.0906,-5.0906,-5.0906,-5.0906,-5.0906,-5.0906,-5.0906,-5.0906,-5.0906,-3.3662,-3.4599,-3.524,-3.4941,-3.4494,-3.3657,-3.1953,-3.123,-3.0637,-2.9357,-2.9029,-2.9106,-2.9592,-2.9576,-2.9853,-3.0828,-3.1083,-3.1448,-3.2235,-3.4777,-3.7395,-3.9726,-4.4268,-4.7565,0.0,0.0,0.0,0.0,0.0,0.0,-4.92,-4.8717,-4.8683,-4.9183,-4.92,-4.8653,-4.7592,-4.7788,-4.7555,-4.6866,-4.7122,-4.7483,-4.7829,-4.7951,-4.8249,0.0,0.0,0.0,0.0,-4.7441,-4.6884,-4.6791,-4.5992,-4.5157,-4.4413,-4.4413,-4.4246,-4.4005,-4.4005,-4.4005,-4.4005,-4.4005,-4.4005,-4.4005,-4.4005,-4.4005,-4.4358,-4.603,-4.7909,-4.9427,-4.9499,-4.974,-4.9936,-4.9936,-5.0155,-5.0358,-5.0358,-5.1177,-5.2164,-5.3029,-5.3895,-5.4761,-5.5549,-5.5703,-5.5703,-5.5703,-5.4511,-5.3763,-5.415,-5.2664,-5.1638,-5.1776,-5.1505,-5.1196,-5.0925,-5.0906,-5.0906,-5.0906,-5.0906,-5.0906,-5.0906,-5.0906,-5.0906,-5.0906,-5.0906,-5.0906,-5.0906,-5.0906,-5.0906,-5.0906,-5.0906,-5.0906,-3.2289,-3.3278,-3.3921,-3.3461,-3.3314,-3.294,-3.1652,-3.0844,-3.0227,-2.9658,-2.9295,-2.9243,-2.9665,-2.971,-2.9957,-3.0821,-3.1044,-3.1365,-3.206,-3.445,0.0,-3.9617,0.0,0.0,0.0,0.0,0.0,0.0,0.0,0.0,-4.8407,-4.7976,-4.7803,-4.7976,-4.8252,-4.7876,-4.6757,-4.6969,-4.6757,-4.6186,-4.6447,-4.6944,-4.7669,-4.7793,-4.7988,0.0,0.0,0.0,0.0,-4.6587,-4.6048,-4.5992,-4.5491,-4.4766,-4.4042,-4.4326,-4.4233,-4.4005,-4.3974,-4.3974,-4.4005,-4.4005,-4.4005,-4.4061,-4.4395,-4.4692,-4.5157,-4.6215,-4.7812,-4.9225,-4.9225,-4.9439,-4.9655,-4.9655,-4.9857,-5.0062,-5.0062,-5.1213,-5.2404,-5.2941,-5.4062,-5.5107,-5.5607,-5.5703,-5.5703,-5.5703,-5.4818,-5.4223,-5.4516,-5.3494,-5.2719,-5.2652,-5.2476,-5.2105,-5.1447,-5.1099,-5.0906,-5.0906,-5.0906,-5.0906,-5.0906,-5.0906,-5.0906,-5.0906,-5.0906,-5.0906,-5.0906,-5.0906,-5.0906,-5.0906,-5.0906,-5.0906,0.0,-3.2111,-3.2678,-3.2632,-3.2864,-3.2892,-3.2123,-3.1061,0.0,-3.0196,-2.9844,-2.956,-2.975,-3.0,-3.0401,-3.1032,-3.1117,-3.1647,-3.3253,-3.4792,0.0,0.0,-4.1769,0.0,-4.34,0.0,0.0,0.0,0.0,0.0,-4.7631,-4.7579,-4.7234,-4.6544,-4.72,-4.7309,-4.69,-4.6671,-4.6448,-4.6186,-4.5938,-4.6297,-4.7151,-4.7421,-4.7441,0.0,0.0,0.0,0.0,-4.5565,-4.5231,-4.5287,-4.5231,-4.4711,-4.4066,-4.473,-4.4559,-4.3974,-4.3897,-4.3929,-4.3974,-4.3974,-4.4042,-4.4246,-4.5045,-4.5844,-4.6513,-4.6568,-4.7701,-4.8909,-4.8909,-4.9127,-4.9365,-4.9365,-4.9569,-4.9795,-4.9833,-5.1345,-5.2709,-5.2867,-5.4338,-5.5585,-5.5684,-5.5703,-5.5703,-5.5703,-5.5645,-5.5378,-5.4669,-5.5249,-5.5152,-5.3662,-5.416,-5.3962,-5.2337,-5.1467,-5.0983,-5.0906,-5.0906,-5.0906,-5.0906,-5.0906,-5.0906,-5.0906,-5.0906,-5.0906,-5.0906,-5.0906,-5.0906,-5.0906,-5.0906,-5.0906,-3.0052,0.0,-3.147,-3.0935,-3.2057,-3.2924,0.0,-3.1158,-3.0828,-3.0291,-2.9874,-2.9633,-2.975,-3.0,-3.029,-3.0543,-3.0692,-3.1191,-3.238,-3.658,0.0,-4.0429,-4.4129,-4.6011,-4.4284,0.0,0.0,0.0,0.0,-4.6872,-4.6872,-4.6286,-4.5889,-4.5717,-4.5872,-4.5872,-4.5805,-4.5927,-4.5977,-4.5887,-4.6038,-4.6537,-4.7317,-4.7403,-4.7383,0.0,0.0,0.0,-4.6163,-4.4786,-4.4564,-4.5016,-4.4453,-4.4082,-4.3888,-4.404,-4.3985,-4.3851,-4.3837,-4.3818,-4.3851,-4.3851,-4.4374,-4.5026,-4.5129,-4.576,-4.6624,-4.7237,-4.8129,-4.8909,-4.8909,-4.8959,-4.9027,-4.9027,-4.927,-4.9668,-5.0278,-5.0941,-5.1882,-5.3404,-5.4096,-5.4671,-5.5547,-5.5703,-5.5703,-5.5703,-5.5184,-5.4955,-5.544,-5.4555,-5.4033,-5.4376,-5.3426,-5.2647,-5.2221,-5.2008,-5.1602,-5.0945,-5.0906,-5.0906,-5.0906,-5.0906,-5.0906,-5.0906,-5.0906,-5.0906,-5.0906,-5.0906,-5.0906,-5.0906,-5.0906,-5.0906,-2.9722,-3.0494,-3.1128,-3.0749,-3.176,-3.2724,-3.2179,-3.1328,-3.0669,-3.0687,-3.0082,-2.9633,-2.9957,-3.0321,-3.0697,-3.0912,-3.1219,-3.2106,-3.3955,0.0,-4.0273,-4.1756,-4.4079,-4.5353,0.0,0.0,0.0,0.0,0.0,-4.5906,-4.5561,-4.5458,-4.5251,-4.4906,-4.4906,-4.4906,-4.4906,-4.5027,-4.4956,-4.4609,-4.4759,-4.527,-4.6176,-4.6176,-4.6212,0.0,0.0,0.0,-4.5023,-4.4188,-4.4077,-4.4413,-4.4003,-4.3818,-4.3804,-4.3719,-4.3771,-4.3804,-4.3719,-4.3753,-4.3804,-4.3804,-4.4439,-4.5259,-4.5545,-4.6316,-4.7144,-4.7571,-4.8277,-4.8909,-4.8909,-4.8909,-4.8909,-4.8909,-4.9027,-4.9384,-5.0187,-5.093,-5.1887,-5.3506,-5.4237,-5.4834,-5.5564,-5.5703,-5.5703,-5.5703,-5.5318,-5.5224,-5.5688,-5.4998,-5.4651,-5.519,-5.4106,-5.321,-5.2821,-5.2434,-5.1834,-5.0964,-5.0906,-5.0906,-5.0906,-5.0906,-5.0906,-5.0906,-5.0906,-5.0906,-5.0906,-5.0906,-5.0906,-5.0906,-5.0906,-5.0906,-2.9722,-3.0463,-3.1158,-3.1207,-3.1823,-3.2582,-3.3077,-3.1652,-3.0476,-3.1212,-3.0479,-2.981,-3.0223,-3.0691,-3.1188,-3.1622,-3.2295,-3.367,-3.6276,-3.7886,-3.9664,-4.2141,-4.2774,0.0,0.0,0.0,0.0,0.0,0.0,-4.4803,-4.4147,-4.4716,-4.4785,-4.413,-4.4113,-4.4044,-4.3923,-4.4044,-4.3802,-4.3214,-4.3214,-4.3728,-4.4689,-4.4689,-4.4765,-4.4952,0.0,0.0,-4.3753,-4.3771,-4.3753,-4.3771,-4.3771,-4.3753,-4.3719,-4.3634,-4.3667,-4.3738,-4.3634,-4.3686,-4.3789,-4.3919,-4.4558,-4.5419,-4.6215,-4.7117,-4.7853,-4.7853,-4.8389,-4.8909,-4.8909,-4.8909,-4.8909,-4.8909,-4.8909,-4.9169,-5.0098,-5.1087,-5.2188,-5.3456,-5.4533,-5.5295,-5.5596,-5.5662,-5.5703,-5.5703,-5.5703,-5.5703,-5.5703,-5.5766,-5.5826,-5.5885,-5.5171,-5.4375,-5.3539,-5.2705,-5.1834,-5.0964,-5.1022,-5.1099,-5.1099,-5.0983,-5.0906,-5.0906,-5.0906,-5.0906,-5.0906,-5.0906,-5.0906,-5.0906,-5.0906,-5.0906,-2.9681,-3.0354,-3.1074,-3.1158,-3.2289,-3.3323,-3.3435,-3.2426,-3.1522,-3.1532,-3.1067,-3.0626,-3.0749,-3.0783,-3.1064,0.0,0.0,-3.5247,0.0,0.0,-4.0288,-3.9924,0.0,0.0,0.0,0.0,0.0,0.0,0.0,-4.3475,-4.3337,-4.3457,-4.3475,-4.3387,-4.3387,-4.3009,-4.2354,-4.3009,-4.3335,-4.3214,-4.3214,-4.368,-4.4543,-4.4543,-4.4588,0.0,0.0,-4.4285,-4.3566,-4.36,-4.36,-4.3566,-4.36,-4.36,-4.3532,-4.3513,-4.3532,-4.3532,-4.3513,-4.3566,-4.3744,-4.4375,-4.5252,-4.6168,-4.6909,-4.7847,-4.8637,-4.8637,-4.8746,-4.8909,-4.8909,-4.8909,-4.8909,-4.8909,-4.8909,-4.9317,-5.0878,-5.1341,-5.2022,-5.3827,-5.456,-5.4981,-5.5314,-5.5551,-5.5703,-5.5703,-5.5703,-5.5703,-5.5703,-5.5766,-5.5787,-5.5807,-5.5152,-5.4357,-5.3488,-5.2669,-5.1834,-5.0964,-5.1583,-5.1989,-5.1989,-5.1293,-5.0906,-5.0906,-5.0906,-5.0906,-5.0906,-5.0906,-5.0906,-5.0906,-5.0906,-5.0906,-2.9576,-3.0115,-3.0782,-3.1308,-3.2419,-3.3346,-3.3309,-3.2704,-3.2206,-3.2222,-3.1468,-3.0992,0.0,0.0,-3.2019,-3.3567,0.0,-3.6092,-3.7003,-3.8186,-3.9177,0.0,0.0,0.0,0.0,0.0,0.0,0.0,0.0,0.0,-4.2543,-4.299,-4.3024,-4.2543,-4.2526,-4.2354,-4.1992,-4.1957,-4.1988,-4.1988,-4.1988,-4.2439,-4.3268,-4.3268,-4.3559,-4.4048,0.0,-4.3828,-4.3479,-4.3513,-4.3532,-4.3479,-4.3513,-4.3532,-4.3497,-4.3497,-4.3497,-4.3497,-4.3497,-4.3513,-4.3621,-4.392,-4.5017,-4.6209,-4.656,-4.7664,-4.8787,-4.8787,-4.8857,-4.8909,-4.8909,-4.8909,-4.8909,-4.8909,-4.8909,-4.9355,-5.1045,-5.1398,-5.1971,-5.3928,-5.4072,-5.4125,-5.4905,-5.4893,-5.4929,-5.5408,-5.5618,-5.5703,-5.5703,-5.5724,-5.5766,-5.5806,-5.5075,-5.4458,-5.4145,-5.2906,-5.1783,-5.0964,-5.1273,-5.1505,-5.1505,-5.1119,-5.0906,-5.0906,-5.0906,-5.0906,-5.0906,-5.0906,-5.0906,-5.0906,-5.0906,-5.0906,-2.9486,-2.986,-3.0482,-3.1262,-3.2237,-3.3085,-3.3435,-3.3149,-3.2892,-3.3287,0.0,0.0,0.0,-3.2837,0.0,-3.4854,-3.5974,-3.6881,-3.76,-3.7887,0.0,0.0,0.0,0.0,0.0,0.0,0.0,0.0,0.0,0.0,-4.1767,-4.2302,-4.2354,-4.175,-4.1733,-4.1733,-4.1733,-4.1164,-4.0888,-4.0888,-4.0888,-4.1346,-4.2198,-4.2198,-4.2693,-4.3497,-4.3497,-4.3497,-4.3497,-4.3497,-4.3497,-4.3497,-4.3497,-4.3497,-4.3497,-4.3497,-4.3497,-4.3497,-4.3497,-4.3497,-4.3516,-4.3718,-4.4816,-4.6084,-4.6268,-4.7462,-4.8732,-4.8732,-4.8804,-4.8909,-4.8909,-4.8909,-4.8946,-4.915,-4.9187,-4.9652,-5.1323,-5.1676,-5.2103,-5.3618,-5.3459,-5.3414,-5.4349,-5.4234,-5.4325,-5.5255,-5.5573,-5.5703,-5.5703,-5.5703,-5.5724,-5.5766,-5.4996,-5.44,-5.4108,-5.287,-5.1766,-5.0948,-5.0906,-5.1003,-5.1196,-5.1022,-5.0906,-5.0906,-5.0906,-5.0906,-5.0906,-5.0906,-5.0906,-5.0906,-5.0906,-5.0906,-2.9473,-2.9721,-3.0101,-3.0792,-3.1465,-3.2531,-3.4446,-3.4282,-3.3944,-3.4826,0.0,0.0,0.0,-3.3954,-3.4528,-3.4789,-3.647,-3.8051,-3.876,0.0,0.0,0.0,0.0,0.0,0.0,0.0,0.0,0.0,0.0,0.0,-4.0957,-4.1009,-4.1026,-4.0957,-4.0957,-4.0957,-4.0957,-4.0905,-4.0888,-4.0888,-4.0888,-4.1346,-4.2198,-4.2198,-4.2693,-4.3497,-4.3497,-4.3497,-4.3497,-4.3497,-4.3497,-4.3497,-4.3497,-4.3497,-4.3497,-4.3497,-4.3497,-4.3497,-4.3497,-4.3497,-4.3608,-4.4378,-4.5204,-4.6049,-4.6801,-4.7776,-4.8623,-4.8623,-4.875,-4.8909,-4.8909,-4.8909,-4.9094,-4.9837,-5.0023,-5.0469,-5.2159,-5.2512,-5.2549,-5.2698,-5.2912,-5.3225,-5.364,-5.3853,-5.4398,-5.5506,-5.5703,-5.5703,-5.5703,-5.5703,-5.5703,-5.5703,-5.4996,-5.3899,-5.2408,-5.2174,-5.1766,-5.0948,-5.0906,-5.1254,-5.2066,-5.1331,-5.0906,-5.0906,-5.0906,-5.0906,-5.0906,-5.0906,-5.0906,-5.0906,-5.0906,-5.0906,-2.9441,-2.9705,-3.0195,-3.1431,-3.1722,0.0,0.0,-3.4124,-3.4535,-3.3971,-3.436,0.0,0.0,0.0,-3.6422,-3.5726,-3.7265,-3.8854,0.0,0.0,0.0,0.0,0.0,0.0,0.0,0.0,0.0,0.0,0.0,0.0,0.0,-4.0888,-4.0888,-4.0888,-4.0888,-4.0888,-4.0888,-4.0888,-4.0888,-4.0888,-4.0888,-4.1209,-4.1778,-4.2074,-4.2537,-4.3142,-4.3375,-4.3497,-4.3497,-4.3497,-4.3497,-4.3497,-4.3497,-4.3497,-4.3497,-4.3497,-4.3497,-4.3497,-4.3497,-4.3497,-4.3534,-4.3846,-4.4837,-4.5957,-4.6269,-4.739,-4.855,-4.8605,-4.8714,-4.8857,-4.8909,-4.8909,-4.8983,-4.928,-4.9745,-5.0432,-5.1602,-5.2252,-5.2605,-5.2605,-5.2288,-5.2092,-5.2211,-5.2046,-5.2447,-5.4127,-5.4541,-5.4894,-5.5605,-5.5703,-5.5703,-5.5703,-5.4996,-5.3841,-5.2183,-5.2082,-5.1749,-5.0935,-5.0909,-5.1061,-5.1389,-5.108,-5.0906,-5.0906,-5.0906,-5.0906,-5.0906,-5.0906,-5.0906,-5.0906,-5.0906,-5.0906,-2.9651,-2.9751,-3.0117,-3.1612,-3.1885,0.0,-3.2462,-3.3931,-3.5007,-3.4489,-3.5145,-3.5511,-3.4446,0.0,0.0,0.0,-3.805,0.0,0.0,0.0,0.0,0.0,0.0,0.0,0.0,0.0,0.0,0.0,0.0,0.0,0.0,-4.0888,-4.0888,-4.0888,-4.0888,-4.0888,-4.0888,-4.0888,-4.0888,-4.0888,-4.0888,-4.1117,-4.1534,-4.199,-4.2458,-4.292,-4.3339,-4.3497,-4.3497,-4.3497,-4.3497,-4.3497,-4.3497,-4.3497,-4.3497,-4.3497,-4.3497,-4.3497,-4.3497,-4.3497,-4.3534,-4.3791,-4.48,-4.5957,-4.6214,-4.7334,-4.8494,-4.8569,-4.8697,-4.8822,-4.8874,-4.8909,-4.8964,-4.9224,-4.9912,-5.0748,-5.1602,-5.2419,-5.2902,-5.2661,-5.1955,-5.1508,-5.1875,-5.1471,-5.1733,-5.3461,-5.3964,-5.4453,-5.522,-5.5318,-5.5222,-5.4934,-5.4417,-5.3417,-5.176,-5.1929,-5.1752,-5.0955,-5.0909,-5.0906,-5.0906,-5.0906,-5.0906,-5.0906,-5.0906,-5.0906,-5.0906,-5.0906,-5.0906,-5.0906,-5.0906,-5.0906,-3.0038,-2.9844,-2.9774,-3.1214,-3.1758,-3.1999,-3.2494,-3.3931,-3.561,-3.7015,-3.6975,-3.65,-3.586,-3.6237,0.0,-3.7352,-3.8656,0.0,0.0,0.0,0.0,0.0,0.0,0.0,0.0,0.0,0.0,0.0,0.0,0.0,0.0,-4.0888,-4.0888,-4.0888,-4.0888,-4.0888,-4.0888,-4.0888,-4.0888,-4.0888,-4.0888,-4.1117,-4.1516,-4.199,-4.2458,-4.2938,-4.3339,-4.3497,-4.3497,-4.3497,-4.3497,-4.3497,-4.3497,-4.3497,-4.3497,-4.3497,-4.3497,-4.3497,-4.3497,-4.3497,-4.3626,-4.4433,-4.5241,-4.6049,-4.6856,-4.7739,-4.8476,-4.855,-4.8678,-4.8804,-4.8874,-4.8909,-4.9113,-4.9912,-5.0748,-5.1602,-5.2401,-5.3218,-5.3553,-5.2735,-5.1955,-5.1784,-5.2878,-5.2628,-5.2645,-5.3805,-5.4261,-5.4472,-5.4491,-5.4491,-5.4145,-5.328,-5.3203,-5.2531,-5.0947,-5.1583,-5.1754,-5.0948,-5.0906,-5.0906,-5.0906,-5.0906,-5.0906,-5.0906,-5.0906,-5.0906,-5.0906,-5.0906,-5.0906,-5.0906,-5.0906,-5.0906,-3.0261,-3.0502,-3.0831,-3.1725,-3.2301,-3.2814,0.0,-3.4393,0.0,0.0,-3.7045,-3.6732,-3.6381,-3.7436,0.0,-3.7732,0.0,0.0,0.0,0.0,0.0,0.0,0.0,0.0,0.0,0.0,0.0,0.0,0.0,0.0,0.0,-4.0888,-4.0888,-4.0888,-4.0888,-4.0888,-4.0888,-4.0888,-4.0888,-4.0888,-4.0888,-4.0965,-4.1071,-4.1881,-4.2297,-4.2458,-4.316,-4.3497,-4.3497,-4.3497,-4.3497,-4.3497,-4.3497,-4.3497,-4.3497,-4.3497,-4.3497,-4.3497,-4.3497,-4.3497,-4.3534,-4.3773,-4.4397,-4.5112,-4.5351,-4.5993,-4.682,-4.75,-4.7702,-4.7922,-4.8639,-4.8822,-4.8913,-4.9206,-4.9893,-5.0562,-5.0803,-5.1974,-5.2717,-5.1918,-5.1565,-5.1508,-5.184,-5.0804,-5.056,-5.2494,-5.241,-5.248,-5.3449,-5.3587,-5.326,-5.2395,-5.2299,-5.1856,-5.0837,-5.1008,-5.108,-5.0827,-5.0874,-5.0906,-5.0906,-5.0906,-5.0906,-5.0906,-5.0906,-5.0906,-5.0906,-5.0906,-5.0906,-5.0906,-5.0906,-5.0906,-3.0755,-3.0957,-3.1101,-3.2173,-3.2507,-3.2808,-3.3567,-3.4721,0.0,0.0,-3.7552,-3.7458,-3.7313,-3.8231,0.0,0.0,0.0,0.0,0.0,0.0,0.0,0.0,0.0,0.0,0.0,0.0,0.0,0.0,0.0,0.0,0.0,-4.0888,-4.0888,-4.0888,-4.0888,-4.0888,-4.0888,-4.0888,-4.0888,-4.0888,-4.0888,-4.0888,-4.0918,-4.1622,-4.2032,-4.2239,-4.3124,-4.3497,-4.3497,-4.3497,-4.3497,-4.3497,-4.3497,-4.3497,-4.3497,-4.3497,-4.3497,-4.3497,-4.3497,-4.3497,-4.3534,-4.3864,-4.4305,-4.4764,-4.5094,-4.5516,-4.6048,-4.6672,-4.704,-4.7462,-4.8159,-4.8546,-4.8822,-4.8874,-4.9522,-5.0098,-5.0098,-5.1416,-5.2457,-5.1974,-5.1621,-5.1491,-5.1825,-5.089,-5.0502,-5.1594,-5.1566,-5.1725,-5.2565,-5.2683,-5.2491,-5.1972,-5.1606,-5.1221,-5.0741,-5.0739,-5.0775,-5.0793,-5.0844,-5.0858,-5.0893,-5.089,-5.0906,-5.0906,-5.0906,-5.0906,-5.0906,-5.0906,-5.0906,-5.0906,-5.0906,-5.0906,-3.1457,-3.1191,-3.099,-3.2478,-3.2541,-3.2358,-3.2888,-3.4889,-3.6853,-3.755,0.0,-3.8327,-3.8448,-3.8766,-3.9169,0.0,0.0,0.0,0.0,0.0,0.0,0.0,0.0,0.0,0.0,0.0,0.0,0.0,0.0,0.0,0.0,-4.0888,-4.0888,-4.0888,-4.0888,-4.0888,-4.0888,-4.0888,-4.0888,0.0,-4.0888,-4.0888,-4.0918,-4.1328,-4.1778,-4.2338,-4.3124,-4.3497,-4.3497,-4.3497,-4.3497,-4.3497,-4.3497,-4.3497,-4.3497,-4.3497,-4.3497,-4.3497,-4.3497,-4.3497,-4.3608,-4.436,-4.4599,-4.4727,-4.5461,-4.5681,-4.5736,-4.5918,-4.6506,-4.7131,-4.7476,-4.8138,-4.8694,-4.8855,-4.9466,-4.9986,-4.9986,-5.1249,-5.2382,-5.2382,-5.1788,-5.1546,-5.2345,-5.1999,-5.1463,-5.096,-5.1376,-5.1778,-5.1798,-5.1798,-5.1798,-5.1798,-5.1144,-5.0702,-5.0702,-5.0701,-5.072,-5.0793,-5.0793,-5.0829,-5.0899,-5.0893,-5.089,-5.0906,-5.0906,-5.0906,-5.0906,-5.0906,-5.0906,-5.0906,-5.0906,-5.0906,-3.1397,-3.1518,-3.1632,-3.2175,-3.271,-3.3277,-3.3873,-3.4873,-3.58,-3.6206,-3.6925,-3.7822,-3.8707,-3.8914,0.0,0.0,0.0,0.0,0.0,0.0,0.0,0.0,0.0,0.0,0.0,0.0,0.0,0.0,0.0,0.0,-4.0888,-4.0888,-4.0888,-4.0888,-4.0888,-4.0888,-4.0888,-4.0888,-4.0888,0.0,-4.0888,-4.0888,-4.0918,-4.1328,-4.1948,-4.2788,-4.3286,-4.3497,-4.3497,-4.3497,-4.3497,-4.3497,-4.3497,-4.3497,-4.3497,-4.3497,-4.3497,-4.3497,-4.3497,-4.3497,-4.3516,-4.3699,-4.3754,-4.3791,-4.3956,-4.4011,-4.414,-4.4836,-4.513,-4.5588,-4.6984,-4.7534,-4.7901,-4.862,-4.8969,-4.9169,-4.9169,-4.9949,-5.0636,-5.0636,-5.0506,-5.0655,-5.1509,-5.0484,-4.9655,-5.0005,-5.0354,-5.0648,-5.0913,-5.0952,-5.0952,-5.0952,-5.0798,-5.0702,-5.0702,-5.0702,-5.0701,-5.072,-5.0775,-5.081,-5.081,-5.088,-5.0913,-5.0906,-5.0906,-5.0906,-5.0906,-5.0906,-5.0906,-5.0906,-5.0906,-5.0906,-3.1621,-3.1725,-3.1734,-3.217,-3.2602,-3.3033,-3.349,-3.4022,-3.4587,-3.5176,-3.622,-3.7446,-3.8783,-3.9061,0.0,0.0,0.0,0.0,0.0,0.0,0.0,0.0,0.0,0.0,0.0,0.0,0.0,0.0,0.0,-4.0888,-4.0888,-4.0888,-4.0888,-4.0888,-4.0888,-4.0888,-4.0888,-4.0888,-4.0888,-4.0888,-4.0888,-4.0888,-4.0918,-4.1534,-4.2115,-4.2595,-4.3214,-4.3497,-4.3497,-4.3497,-4.3497,-4.3497,-4.3497,-4.3497,-4.3497,-4.3497,-4.3497,-4.3497,-4.3497,-4.3497,-4.3497,-4.3497,-4.3497,-4.3497,-4.3497,-4.3497,-4.3589,-4.4011,-4.4415,-4.4911,-4.5917,-4.6485,-4.696,-4.7455,-4.8264,-4.8909,-4.8909,-4.954,-5.0098,-5.0098,-5.0098,-5.0246,-5.0711,-4.9865,-4.937,-5.0067,-5.0077,-5.0111,-5.0421,-5.0442,-5.0504,-5.0683,-5.0702,-5.0702,-5.0702,-5.0683,-5.0702,-5.0702,-5.074,-5.0758,-5.0738,-5.0775,-5.081,-5.0841,-5.0841,-5.0877,-5.0893,-5.0893,-5.0893,-5.0906,-5.0906,-5.0906,-3.1839,-3.1785,-3.175,-3.2238,-3.2398,-3.2523,-3.2843,-3.3112,-3.3604,-3.4569,-3.5883,-3.7252,-3.864,0.0,0.0,0.0,0.0,0.0,0.0,0.0,0.0,0.0,0.0,0.0,0.0,0.0,0.0,0.0,0.0,-4.0888,-4.0888,-4.0888,-4.0888,-4.0888,-4.0888,-4.0888,-4.0888,-4.0888,-4.0888,-4.0888,-4.0888,-4.0888,-4.0918,-4.1709,-4.2115,-4.2239,-4.3124,-4.3497,-4.3497,-4.3497,-4.3497,-4.3497,-4.3497,-4.3497,-4.3497,-4.3497,-4.3497,-4.3497,-4.3497,-4.3497,-4.3497,-4.3497,-4.3497,-4.3497,-4.3497,-4.3497,-4.3497,-4.3497,-4.3975,-4.4544,-4.4796,-4.5434,-4.6055,-4.6234,-4.7522,-4.8686,-4.8686,-4.9317,-4.9893,-4.9893,-4.9893,-4.9893,-4.9893,-4.9575,-4.9577,-5.0284,-5.0021,-4.9838,-5.0159,-5.0206,-5.0336,-5.0663,-5.0702,-5.0702,-5.0702,-5.0702,-5.0702,-5.0702,-5.0702,-5.0702,-5.0702,-5.0702,-5.072,-5.0775,-5.0793,-5.0829,-5.0863,-5.0863,-5.088,-5.0874,-5.089,-5.0909,-3.1534,-3.1805,-3.208,-3.2362,-3.2398,-3.2523,0.0,0.0,-3.3604,0.0,-3.5833,-3.714,0.0,0.0,0.0,0.0,0.0,0.0,0.0,0.0,0.0,0.0,0.0,0.0,0.0,0.0,0.0,0.0,-4.0491,-4.0888,-4.0888,-4.0888,-4.0888,-4.0888,-4.0888,-4.0888,-4.0888,-4.0888,-4.0888,-4.0888,-4.0888,-4.0888,-4.0935,-4.1356,-4.1821,-4.2239,-4.3124,-4.3497,-4.3497,-4.3497,-4.3497,-4.3497,-4.3497,-4.3497,-4.3497,-4.3497,-4.3497,-4.3497,-4.3497,-4.3497,-4.3497,-4.3497,-4.3497,-4.3497,-4.3497,-4.3497,-4.3497,-4.3497,-4.3571,-4.3844,-4.4612,-4.4992,-4.5352,-4.6104,-4.7095,-4.7868,-4.7868,-4.85,-4.9057,-4.9057,-4.9057,-4.9057,-4.9057,-4.8999,-4.9098,-4.9484,-4.9502,-4.9627,-5.0135,-5.0206,-5.0336,-5.0663,-5.0702,-5.0702,-5.0702,-5.0702,-5.0702,-5.0702,-5.0702,-5.0683,-5.0702,-5.0702,-5.0702,-5.0702,-5.0776,-5.081,-5.081,-5.081,-5.081,-5.081,-5.088,-5.0916,-3.1597,-3.1903,-3.2154,-3.2322,-3.2398,-3.2523,-3.2843,-3.3112,-3.3493,-3.4058,-3.5188,0.0,0.0,0.0,0.0,0.0,0.0,0.0,0.0,0.0,0.0,0.0,0.0,0.0,0.0,0.0,0.0,0.0,-3.9629,-3.9784,-4.0198,-4.0215,-4.0422,-4.0871,-4.0888,-4.0888,-4.0888,-4.0888,-4.0888,-4.0888,-4.0888,-4.0888,-4.0918,-4.1328,-4.1778,-4.2257,-4.2902,-4.3304,-4.3497,-4.3497,-4.3497,-4.3497,-4.3497,-4.3497,-4.3497,-4.3497,-4.3497,-4.3497,-4.3497,-4.3497,-4.3497,-4.3497,-4.3497,-4.3497,-4.3497,-4.3497,-4.3497,-4.3497,-4.3497,-4.3605,-4.3989,-4.4149,-4.4328,-4.4798,-4.5601,-4.639,-4.6921,-4.8017,-4.8909,-4.8909,-4.8909,-4.8909,-4.8909,-4.8909,-4.8925,-4.9094,-4.9127,-4.9252,-4.9712,-4.9749,-4.9876,-5.0155,-5.0336,-5.0421,-5.0421,-5.0604,-5.0702,-5.0702,-5.0702,-5.0702,-5.0702,-5.0702,-5.0702,-5.0702,-5.074,-5.0739,-5.0738,-5.0738,-5.0756,-5.0793,-5.0846,-5.0846,-3.1618,-3.1822,-3.2006,-3.2282,-3.2338,-3.24,0.0,0.0,-3.3256,0.0,-3.4317,0.0,0.0,0.0,0.0,0.0,0.0,0.0,0.0,0.0,0.0,0.0,0.0,0.0,0.0,0.0,0.0,0.0,-3.937,-3.9405,-3.9974,-3.9991,-4.0267,-4.0853,-4.0888,-4.0888,-4.0888,-4.0888,-4.0888,-4.0888,-4.0888,-4.0888,-4.0935,-4.1209,-4.1666,-4.2257,-4.2711,-4.3123,-4.3497,-4.3497,-4.3497,-4.3497,-4.3497,-4.3497,-4.3497,-4.3497,-4.3497,-4.3497,-4.3497,-4.3497,-4.3497,-4.3497,-4.3497,-4.3497,-4.3497,-4.3497,-4.3497,-4.3497,-4.3497,-4.3479,-4.3513,-4.3548,-4.3615,-4.3771,-4.448,-4.5412,-4.6554,-4.7906,-4.8909,-4.8909,-4.8909,-4.8909,-4.8909,-4.8909,-4.8909,-4.8909,-4.8909,-4.9027,-4.9352,-4.9415,-4.9499,-4.9776,-4.9968,-5.0135,-5.0206,-5.0421,-5.0604,-5.0683,-5.0702,-5.0702,-5.0702,-5.0702,-5.0702,-5.0702,-5.0702,-5.0702,-5.0702,-5.0702,-5.072,-5.0757,-5.0775,-5.0775,-3.149,-3.1506,0.0,-3.2038,-3.2132,-3.2165,0.0,0.0,-3.3005,-3.3256,0.0,0.0,0.0,0.0,0.0,0.0,0.0,0.0,0.0,0.0,0.0,0.0,0.0,0.0,0.0,0.0,0.0,0.0,-4.0353,-4.0784,-4.0819,-4.0819,-4.0836,-4.0888,-4.0888,-4.0888,-4.0888,-4.0888,-4.0888,-4.0888,-4.0888,-4.0888,-4.0888,-4.0918,-4.1373,-4.2257,-4.2711,-4.3123,-4.3497,-4.3497,-4.3497,-4.3497,-4.3497,-4.3497,-4.3497,-4.3497,-4.3497,-4.3497,-4.3497,-4.3497,-4.3497,-4.3497,-4.3497,-4.3497,-4.3497,-4.3497,-4.3497,-4.3497,-4.3497,-4.3513,-4.3582,-4.3582,-4.3615,-4.3771,-4.448,-4.5578,-4.7259,-4.8296,-4.8909,-4.8909,-4.8909,-4.8909,-4.8909,-4.8909,-4.8909,-4.8909,-4.8909,-4.9027,-4.9352,-4.9415,-4.9499,-4.9776,-4.9811,-4.9917,-5.0183,-5.0206,-5.0358,-5.0683,-5.0702,-5.0702,-5.0702,-5.0702,-5.0702,-5.0702,-5.0702,-5.0683,-5.0702,-5.0702,-5.0702,-5.0721,-5.0702,-5.0701,-3.1482,-3.151,0.0,-3.1854,-3.2006,-3.2199,-3.2641,-3.3085,-3.345,-3.3555,0.0,0.0,0.0,0.0,0.0,0.0,0.0,0.0,0.0,0.0,0.0,0.0,0.0,0.0,0.0,0.0,0.0,0.0,0.0,-3.9612,-4.0095,-4.0112,-4.0353,-4.0853,-4.0888,-4.0888,-4.0793,-4.084,-4.0823,-4.0631,-4.0823,-4.0823,-4.0793,-4.0888,-4.1209,-4.1778,-4.2257,-4.2864,-4.3497,-4.3497,-4.3497,-4.3497,-4.3497,-4.3497,-4.3497,-4.3497,-4.3497,-4.3497,-4.3497,-4.3497,-4.3497,-4.3497,-4.3497,-4.3497,-4.3497,-4.3497,-4.3497,-4.3497,-4.3497,-4.3532,-4.3513,-4.3532,-4.3566,-4.3634,-4.441,-4.5268,-4.5894,-4.7148,-4.8277,-4.8797,-4.8909,-4.8909,-4.8909,-4.8481,-4.8129,-4.8129,-4.7683,-4.7568,-4.8222,-4.831,-4.8343,-4.8434,-4.8611,-4.8739,-4.8833,-4.9041,-4.9515,-5.032,-5.038,-5.0483,-5.0683,-5.0702,-5.0702,-5.0702,-5.0702,-5.0702,-5.0702,-5.0702,-5.0702,-5.0702,-5.0702,-5.0702,-3.1431,-3.1416,-3.1473,0.0,-3.1804,-3.2079,-3.2741,0.0,-3.3542,-3.3901,0.0,0.0,0.0,0.0,0.0,0.0,0.0,0.0,0.0,0.0,0.0,0.0,0.0,0.0,0.0,0.0,0.0,0.0,0.0,0.0,-3.9635,-3.991,-4.0289,-4.0853,-4.084,-4.0793,-4.0697,-4.0728,-4.068,-4.0583,-4.0745,-4.0793,-4.0793,-4.0888,-4.1117,-4.1516,-4.1821,-4.248,-4.3304,-4.3444,-4.3497,-4.3497,-4.3497,-4.3497,-4.3497,-4.3497,-4.3497,-4.3497,-4.3497,-4.3497,-4.3497,-4.3497,-4.3497,-4.3497,-4.3497,-4.3497,-4.3497,-4.3497,-4.3497,-4.3497,-4.3497,-4.3497,-4.3532,-4.3582,-4.4088,-4.4702,-4.5045,-4.6465,-4.7776,-4.8036,-4.8314,-4.8407,-4.8147,-4.7646,-4.7293,-4.7293,-4.6828,-4.6791,-4.7608,-4.746,-4.7497,-4.8054,-4.8012,-4.8128,-4.8514,-4.8739,-4.9216,-5.0024,-5.0159,-5.0294,-5.0504,-5.0624,-5.0702,-5.0702,-5.0702,-5.0702,-5.0702,-5.0702,-5.0702,-5.0702,-5.0702,-5.0702,0.0,0.0,0.0,-3.144,0.0,0.0,-3.2674,0.0,-3.321,-3.4252,0.0,0.0,0.0,0.0,0.0,0.0,0.0,0.0,0.0,0.0,0.0,0.0,0.0,0.0,0.0,0.0,0.0,0.0,-3.8982,-3.947,-3.9611,-4.0285,-4.0745,-4.0853,-4.0745,-4.0697,-4.0697,-4.0583,-4.0583,-4.0697,-4.0697,-4.0793,-4.0871,-4.0888,-4.1117,-4.1472,-4.1472,-4.2032,-4.292,-4.3304,-4.3497,-4.3497,-4.3497,-4.3497,-4.3497,-4.3497,-4.3497,-4.3497,-4.3497,-4.3497,-4.3497,-4.3497,-4.3497,-4.3497,-4.3497,-4.3497,-4.3497,-4.3497,-4.3497,-4.3497,-4.3497,-4.3497,-4.3532,-4.3582,-4.3582,-4.387,-4.4831,-4.6409,-4.7404,-4.6643,-4.7125,-4.7423,-4.6624,-4.6475,-4.6457,-4.6457,-4.6438,-4.6717,-4.7534,-4.694,-4.707,-4.8667,-4.8129,-4.8114,-4.924,-4.9346,-4.948,-4.9776,-5.0019,-5.0183,-5.0183,-5.0504,-5.0683,-5.0702,-5.0683,-5.0683,-5.0702,-5.0702,-5.0702,-5.0702,-5.0702,-5.0702,-3.1269,0.0,0.0,0.0,0.0,0.0,0.0,0.0,0.0,-3.3848,0.0,0.0,0.0,0.0,0.0,0.0,0.0,0.0,0.0,0.0,0.0,0.0,0.0,0.0,0.0,0.0,0.0,0.0,-3.9272,-3.944,-3.947,-4.0124,-4.0374,-3.9984,-4.0453,-4.0648,-4.0534,-4.0728,-4.068,-4.0404,-4.0697,-4.084,-4.0745,-4.084,-4.0965,-4.1088,-4.1356,-4.1821,-4.2418,-4.2864,-4.3232,-4.3497,-4.3497,-4.3497,-4.3497,-4.3497,-4.3497,-4.3497,-4.3497,-4.3497,-4.3497,-4.3497,-4.3497,-4.3497,-4.3497,-4.3497,-4.3497,-4.3497,-4.3497,-4.3497,-4.3497,-4.3497,-4.3479,-4.3513,-4.3548,-4.3689,-4.3944,-4.4979,-4.5964,-4.642,-4.668,-4.6754,-4.6531,-4.6011,-4.5621,-4.5621,-4.5101,-4.5008,-4.5844,-4.5769,-4.603,-4.7051,-4.6958,-4.7196,-4.8077,-4.8151,-4.8557,-4.9461,-4.9588,-4.9712,-4.9891,-4.9987,-5.0155,-5.0317,-5.0336,-5.0462,-5.0702,-5.0702,-5.0702,-5.0702,-5.0702,-5.0702,-3.1291,-3.123,-3.119,-3.119,0.0,0.0,-3.257,-3.3177,-3.3729,0.0,0.0,0.0,0.0,0.0,0.0,0.0,0.0,0.0,0.0,0.0,0.0,0.0,0.0,0.0,0.0,-3.7602,-3.7789,-3.8278,-3.8891,-3.9367,-3.9739,-4.0246,-4.0329,-3.9997,-4.0312,-4.0534,-4.0485,-4.0583,-4.06,-4.0453,-4.068,-4.0793,-4.0793,-4.0871,-4.0888,-4.0918,-4.1163,-4.149,-4.1948,-4.2198,-4.277,-4.3497,-4.3497,-4.3497,-4.3497,-4.3497,-4.3497,-4.3497,-4.3497,-4.3497,-4.3497,-4.3497,-4.3497,-4.3497,-4.3497,-4.3497,-4.3497,-4.3497,-4.3497,-4.3497,-4.3497,-4.3497,-4.3497,-4.3497,-4.3513,-4.3548,-4.3582,-4.4051,-4.4665,-4.5296,-4.5718,-4.5881,-4.5528,-4.5064,-4.4748,-4.4748,-4.4321,-4.4302,-4.5194,-4.4971,-4.5324,-4.6828,-4.6698,-4.6828,-4.7627,-4.7701,-4.7858,-4.8165,-4.8321,-4.8434,-4.857,-4.9048,-4.9352,-4.9548,-4.9847,-5.0183,-5.0483,-5.0624,-5.0702,-5.0702,-5.0702,-5.0702,-3.1368,-3.1252,-3.119,-3.119,-3.119,0.0,-3.2865,-3.322,-3.366,0.0,0.0,0.0,0.0,0.0,0.0,0.0,0.0,0.0,0.0,0.0,0.0,0.0,0.0,0.0,-3.6721,-3.6772,-3.6772,-3.6772,-3.8075,-3.924,-4.0135,-4.0336,-4.0434,-4.0366,-4.0303,-4.0355,-4.0485,-4.0387,-4.0453,-4.0697,-4.0697,-4.0793,-4.0888,-4.0888,-4.0888,-4.0888,-4.0888,-4.1117,-4.1472,-4.1472,-4.2262,-4.341,-4.341,-4.3444,-4.3497,-4.3497,-4.3497,-4.3497,-4.3497,-4.3497,-4.3497,-4.3497,-4.3497,-4.3497,-4.3497,-4.3497,-4.3497,-4.3497,-4.3497,-4.3497,-4.3497,-4.3497,-4.3497,-4.3497,-4.3497,-4.3532,-4.3582,-4.3582,-4.3649,-4.3832,-4.4573,-4.4915,-4.4103,-4.4005,-4.4005,-4.4005,-4.4005,-4.4283,-4.5045,-4.4488,-4.4878,-4.7181,-4.6791,-4.668,-4.7497,-4.7571,-4.7256,-4.655,-4.6707,-4.6869,-4.6869,-4.7825,-4.8386,-4.8412,-4.9235,-4.9784,-5.0007,-5.0445,-5.0663,-5.0702,-5.0702,-5.0702,-3.1482,-3.1252,-3.119,-3.119,-3.119,0.0,-3.1562,-3.207,-3.2577,0.0,0.0,0.0,0.0,0.0,0.0,0.0,0.0,0.0,0.0,0.0,0.0,0.0,0.0,0.0,-3.6755,-3.6772,-3.6772,-3.6772,-3.7618,-3.8447,-3.9223,-3.9866,-3.9966,-3.9486,-3.9982,-4.0288,-4.0337,-4.0436,-4.0485,-4.0534,-4.0648,-4.0793,-4.0888,-4.0888,-4.0888,-4.0888,-4.0888,-4.1117,-4.1472,-4.1472,-4.2115,-4.3013,-4.3013,-4.3214,-4.3497,-4.3497,-4.3497,-4.3497,-4.3497,-4.3497,-4.3497,-4.3497,-4.3497,-4.3497,-4.3497,-4.3497,-4.3497,-4.3497,-4.3497,-4.3497,-4.3497,-4.3497,-4.3497,-4.3497,-4.3497,-4.3479,-4.3532,-4.3548,-4.3615,-4.3649,-4.3929,-4.4133,-4.3966,-4.3974,-4.4005,-4.4005,-4.4005,-4.4061,-4.4228,-4.4116,-4.4451,-4.5639,-4.5621,-4.5862,-4.6661,-4.6735,-4.6661,-4.6513,-4.6541,-4.6573,-4.6573,-4.6768,-4.7011,-4.724,-4.8275,-4.8871,-4.8903,-4.9835,-5.0442,-5.0702,-5.0702,-5.0702,-3.1455,-3.123,0.0,-3.119,0.0,0.0,0.0,-3.2019,-3.2391,-3.2763,-3.3136,-3.3406,-3.3406,0.0,0.0,0.0,0.0,0.0,0.0,0.0,0.0,0.0,0.0,0.0,-3.6197,-3.6552,-3.6941,-3.7313,-3.7702,-3.8227,-3.8954,-3.9343,-3.9579,-3.9645,-4.0001,-4.0238,-4.0305,-4.0355,-4.0436,-4.0485,-4.0583,-4.0697,-4.0793,-4.0793,-4.084,-4.0888,-4.0888,-4.0995,-4.1209,-4.1209,-4.1578,-4.2257,-4.2711,-4.3032,-4.3232,-4.341,-4.3497,-4.3497,-4.3497,-4.3497,-4.3497,-4.3497,-4.3497,-4.3497,-4.3497,-4.3497,-4.3497,-4.3497,-4.3497,-4.3497,-4.3497,-4.3497,-4.3497,-4.3497,-4.3497,-4.3497,-4.3497,-4.3532,-4.3548,-4.3548,-4.3667,-4.3767,-4.3851,-4.3915,-4.3961,-4.3961,-4.3974,-4.4005,-4.4005,-4.4005,-4.4321,-4.5212,-4.5287,-4.5454,-4.5862,-4.59,-4.5714,-4.5287,-4.5249,-4.5249,-4.5249,-4.5658,-4.6164,-4.6694,-4.7665,-4.8089,-4.7946,-4.8891,-4.9716,-5.0442,-5.0624,-5.0702,0.0,0.0,0.0,0.0,0.0,-3.136,0.0,0.0,0.0,0.0,0.0,0.0,0.0,0.0,0.0,0.0,0.0,0.0,0.0,0.0,0.0,0.0,0.0,0.0,0.0,-3.5977,-3.6721,-3.7618,-3.755,-3.7922,-3.8937,-3.8988,-3.9326,-4.0054,-4.007,-4.0138,-4.0238,-4.0238,-4.0337,-4.0485,-4.0485,-4.0534,-4.0648,-4.0697,-4.0745,-4.0871,-4.0888,-4.0888,-4.0888,-4.0888,-4.1071,-4.149,-4.2279,-4.275,-4.292,-4.3268,-4.341,-4.3497,-4.3497,-4.3497,-4.3497,-4.3497,-4.3497,-4.3497,-4.3497,-4.3497,-4.3497,-4.3497,-4.3497,-4.3497,-4.3497,-4.3497,-4.3497,-4.3497,-4.3497,-4.3497,-4.3497,-4.3497,-4.3497,-4.3497,-4.3548,-4.3634,-4.3753,-4.3818,-4.3883,-4.3915,-4.3961,-4.3974,-4.4005,-4.4005,-4.4265,-4.4971,-4.5045,-4.5045,-4.5045,-4.5045,-4.4748,-4.4042,-4.4005,-4.4005,-4.4005,-4.4674,-4.5361,-4.6011,-4.6828,-4.7124,-4.6917,-4.7926,-4.8903,-4.9816,-5.0257,-5.0452,0.0,0.0,0.0,0.0,-3.119,0.0,0.0,0.0,-3.1343,-3.1427,0.0,0.0,0.0,0.0,0.0,0.0,0.0,0.0,0.0,0.0,0.0,0.0,0.0,0.0,0.0,-3.4709,-3.5351,-3.6806,-3.6265,-3.6789,-3.8886,-3.8988,-3.9326,-4.0054,-4.007,-4.0138,-4.0138,-4.0138,-4.0188,-4.0337,-4.0337,-4.0387,-4.0534,-4.0648,-4.0697,-4.0745,-4.084,-4.0888,-4.0888,-4.0888,-4.0918,-4.0995,-4.149,-4.2157,-4.29,-4.2957,-4.3178,-4.3497,-4.3497,-4.3497,-4.3497,-4.3497,-4.3497,-4.3497,-4.3497,-4.3497,-4.3497,-4.3497,-4.3497,-4.3497,-4.3497,-4.3497,-4.3497,-4.3497,-4.3497,-4.3497,-4.3497,-4.3497,-4.3497,-4.3497,-4.3532,-4.3532,-4.3615,-4.3719,-4.3818,-4.3883,-4.3897,-4.3929,-4.4005,-4.4005,-4.4042,-4.4135,-4.4153,-4.4153,-4.4153,-4.4153,-4.4116,-4.4005,-4.4005,-4.4005,-4.4005,-4.4098,-4.4191,-4.4283,-4.5119,-4.5542,-4.5525,-4.7278,-4.8219,-4.8356,-4.9164,-4.9548,0.0,0.0,0.0,0.0,0.0,0.0,-3.1292,0.0,-3.119,0.0,0.0,0.0,0.0,0.0,0.0,0.0,-3.0362,0.0,0.0,0.0,0.0,0.0,0.0,0.0,0.0,0.0,0.0,0.0,-3.5808,-3.6417,-3.8261,-3.8362,-3.8886,-4.0037,-4.007,-4.007,-4.007,-4.007,-4.0138,-4.0188,-4.0188,-4.0238,-4.0387,-4.0436,-4.0502,-4.0583,-4.0745,-4.0793,-4.0793,-4.0888,-4.0888,-4.0935,-4.1088,-4.1534,-4.2115,-4.2378,-4.2788,-4.3142,-4.3142,-4.3304,-4.3497,-4.3497,-4.3497,-4.3497,-4.3497,-4.3497,-4.3497,-4.3497,-4.3497,-4.3497,-4.3497,-4.3497,-4.3497,-4.3497,-4.3497,-4.3497,-4.3497,-4.3497,-4.3497,-4.3497,-4.3497,-4.3532,-4.3532,-4.3634,-4.3719,-4.3818,-4.3883,-4.3929,-4.4005,-4.4005,-4.4005,-4.4005,-4.4005,-4.4005,-4.4005,-4.4005,-4.4005,-4.4005,-4.4005,-4.4005,-4.4005,-4.4005,-4.4005,-4.4005,-4.4859,-4.5345,-4.5473,-4.6784,-4.7475,-4.7652,-4.9166,-4.9967,-3.0954,0.0,0.0,0.0,0.0,0.0,0.0,0.0,0.0,0.0,0.0,0.0,0.0,0.0,-2.9803,-2.9803,0.0,-2.96,0.0,0.0,0.0,0.0,0.0,0.0,0.0,0.0,0.0,-3.5301,-3.5318,-3.5977,-3.7516,-3.7787,-3.8481,-3.9732,-3.9969,-4.007,-4.007,-4.007,-4.007,-4.007,-4.007,-4.0138,-4.0238,-4.0305,-4.0337,-4.0436,-4.06,-4.0648,-4.0697,-4.0793,-4.0888,-4.0888,-4.0888,-4.1088,-4.1401,-4.1821,-4.2297,-4.2711,-4.2844,-4.3142,-4.3497,-4.3497,-4.3497,-4.3497,-4.3497,-4.3497,-4.3497,-4.3497,-4.3497,-4.3497,-4.3497,-4.3497,-4.3497,-4.3497,-4.3497,-4.3497,-4.3497,-4.3497,-4.3497,-4.3497,-4.3497,-4.3497,-4.3497,-4.3548,-4.36,-4.3719,-4.3786,-4.3865,-4.3942,-4.3974,-4.3974,-4.4005,-4.4005,-4.4005,-4.4005,-4.4005,-4.4005,-4.4005,-4.4005,-4.4005,-4.4005,-4.4005,-4.4005,-4.4005,-4.4618,-4.5022,-4.5169,-4.602,-4.6609,-4.6906,-4.884,-4.9862,0.0,0.0,0.0,-3.1376,0.0,0.0,0.0,0.0,-3.119,0.0,0.0,0.0,0.0,-2.9533,-2.9062,-2.9062,-2.9062,0.0,0.0,0.0,0.0,0.0,0.0,0.0,0.0,0.0,0.0,-3.4472,-3.4523,-3.5199,-3.6738,-3.7499,-3.8261,-3.9005,-3.9715,-4.007,-4.007,-4.007,-4.007,-4.007,-4.007,-4.007,-4.0121,-4.0238,-4.0305,-4.0288,-4.0436,-4.0583,-4.0697,-4.0697,-4.0793,-4.0888,-4.0888,-4.0935,-4.0965,-4.1356,-4.1821,-4.2297,-4.275,-4.3142,-4.3497,-4.3497,-4.3497,-4.3497,-4.3497,-4.3497,-4.3497,-4.3497,-4.3497,-4.3497,-4.3497,-4.3497,-4.3497,-4.3497,-4.3497,-4.3497,-4.3497,-4.3497,-4.3497,-4.3497,-4.3497,-4.3497,-4.3497,-4.3479,-4.3532,-4.36,-4.3615,-4.3682,-4.3865,-4.3897,-4.3929,-4.4005,-4.4005,-4.4005,-4.4005,-4.4005,-4.4005,-4.4005,-4.4005,-4.4005,-4.4005,-4.4005,-4.4005,-4.4005,-4.4023,-4.4042,-4.4042,-4.4947,-4.5475,-4.5811,-4.7681,-4.8572,0.0,0.0,-3.4066,-3.2341,0.0,0.0,0.0,0.0,0.0,0.0,0.0,0.0,0.0,-2.982,-2.9011,-2.9011,-2.8129,-2.7469,0.0,0.0,0.0,0.0,0.0,0.0,0.0,0.0,0.0,-3.3744,-3.4692,-3.569,0.0,-3.7026,-3.7719,-3.8954,-3.9225,-3.9597,-4.007,-4.007,-4.007,-4.007,-4.007,-4.007,-4.007,-4.0138,-4.0188,-4.0188,-4.0288,-4.0387,-4.0453,-4.0534,-4.0648,-4.0793,-4.0793,-4.084,-4.0935,-4.1041,-4.1373,-4.1821,-4.2279,-4.2537,-4.2693,-4.2995,-4.3105,-4.3142,-4.341,-4.3497,-4.3497,-4.3497,-4.3497,-4.3497,-4.3497,-4.3497,-4.3497,-4.3497,-4.3497,-4.3497,-4.3497,-4.3497,-4.3497,-4.3497,-4.3497,-4.3497,-4.3497,-4.3497,-4.3513,-4.3582,-4.3582,-4.3667,-4.3818,-4.3818,-4.3851,-4.3851,-4.3897,-4.3929,-4.3929,-4.3974,-4.4005,-4.4005,-4.4005,-4.4005,-4.4005,-4.4005,-4.4005,-4.4005,-4.4005,-4.4283,-4.4859,-4.5157,-4.5611,-4.624,-4.6875,-4.7701,-3.2984,-3.403,0.0,-3.3423,-3.3778,0.0,-3.2036,0.0,0.0,0.0,0.0,0.0,0.0,0.0,-2.9381,-2.9381,-2.8095,-2.6996,0.0,-2.7114,0.0,0.0,0.0,0.0,0.0,0.0,-3.2949,-3.3728,-3.4675,-3.5554,0.0,0.0,-3.7347,-3.8565,-3.8853,-3.9343,-4.007,-4.007,-4.007,-4.007,-4.007,-4.007,-4.007,-4.007,-4.0138,-4.0188,-4.0188,-4.0288,-4.0387,-4.0436,-4.0551,-4.0697,-4.0697,-4.0793,-4.0888,-4.0888,-4.1163,-4.1516,-4.1864,-4.2074,-4.2239,-4.2537,-4.275,-4.2957,-4.3232,-4.3375,-4.3497,-4.3497,-4.3497,-4.3497,-4.3497,-4.3497,-4.3497,-4.3497,-4.3497,-4.3497,-4.3497,-4.3497,-4.3497,-4.3497,-4.3497,-4.3497,-4.3497,-4.3497,-4.3513,-4.3548,-4.3548,-4.36,-4.3719,-4.3719,-4.3771,-4.3804,-4.3837,-4.3883,-4.3915,-4.3961,-4.3974,-4.4005,-4.4005,-4.4005,-4.4005,-4.4005,-4.4153,-4.4451,-4.4153,-4.4432,-4.5287,-4.4989,-4.5101,-4.5621,-4.5918,-4.6564]}]]